[[{"header":{"parameterUnit":"m.s-1","parameterCategory":1,"la1":30.6,"la2":29.2853,"lo1":-89.7004,"lo2":-87.6739,"dy":0.0162,"dx":0.0183,"nx":112,"ny":82,"refTime":"2026-03-05T12:00:00:Z","depth":0,"parameterNumber":2,"parameterNumberName":"U-component_of_WINDS"},"data":[0.0,0.0,0.0,0.0,0.0,0.0,0.0,0.0,0.0,0.0,0.0,0.0,0.0,0.0,0.0,0.0,0.0,0.0,0.0,0.0,0.0,0.0,0.0,0.0,0.0,0.0,0.0,0.0,0.0,0.0,0.0,0.0,0.0,0.0,0.0,0.0,0.0,0.0,0.0,0.0,0.0,0.0,0.0,0.0,0.0,0.0,0.0,0.0,0.0,0.0,0.0,0.0,0.0,0.0,0.0,0.0,0.0,0.0,0.0,0.0,0.0,0.0,0.0,0.0,0.0,0.0,0.0,0.0,0.0,0.0,0.0,0.0,0.0,0.0,0.0,0.0,0.0,0.0,0.0,0.0,0.0,0.0,0.0,0.0,0.0,0.0,0.0,0.0,0.0,0.0,-2.6833,-2.7627,-2.9023,-2.9897,-2.9897,-2.9216,-2.8472,-2.7729,0.0,0.0,0.0,0.0,0.0,0.0,0.0,0.0,0.0,0.0,0.0,0.0,0.0,0.0,0.0,0.0,0.0,0.0,0.0,0.0,0.0,0.0,0.0,0.0,0.0,0.0,0.0,0.0,0.0,0.0,0.0,0.0,0.0,0.0,0.0,0.0,0.0,0.0,0.0,0.0,0.0,0.0,0.0,0.0,0.0,0.0,0.0,0.0,0.0,0.0,0.0,0.0,0.0,0.0,0.0,0.0,0.0,0.0,0.0,0.0,0.0,0.0,0.0,0.0,0.0,0.0,0.0,0.0,0.0,0.0,0.0,0.0,0.0,0.0,0.0,0.0,0.0,0.0,0.0,0.0,0.0,0.0,0.0,0.0,0.0,0.0,0.0,0.0,0.0,0.0,0.0,0.0,0.0,0.0,0.0,0.0,0.0,0.0,0.0,0.0,0.0,0.0,0.0,0.0,-2.6089,-2.7994,-2.9223,-2.9897,-2.9897,-2.9163,-2.8396,-2.7655,0.0,0.0,0.0,0.0,0.0,0.0,0.0,0.0,0.0,0.0,0.0,0.0,0.0,0.0,0.0,0.0,0.0,0.0,0.0,0.0,0.0,0.0,0.0,0.0,0.0,0.0,0.0,0.0,0.0,0.0,0.0,0.0,0.0,0.0,0.0,0.0,0.0,0.0,0.0,0.0,0.0,0.0,0.0,0.0,0.0,0.0,0.0,0.0,0.0,0.0,0.0,0.0,0.0,0.0,0.0,0.0,0.0,0.0,0.0,0.0,0.0,0.0,0.0,0.0,0.0,0.0,0.0,0.0,0.0,0.0,0.0,0.0,0.0,0.0,0.0,0.0,0.0,0.0,0.0,0.0,0.0,0.0,0.0,0.0,0.0,0.0,0.0,0.0,0.0,0.0,0.0,0.0,0.0,0.0,0.0,0.0,0.0,0.0,0.0,0.0,0.0,0.0,0.0,-2.6866,-2.711,-2.8968,-2.9612,-2.9897,-2.9897,-2.9161,-2.8374,-2.7584,-2.6829,0.0,0.0,0.0,0.0,0.0,0.0,0.0,0.0,0.0,0.0,0.0,0.0,0.0,0.0,0.0,0.0,0.0,0.0,0.0,0.0,0.0,0.0,0.0,0.0,0.0,0.0,0.0,0.0,0.0,0.0,0.0,0.0,0.0,0.0,0.0,0.0,0.0,0.0,0.0,0.0,0.0,0.0,0.0,0.0,0.0,0.0,0.0,0.0,0.0,0.0,0.0,0.0,0.0,0.0,0.0,0.0,0.0,0.0,0.0,0.0,0.0,0.0,0.0,0.0,0.0,0.0,0.0,0.0,0.0,0.0,0.0,0.0,0.0,0.0,0.0,0.0,0.0,0.0,0.0,0.0,0.0,0.0,0.0,0.0,0.0,0.0,0.0,0.0,0.0,0.0,0.0,0.0,0.0,0.0,0.0,0.0,0.0,0.0,0.0,0.0,0.0,0.0,-2.7964,-2.8525,-2.9764,-2.9897,-2.9897,-2.9897,-2.9147,-2.8351,-2.7549,-2.6731,0.0,0.0,0.0,0.0,0.0,0.0,0.0,0.0,0.0,0.0,0.0,0.0,0.0,0.0,0.0,0.0,0.0,0.0,0.0,0.0,0.0,0.0,0.0,0.0,0.0,0.0,0.0,0.0,0.0,0.0,0.0,0.0,0.0,0.0,0.0,0.0,0.0,0.0,0.0,0.0,0.0,0.0,0.0,0.0,0.0,0.0,0.0,0.0,0.0,0.0,0.0,0.0,0.0,0.0,0.0,0.0,0.0,0.0,0.0,0.0,0.0,0.0,0.0,0.0,0.0,0.0,0.0,0.0,0.0,0.0,0.0,0.0,0.0,0.0,0.0,0.0,0.0,0.0,0.0,0.0,0.0,0.0,0.0,0.0,0.0,0.0,0.0,0.0,0.0,0.0,0.0,0.0,0.0,0.0,0.0,0.0,0.0,0.0,0.0,0.0,0.0,0.0,-2.8382,-2.971,-2.9888,-2.9897,-2.9897,-2.9897,-2.9147,-2.8362,-2.7538,-2.6737,0.0,0.0,0.0,0.0,0.0,0.0,0.0,0.0,0.0,0.0,0.0,0.0,0.0,0.0,0.0,0.0,0.0,0.0,0.0,0.0,0.0,0.0,0.0,0.0,0.0,0.0,0.0,0.0,0.0,0.0,0.0,0.0,0.0,0.0,0.0,0.0,0.0,0.0,0.0,0.0,0.0,0.0,0.0,0.0,0.0,0.0,0.0,0.0,0.0,0.0,0.0,0.0,0.0,0.0,0.0,0.0,0.0,0.0,0.0,0.0,0.0,0.0,0.0,0.0,0.0,0.0,0.0,0.0,0.0,0.0,0.0,0.0,0.0,0.0,0.0,0.0,0.0,0.0,0.0,0.0,0.0,0.0,0.0,0.0,0.0,0.0,0.0,0.0,0.0,0.0,0.0,0.0,0.0,0.0,0.0,0.0,0.0,0.0,0.0,0.0,0.0,0.0,-2.8093,-2.9135,-2.9713,-2.9779,-2.9779,-2.9825,-2.9101,-2.8316,-2.7547,0.0,0.0,0.0,0.0,0.0,0.0,0.0,0.0,0.0,0.0,0.0,0.0,0.0,0.0,0.0,0.0,0.0,0.0,0.0,0.0,0.0,0.0,0.0,0.0,0.0,0.0,0.0,0.0,0.0,0.0,0.0,0.0,0.0,0.0,0.0,0.0,0.0,0.0,0.0,0.0,0.0,0.0,0.0,0.0,0.0,0.0,0.0,0.0,0.0,0.0,0.0,0.0,0.0,0.0,0.0,0.0,0.0,0.0,0.0,0.0,0.0,0.0,0.0,0.0,0.0,0.0,0.0,0.0,0.0,0.0,0.0,0.0,0.0,0.0,0.0,0.0,0.0,0.0,0.0,0.0,0.0,0.0,0.0,0.0,0.0,0.0,0.0,0.0,0.0,0.0,0.0,0.0,0.0,0.0,0.0,0.0,0.0,0.0,0.0,0.0,0.0,0.0,-2.7075,-2.8035,-2.8895,-2.9505,-2.9354,-2.9223,-2.9205,-2.8246,-2.7457,-2.6983,0.0,0.0,0.0,0.0,0.0,0.0,0.0,0.0,0.0,0.0,0.0,0.0,0.0,0.0,0.0,0.0,0.0,0.0,0.0,0.0,0.0,0.0,0.0,0.0,0.0,0.0,0.0,0.0,0.0,0.0,0.0,0.0,0.0,0.0,0.0,0.0,0.0,0.0,0.0,0.0,0.0,0.0,0.0,0.0,0.0,0.0,0.0,0.0,0.0,0.0,0.0,0.0,0.0,0.0,0.0,0.0,0.0,0.0,0.0,0.0,0.0,0.0,0.0,0.0,0.0,0.0,0.0,0.0,0.0,0.0,0.0,0.0,0.0,0.0,0.0,0.0,0.0,0.0,0.0,0.0,0.0,0.0,0.0,0.0,0.0,0.0,0.0,0.0,0.0,0.0,0.0,0.0,0.0,0.0,0.0,0.0,0.0,0.0,0.0,0.0,0.0,0.0,-2.696,-2.8301,-2.9183,-2.9256,-2.8611,-2.8108,-2.789,-2.6477,-2.5661,0.0,0.0,0.0,0.0,0.0,0.0,0.0,0.0,0.0,0.0,0.0,0.0,0.0,0.0,0.0,0.0,0.0,0.0,0.0,0.0,0.0,0.0,0.0,0.0,0.0,0.0,0.0,0.0,0.0,0.0,0.0,0.0,0.0,0.0,0.0,0.0,0.0,0.0,0.0,0.0,0.0,0.0,0.0,0.0,0.0,0.0,0.0,0.0,0.0,0.0,0.0,0.0,0.0,0.0,0.0,0.0,0.0,0.0,0.0,0.0,0.0,0.0,0.0,0.0,0.0,0.0,0.0,0.0,0.0,0.0,0.0,0.0,0.0,0.0,0.0,0.0,0.0,0.0,0.0,0.0,0.0,0.0,0.0,0.0,0.0,0.0,0.0,0.0,0.0,0.0,0.0,0.0,0.0,0.0,0.0,0.0,0.0,0.0,0.0,0.0,0.0,0.0,0.0,-2.5986,-2.6749,-2.7298,-2.7461,-2.7182,-2.6995,-2.6974,-2.6056,-2.556,-2.5784,0.0,0.0,0.0,0.0,0.0,0.0,0.0,0.0,0.0,0.0,0.0,0.0,0.0,0.0,0.0,0.0,0.0,0.0,0.0,0.0,0.0,0.0,0.0,0.0,0.0,0.0,0.0,0.0,0.0,0.0,0.0,0.0,0.0,0.0,0.0,0.0,0.0,0.0,0.0,0.0,0.0,0.0,0.0,0.0,0.0,0.0,0.0,0.0,0.0,0.0,0.0,0.0,0.0,0.0,0.0,0.0,0.0,0.0,0.0,0.0,0.0,0.0,0.0,0.0,0.0,0.0,0.0,0.0,0.0,0.0,0.0,0.0,0.0,0.0,0.0,0.0,0.0,0.0,0.0,0.0,0.0,0.0,0.0,0.0,0.0,0.0,0.0,0.0,0.0,0.0,0.0,0.0,0.0,0.0,0.0,0.0,0.0,0.0,0.0,0.0,0.0,0.0,-2.5412,-2.6002,-2.6322,-2.6458,-2.6125,-2.5892,-2.5856,-2.5124,-2.4636,-2.4533,0.0,0.0,0.0,0.0,0.0,0.0,0.0,0.0,0.0,0.0,0.0,0.0,0.0,0.0,0.0,0.0,0.0,0.0,0.0,0.0,0.0,0.0,0.0,0.0,0.0,0.0,0.0,0.0,0.0,0.0,0.0,0.0,0.0,0.0,0.0,0.0,0.0,0.0,0.0,0.0,0.0,0.0,0.0,0.0,0.0,0.0,0.0,0.0,0.0,0.0,0.0,0.0,0.0,0.0,0.0,0.0,0.0,0.0,0.0,0.0,0.0,0.0,0.0,0.0,0.0,0.0,0.0,0.0,0.0,0.0,0.0,0.0,0.0,0.0,0.0,0.0,0.0,0.0,0.0,0.0,0.0,0.0,0.0,0.0,0.0,0.0,0.0,0.0,0.0,0.0,0.0,0.0,0.0,0.0,0.0,0.0,0.0,0.0,0.0,0.0,0.0,0.0,-2.5065,-2.5608,-2.5864,-2.5876,-2.5274,-2.4791,-2.4599,-2.3991,-2.3304,-2.2636,0.0,0.0,0.0,0.0,0.0,0.0,0.0,0.0,0.0,0.0,0.0,0.0,0.0,0.0,0.0,0.0,0.0,0.0,0.0,0.0,0.0,0.0,0.0,0.0,0.0,0.0,0.0,0.0,0.0,0.0,0.0,0.0,0.0,0.0,0.0,0.0,0.0,0.0,0.0,0.0,0.0,0.0,0.0,0.0,0.0,0.0,0.0,0.0,0.0,0.0,0.0,0.0,0.0,0.0,0.0,0.0,0.0,0.0,0.0,0.0,-2.3188,-2.3529,0.0,0.0,0.0,0.0,0.0,0.0,0.0,0.0,0.0,0.0,0.0,0.0,0.0,0.0,0.0,0.0,0.0,0.0,0.0,0.0,0.0,0.0,0.0,0.0,0.0,0.0,0.0,0.0,0.0,0.0,0.0,0.0,0.0,0.0,0.0,0.0,0.0,0.0,0.0,0.0,-2.4311,-2.4212,-2.4096,-2.4205,-2.3986,-2.3794,-2.3755,-2.3606,-2.326,-2.2636,-2.2032,0.0,0.0,0.0,0.0,0.0,0.0,0.0,0.0,0.0,0.0,0.0,0.0,0.0,0.0,0.0,0.0,0.0,0.0,0.0,0.0,0.0,0.0,0.0,0.0,0.0,0.0,0.0,0.0,0.0,0.0,0.0,0.0,0.0,0.0,0.0,0.0,0.0,0.0,0.0,0.0,0.0,0.0,0.0,0.0,0.0,0.0,0.0,0.0,0.0,0.0,0.0,0.0,0.0,0.0,0.0,0.0,0.0,0.0,0.0,-2.3077,-2.335,0.0,0.0,0.0,0.0,0.0,0.0,0.0,0.0,0.0,0.0,0.0,0.0,0.0,0.0,0.0,0.0,0.0,0.0,0.0,0.0,0.0,0.0,0.0,0.0,0.0,0.0,0.0,0.0,0.0,0.0,0.0,0.0,0.0,0.0,0.0,0.0,0.0,0.0,0.0,0.0,-2.3707,-2.3542,-2.336,-2.3452,-2.3424,-2.3424,-2.3459,-2.3482,-2.3205,-2.2502,-2.173,0.0,0.0,0.0,0.0,0.0,0.0,0.0,0.0,0.0,0.0,0.0,0.0,0.0,0.0,0.0,0.0,0.0,0.0,0.0,0.0,0.0,0.0,0.0,0.0,0.0,0.0,0.0,0.0,0.0,0.0,0.0,0.0,0.0,0.0,0.0,0.0,0.0,0.0,0.0,0.0,0.0,0.0,0.0,0.0,0.0,0.0,0.0,0.0,0.0,0.0,0.0,0.0,0.0,-2.2776,-2.3089,-2.3176,-2.2393,-2.2317,-2.2816,-2.3383,-2.3482,-2.3288,-2.3566,0.0,0.0,0.0,0.0,0.0,0.0,0.0,0.0,0.0,0.0,0.0,0.0,0.0,0.0,0.0,0.0,0.0,0.0,0.0,0.0,0.0,0.0,-2.3804,-2.1974,-2.2114,-2.2536,-2.2157,0.0,0.0,0.0,0.0,0.0,0.0,0.0,0.0,0.0,0.0,0.0,-2.3292,-2.3248,-2.3132,-2.318,-2.3229,-2.3289,-2.3336,-2.3395,-2.3092,-2.2284,-2.1676,-2.0993,0.0,0.0,0.0,0.0,0.0,0.0,0.0,0.0,0.0,0.0,0.0,0.0,0.0,0.0,0.0,0.0,0.0,0.0,0.0,0.0,0.0,0.0,0.0,0.0,0.0,0.0,0.0,0.0,0.0,0.0,0.0,0.0,-1.8926,-1.9686,0.0,0.0,0.0,0.0,0.0,0.0,0.0,0.0,0.0,0.0,0.0,0.0,0.0,-2.0906,-2.139,-2.1574,-2.169,-2.1702,-2.2414,-2.2764,-2.2773,-2.2643,-2.2634,-2.2759,-2.3465,0.0,-2.3129,-2.3177,0.0,0.0,0.0,0.0,0.0,0.0,0.0,0.0,0.0,0.0,0.0,0.0,0.0,0.0,0.0,0.0,0.0,0.0,0.0,0.0,0.0,0.0,-2.362,-2.3347,-2.2833,-2.2422,-2.2355,-2.1658,-2.0819,-2.0092,-2.002,-1.9858,0.0,0.0,0.0,0.0,0.0,0.0,-2.3228,-2.3188,-2.3089,-2.3119,-2.3132,-2.3132,-2.3144,-2.3156,-2.2804,-2.2007,-2.1924,-2.158,-2.0902,-2.0162,0.0,0.0,0.0,0.0,0.0,0.0,0.0,0.0,0.0,0.0,0.0,0.0,0.0,0.0,0.0,0.0,0.0,0.0,0.0,0.0,0.0,0.0,0.0,0.0,0.0,0.0,0.0,0.0,0.0,-1.8776,-1.9586,-1.9538,-1.9583,-1.9612,0.0,0.0,0.0,0.0,0.0,0.0,0.0,0.0,0.0,-2.0877,-2.0997,-2.1196,-2.1481,-2.1893,-2.2002,-2.1837,-2.2143,-2.2271,-2.2186,-2.2186,-2.2229,-2.2329,-2.2652,-2.2664,-2.2533,-2.3302,-2.3793,-2.4034,0.0,0.0,0.0,0.0,-2.3544,-2.3616,-2.3963,-2.3537,-2.2844,-2.2957,0.0,0.0,0.0,0.0,0.0,0.0,0.0,-2.4227,-2.351,-2.3426,-2.3466,-2.3158,-2.2935,-2.2752,-2.2611,-2.1949,-2.122,-2.071,-2.0924,-2.0843,-1.975,-2.0172,0.0,0.0,0.0,-2.2282,-2.2986,-2.2947,-2.2893,-2.2932,-2.297,-2.299,-2.3045,-2.3082,-2.29,-2.2447,-2.201,-2.1411,-2.0576,-1.9812,-1.9283,0.0,0.0,0.0,0.0,0.0,0.0,0.0,0.0,0.0,0.0,0.0,0.0,0.0,0.0,0.0,0.0,0.0,0.0,0.0,0.0,0.0,0.0,0.0,0.0,0.0,0.0,0.0,0.0,-1.934,-1.9831,-1.9337,-1.9883,-2.0141,0.0,0.0,0.0,0.0,0.0,0.0,-2.0276,-2.0004,-2.0034,-2.0494,-2.1093,-2.1424,-2.1437,-2.1975,-2.2115,-2.1866,-2.1866,-2.1923,-2.1986,-2.1986,-2.2029,-2.218,-2.2393,-2.2406,-2.2329,-2.323,-2.371,-2.3818,-2.337,-2.3306,-2.345,-2.3259,-2.3212,-2.3289,-2.3764,-2.353,-2.3028,-2.3157,-2.2647,-2.1905,-2.1444,0.0,0.0,0.0,0.0,-2.4082,-2.3216,-2.3153,-2.3194,-2.2799,-2.2855,-2.2927,-2.2751,-2.2268,-2.1685,-2.105,-2.1174,-2.1004,-1.9775,-2.0004,0.0,-2.0849,-2.1246,-2.1843,-2.2729,-2.2764,-2.2725,-2.2777,-2.2829,-2.2855,-2.2855,-2.2893,-2.2838,-2.2607,-2.2061,-2.1332,-2.0454,-1.985,-1.9195,-1.8499,0.0,0.0,0.0,0.0,0.0,0.0,0.0,0.0,0.0,0.0,0.0,0.0,0.0,0.0,0.0,0.0,0.0,0.0,0.0,0.0,0.0,0.0,0.0,0.0,0.0,0.0,0.0,0.0,0.0,-1.8929,-1.9565,0.0,0.0,0.0,0.0,-2.0125,-1.9781,-1.9883,-2.0622,-2.0373,-2.0523,-2.1318,-2.1366,-2.1429,-2.1488,-2.1521,-2.1539,-2.1539,-2.1539,-2.1868,-2.2458,-2.2458,-2.249,-2.2619,-2.3456,-2.3468,-2.2941,-2.2612,-2.2562,-2.2703,-2.2868,-2.3003,-2.3102,-2.2965,-2.2952,-2.302,-2.2979,-2.2903,-2.2829,-2.2906,-2.2375,-2.1737,-2.182,-2.2051,0.0,0.0,-2.2565,-2.3116,-2.2799,-2.2721,-2.2721,-2.2712,-2.2712,-2.2712,-2.2699,-2.2664,-2.2212,-2.0723,-1.9907,-1.9215,-1.8519,0.0,-1.8856,-2.0378,-2.0547,-2.1022,-2.2522,-2.2699,-2.2699,-2.2699,-2.2712,-2.2632,-2.2446,-2.2432,-2.2332,-2.2056,-2.2062,-2.1734,-2.0992,-2.0974,-2.0344,-1.8989,-1.8967,0.0,0.0,0.0,0.0,0.0,0.0,0.0,0.0,0.0,0.0,0.0,0.0,0.0,0.0,0.0,0.0,0.0,0.0,0.0,0.0,0.0,0.0,0.0,0.0,0.0,0.0,0.0,0.0,-1.9534,-2.0191,0.0,-2.0014,-1.9788,-1.991,-2.0481,-1.9994,-2.0067,-2.1036,-2.078,-2.083,-2.1323,-2.1339,-2.1354,-2.1369,-2.1809,-2.1908,-2.1694,-2.2125,-2.2423,-2.2556,-2.2556,-2.2627,-2.2749,-2.3161,-2.2975,-2.2427,-2.25,-2.2794,-2.315,-2.274,-2.2685,-2.2842,-2.279,-2.279,-2.2803,-2.2777,-2.2764,-2.2738,-2.2764,-2.2587,-2.2345,-2.2408,-2.2802,-2.311,-2.2522,-2.2907,-2.3331,-2.2726,-2.2582,-2.2582,-2.2582,-2.2582,-2.2582,-2.2582,-2.2205,-2.1696,-2.1148,-2.1275,-2.1263,-2.0552,-2.0804,-2.1113,-2.1177,-2.1578,-2.2052,-2.2563,-2.2672,-2.2699,-2.2699,-2.2579,-2.2487,-2.2422,-2.2231,-2.2044,-2.1811,-2.1825,-2.1435,-2.0597,-2.0562,-1.9981,-1.8709,-1.8725,-1.8463,0.0,0.0,0.0,0.0,0.0,0.0,0.0,0.0,0.0,0.0,0.0,0.0,0.0,0.0,0.0,0.0,0.0,0.0,0.0,0.0,0.0,0.0,0.0,0.0,0.0,-1.9512,-1.9861,-1.9878,-2.0635,-2.088,-2.015,-2.0033,-2.0236,-2.0757,-2.0304,-2.0305,-2.1039,-2.0795,-2.0729,-2.0958,-2.1182,-2.1293,-2.1293,-2.1944,-2.2188,-2.1972,-2.2407,-2.2711,-2.2828,-2.2828,-2.2907,-2.3008,-2.3135,-2.2866,-2.2307,-2.2566,-2.2949,-2.3326,-2.2562,-2.2402,-2.2626,-2.2884,-2.301,-2.3078,-2.3078,-2.3078,-2.3026,-2.2785,-2.2699,-2.2699,-2.2699,-2.303,-2.3282,-2.2743,-2.2939,-2.3168,-2.2634,-2.2501,-2.2501,-2.2501,-2.2501,-2.2501,-2.2501,-2.2125,-2.1767,-2.1767,-2.1828,-2.1691,-2.1211,-2.152,-2.1764,-2.1503,-2.1923,-2.2344,-2.2548,-2.2623,-2.2592,-2.248,-2.2343,-2.2175,-2.1986,-2.1838,-2.1691,-2.151,-2.1527,-2.1253,-2.0661,-2.0418,-1.9809,-1.8759,-1.8532,-1.8294,-1.8004,0.0,0.0,0.0,0.0,0.0,0.0,0.0,0.0,0.0,0.0,0.0,0.0,0.0,0.0,0.0,0.0,0.0,0.0,0.0,0.0,0.0,0.0,0.0,-1.8743,-1.9374,-1.9842,-1.9853,-2.0819,-2.1199,-2.0481,-2.0762,-2.0975,-2.0975,-2.073,-2.058,-2.058,-2.0392,-2.0287,-2.0287,-2.0949,-2.1304,-2.1304,-2.1997,-2.2336,-2.2317,-2.2351,-2.2686,-2.3332,-2.3332,-2.3377,-2.344,-2.3573,-2.3295,-2.2726,-2.2786,-2.297,-2.3113,-2.2347,-2.2197,-2.253,-2.3243,-2.3642,-2.3822,-2.3808,-2.3822,-2.3733,-2.3009,-2.2767,-2.2767,-2.2754,-2.2714,-2.2678,-2.2661,-2.2624,-2.2569,-2.2535,-2.2535,-2.2518,-2.2501,-2.2501,-2.2501,-2.2501,-2.2501,-2.2501,-2.2501,-2.128,-2.0262,-2.0262,-2.0262,-2.053,-2.1297,-2.1429,0.0,-2.2371,-2.2487,-2.2374,-2.2075,-2.2017,-2.1764,-2.1197,-2.1246,-2.1247,-2.1103,-2.1151,-2.1215,-2.1245,-2.063,-1.9949,-1.9202,-1.8505,-1.8162,-1.8231,0.0,0.0,0.0,0.0,0.0,0.0,0.0,0.0,0.0,0.0,0.0,0.0,0.0,0.0,0.0,0.0,0.0,0.0,0.0,0.0,0.0,-1.846,-1.8776,-1.9411,-2.009,-2.063,-2.0929,-2.1234,-2.1242,-2.0814,-2.0701,-2.0648,-2.0648,-2.0342,-2.015,-2.015,-2.0113,-2.0096,-2.015,-2.0809,-2.1197,-2.1304,-2.2459,-2.3025,-2.3025,-2.3517,-2.3856,-2.4025,-2.4025,-2.4045,-2.4066,-2.4203,-2.3915,-2.3373,-2.3418,-2.3232,-2.2907,-2.2892,-2.308,-2.3449,-2.3649,-2.4,-2.4354,-2.415,-2.4332,-2.4629,-2.4382,-2.4342,-2.4339,-2.4178,-2.421,-2.4242,-2.4093,-2.4035,-2.3901,-2.3296,-2.3146,-2.3011,-2.2485,-2.2349,-2.2349,-2.2349,-2.2349,-2.2349,-2.2349,-2.2013,-2.1752,-2.1843,-2.1856,-2.1844,-2.1768,-2.2013,-2.2067,-2.1749,-2.1957,-2.2317,-2.2752,-2.242,-2.2215,-2.2325,-2.1923,-2.1432,-2.0908,-2.0893,-2.0703,-2.0225,-2.0081,-1.9725,-1.9133,-1.8979,-1.8908,0.0,0.0,0.0,0.0,0.0,0.0,0.0,0.0,0.0,0.0,0.0,0.0,0.0,0.0,0.0,0.0,0.0,0.0,0.0,0.0,0.0,0.0,-1.8831,-1.9348,-1.9712,-2.0211,-2.0693,-2.1102,-2.1007,-2.0812,-2.063,-2.0328,-2.0156,-2.0156,-2.001,-1.9919,-1.9919,-1.997,-2.0145,-2.0475,-2.1127,-2.1652,-2.2018,-2.3075,-2.3595,-2.359,-2.405,-2.4255,-2.4255,-2.4297,-2.4302,-2.4302,-2.438,-2.4209,-2.3898,-2.3942,-2.3748,-2.3401,0.0,0.0,0.0,0.0,-2.4564,-2.5062,-2.4744,-2.4869,-2.5086,-2.487,-2.4842,-2.4842,-2.4737,-2.4737,-2.4754,-2.4632,-2.4586,-2.4454,-2.3983,-2.363,-2.3291,-2.2868,-2.2516,-2.2296,-2.2296,-2.2296,-2.2296,-2.2296,-2.2296,0.0,-2.222,-2.222,-2.2089,-2.1705,-2.1838,-2.1838,-2.1401,-2.1553,-2.1823,-2.2113,-2.1827,-2.1647,-2.1729,-2.1429,0.0,0.0,0.0,-2.0036,-1.9372,-1.9656,0.0,0.0,0.0,0.0,0.0,0.0,0.0,0.0,-1.9492,-1.9605,0.0,0.0,0.0,0.0,0.0,0.0,0.0,0.0,0.0,0.0,0.0,0.0,0.0,0.0,0.0,0.0,-1.9298,-2.0045,-1.9799,-2.0002,-2.0335,-2.0699,-2.0412,-2.0191,-2.0139,-1.9871,-1.9708,-1.9708,-1.9762,-1.978,-1.978,-1.9902,0.0,0.0,0.0,-2.2267,-2.2874,-2.3639,-2.4003,-2.4003,-2.4124,-2.4202,-2.4202,-2.4255,-2.4281,-2.4302,-2.4302,-2.4302,-2.4302,-2.4302,-2.4302,-2.42,-2.333,-2.314,-2.3456,-2.4355,-2.5134,-2.5719,-2.5443,0.0,0.0,-2.5044,-2.4963,-2.4963,-2.4931,-2.4885,-2.4856,-2.484,-2.4793,-2.4728,-2.4643,-2.4135,-2.3613,-2.3427,-2.2902,-2.2398,-2.2313,-2.2296,-2.2296,-2.2296,-2.2268,-2.2137,-2.1812,-2.1766,-2.1676,-2.1308,-2.1276,-2.126,-2.1214,-2.1229,-2.1167,-2.0954,-2.0872,0.0,-2.0498,-2.0497,-2.0485,-2.0492,-1.9969,-1.939,-1.8791,-1.9358,-1.9405,-1.882,-1.8883,-1.9261,-1.9909,-1.9909,-2.0194,-2.0668,-1.9787,-1.9637,0.0,0.0,0.0,0.0,0.0,0.0,0.0,0.0,0.0,0.0,0.0,0.0,0.0,0.0,0.0,-1.9196,-1.9608,-1.9862,-2.0082,-2.0161,-2.0239,-2.0296,-2.0243,-2.0087,-1.9818,-1.9744,-1.9708,-1.9708,-1.9708,-1.9726,-1.9726,-1.9744,-1.984,-2.0029,-2.1224,-2.1942,-2.2176,-2.3375,-2.4003,-2.4003,-2.4024,0.0,-2.4202,-2.4208,-2.4234,-2.4302,-2.4302,-2.4302,-2.4302,-2.4302,-2.4302,-2.4307,-2.4253,-2.4284,-2.4359,-2.4544,-2.4968,-2.5503,-2.5593,-2.5869,-2.6218,-2.6402,-2.6516,-2.6515,-2.6351,-2.6368,0.0,-2.6335,-2.6285,-2.6149,-2.5541,-2.5287,-2.4881,-2.368,-2.3291,-2.3021,-2.2431,-2.2296,-2.2296,-2.2296,-2.2077,-2.1781,-2.1447,-2.1631,-2.1586,-2.099,-2.1119,-2.1087,-2.0561,-2.0745,-2.1099,-2.1638,-2.1407,-2.1301,-2.1566,-2.1301,-2.0908,-2.0369,-1.9739,-1.9338,-1.9278,-1.9435,-1.9499,-1.9421,-2.0067,-2.0447,-2.0621,-2.0621,-2.0368,-1.9925,-2.0321,-2.0543,0.0,0.0,0.0,0.0,0.0,0.0,0.0,0.0,0.0,0.0,0.0,-1.7361,-1.7559,0.0,-1.8824,-1.9326,-1.9714,-1.9957,-1.9952,-1.9945,-1.9945,-1.9945,-1.9945,-1.9874,-1.9726,-1.9708,-1.9708,-1.9708,-1.9708,-1.9708,-1.9708,-2.0019,-2.0367,-2.0734,-2.1729,-2.2425,-2.2802,-2.3465,-2.3797,-2.3797,-2.3861,-2.394,-2.4003,-2.4082,-2.4166,-2.4234,-2.4234,-2.4276,-2.4302,-2.4302,-2.4302,-2.4302,-2.4405,-2.4446,-2.4446,-2.4446,-2.4614,-2.4918,-2.5424,-2.576,-2.605,-2.6624,-2.6825,-2.6842,-2.6725,-2.6742,-2.6792,-2.6725,-2.6691,-2.6607,-2.6251,-2.5879,-2.5406,-2.4678,-2.4066,-2.3502,-2.296,-2.2975,-2.2989,-2.2623,-2.2718,-2.2569,-2.1697,-2.1698,-2.152,-2.0691,-2.0696,-2.0679,-2.0339,-2.0458,-2.0702,-2.1064,-2.092,-2.0868,-2.1078,-2.092,-2.052,-1.9842,-1.9795,-1.9658,-1.9367,-1.9693,-1.9758,-1.9465,-1.9841,-2.0061,-2.0061,-2.0061,-2.0029,-2.0012,-2.0388,-2.0406,0.0,0.0,0.0,0.0,0.0,0.0,0.0,0.0,-1.7266,-1.7149,-1.7556,-1.7915,-1.7957,-1.8856,-1.953,-1.9311,-1.9735,-2.0015,-1.9744,-1.9708,-1.9708,-1.9708,-1.9708,-1.9708,-1.9708,-1.9708,-1.9708,-1.9708,-1.9708,-1.9768,-1.9902,-2.0423,-2.1002,-2.168,-2.2358,-2.2942,-2.3415,-2.3535,-2.3595,-2.3595,-2.3717,-2.376,-2.3797,-2.3903,-2.4046,-2.4202,-2.4208,-2.4234,-2.4302,-2.4302,-2.4302,-2.4302,-2.4302,-2.4302,-2.4302,-2.4302,-2.4302,-2.439,-2.5121,-2.5427,-2.5615,-2.6367,-2.6641,-2.6691,-2.6691,-2.6691,-2.6691,-2.6691,-2.6691,-2.6691,-2.6691,-2.6251,-2.5795,-2.5626,-2.4845,-2.4016,-2.369,-2.3758,-2.3719,-2.3125,-2.344,-2.3422,-2.2209,-2.1939,-2.1516,-2.0462,-2.0304,-2.0304,-2.0304,-2.0304,-2.0304,-2.0304,-2.0304,-2.0304,-2.0304,-2.0304,-2.0073,-1.9518,-1.9996,-2.0058,-1.9518,-2.0011,-2.0058,-1.9502,-1.9487,-1.9487,-1.9487,-1.9487,-1.9842,-2.0487,-2.0487,-2.0246,-1.8899,-1.8071,-1.7888,-1.9068,-1.8485,-1.7856,0.0,0.0,-1.8208,-1.7713,-1.8356,-1.9076,-1.9248,-1.9278,-1.9391,-1.983,-1.9823,-1.9729,-1.9708,-1.9708,-1.9708,-1.9708,-1.9708,-1.9708,-1.9708,-1.9708,-1.9708,-1.9708,-1.9708,-1.9944,-2.0572,-2.0658,-2.1002,-2.168,-2.2358,-2.2733,-2.2808,-2.3325,-2.3595,-2.3595,-2.3616,-2.3674,-2.3797,-2.3818,-2.3961,-2.4187,-2.4255,-2.4281,-2.4302,-2.4302,-2.4302,-2.4302,-2.4302,-2.4302,-2.4302,-2.4302,-2.4302,-2.4364,-2.4803,-2.5198,-2.5577,-2.6016,-2.6419,-2.6691,-2.6691,-2.6691,-2.6691,-2.6691,-2.6691,-2.6691,-2.6691,-2.664,-2.6404,-2.5761,-2.523,-2.478,-2.4447,-2.4125,-2.3885,-2.3786,-2.3587,-2.3295,-2.2772,-2.2443,-2.1803,-2.0505,-2.0304,-2.0304,-2.0304,-2.0304,-2.0304,-2.0304,-2.0304,-2.0304,-2.0304,-2.0304,-2.0273,-2.0196,-2.0273,-2.0273,-2.0196,-2.0273,-2.0273,-2.0196,-2.0196,-2.0196,-2.0196,-2.0196,-2.0518,-2.118,-2.118,-2.1168,-2.0058,-1.9263,-1.8754,0.0,-1.8811,-1.8728,-1.8729,-1.8797,-1.8784,-1.8563,-1.8979,-1.9341,-1.9227,-1.9463,-1.9674,0.0,-1.9578,-1.956,-1.9632,-1.9632,-1.965,-1.9708,-1.9708,-1.9708,-1.9708,-1.9708,-1.9708,-1.9708,-2.0064,-2.0408,-2.0688,-2.144,-2.1999,-2.2283,-2.2877,-2.3206,-2.3206,-2.3475,-2.3595,-2.3595,-2.3595,-2.3616,-2.3674,-2.3674,-2.3839,-2.4088,-2.4234,-2.4302,-2.4302,-2.4302,-2.4302,-2.4302,-2.4302,-2.4302,-2.4302,-2.4302,-2.4302,-2.4364,-2.4759,-2.516,-2.5577,-2.5962,-2.6367,-2.6691,-2.6691,-2.6691,-2.6691,-2.6691,-2.6691,-2.6691,-2.6691,-2.6691,-2.6556,-2.6016,-2.5551,-2.5159,-2.4846,-2.4724,-2.4553,-2.4252,-2.4389,-2.4259,-2.3261,-2.2968,-2.2548,-2.1612,-2.1134,-2.0872,-2.0872,-2.0551,-2.0304,-2.0304,-2.0304,-2.0304,-2.0304,-2.0304,-2.0304,-2.0304,-2.0304,-2.0304,-2.0304,-2.0304,-2.0304,-2.0304,-2.0304,-2.0304,-2.0304,-2.0304,-2.0641,-2.1304,-2.1304,-2.172,-2.029,-1.9684,-1.9181,-1.8808,-1.9121,-1.9435,-1.8995,-1.92,-1.9477,-1.9404,-1.9668,-1.9829,-1.955,-1.9831,-2.0008,-1.9636,-1.9632,-1.965,-1.965,-1.9702,-1.9702,-1.9687,-1.9672,-1.9672,-1.9672,-1.969,-1.9708,-1.9708,-2.0318,-2.0778,-2.0976,-2.2054,-2.2778,-2.2942,-2.337,-2.3595,-2.3595,-2.3595,-2.3595,-2.3595,-2.3595,-2.3595,-2.3595,-2.3674,-2.3818,-2.4003,-2.4213,-2.4302,-2.4302,-2.4302,-2.4302,-2.4302,-2.4302,-2.4302,-2.4302,-2.4302,-2.4302,-2.4343,-2.4619,-2.5001,-2.5389,-2.567,-2.6034,-2.6401,-2.6505,-2.6522,-2.6556,-2.6674,-2.6691,-2.6691,-2.6691,-2.6624,-2.6453,-2.6157,-2.5649,-2.5201,-2.5072,-2.5035,-2.4916,-2.454,-2.4843,-2.4823,-2.3752,-2.3554,-2.3389,-2.2917,-2.2289,-2.1781,-2.1596,-2.098,-2.0505,-2.0335,-2.0304,-2.0304,-2.0304,-2.0304,-2.0304,-2.0304,-2.0304,-2.0304,-2.0304,-2.0304,-2.0304,-2.0304,-2.0304,-2.0304,-2.0304,-2.0489,-2.0919,-2.1581,-2.1766,-2.2455,-1.877,-1.8508,-1.8604,-1.9282,-1.9435,-1.9533,-2.0028,-2.0311,-2.0401,-2.0208,-2.0588,-2.091,-2.0779,-2.0562,-2.0325,-2.01,-2.0185,-2.015,-1.9839,-1.9904,-1.9899,-1.9629,-1.9593,-1.9593,0.0,-1.9669,-1.9708,-1.9708,-2.0318,-2.0972,-2.1635,-2.2328,-2.2972,-2.355,-2.3595,-2.3595,-2.3595,-2.3595,-2.3595,-2.3595,-2.3595,-2.3595,-2.3595,-2.3861,-2.3982,-2.4003,-2.4213,-2.4302,-2.4302,-2.4302,-2.4302,-2.4302,-2.4302,-2.4302,-2.4302,-2.4302,-2.4302,-2.4302,-2.4302,-2.4594,-2.4922,-2.4942,-2.5198,-2.5615,-2.5998,-2.6122,-2.621,-2.659,-2.6691,-2.6691,-2.6691,-2.6402,-2.6104,-2.6015,-2.5387,-2.4899,-2.5147,-2.4891,-2.4608,-2.4592,-2.4608,-2.4538,-2.4219,-2.4156,-2.4198,-2.4235,-2.3671,-2.2994,-2.2351,-2.1689,-2.1011,-2.0381,-2.0304,-2.0304,-2.0304,-2.0304,-2.0304,-2.0304,-2.0304,-2.0304,-2.0304,-2.0304,-2.0304,-2.0304,-2.0304,-2.0304,-2.0304,-2.0949,-2.1612,-2.2289,-2.2932,-2.3609,-2.0435,0.0,-1.9285,-1.9939,-2.0103,-2.0168,-2.0297,-2.0718,-2.1074,-2.1013,-2.1068,-2.1199,-2.1362,-2.0892,-2.0531,-2.0737,-2.0197,-1.9782,-1.9788,-1.9639,-1.9523,-1.9468,-1.9556,0.0,0.0,0.0,-1.9632,-1.9632,-2.0296,-2.0991,-2.1665,-2.2343,-2.2987,-2.358,-2.3595,-2.3595,-2.3595,-2.3595,-2.3595,-2.3595,-2.3595,-2.3595,-2.3595,-2.3797,-2.3903,-2.4003,-2.4166,-2.4255,-2.4302,-2.4302,-2.4302,-2.4302,-2.4302,-2.4302,-2.4302,-2.4302,-2.4302,-2.4302,-2.4302,-2.4558,-2.4902,-2.4902,-2.516,-2.5521,-2.567,-2.5707,-2.5726,-2.5872,-2.5908,-2.5908,-2.5908,-2.5762,-2.5556,-2.5272,-2.4863,-2.4648,-2.5102,-2.4779,-2.4533,-2.4922,-2.4704,-2.4374,-2.4109,-2.4082,-2.4103,-2.4229,-2.3707,-2.3055,-2.2397,-2.2105,-2.172,-2.1042,-2.0949,-2.078,-2.035,-2.0304,-2.0304,-2.0304,-2.0304,-2.0304,-2.0304,-2.0304,-2.0304,-2.0304,-2.0304,-2.0518,-2.0949,-2.118,-2.1874,-2.2963,-2.3194,-2.3656,-2.0708,-2.0355,-1.9904,-2.0292,-2.0585,-2.0779,-2.0766,-2.1077,-2.1371,-2.1402,-2.1214,-2.1117,-2.1345,-2.0808,-2.0464,-2.0828,-2.0289,-1.9821,-1.9871,-1.9711,-1.9527,-1.9376,-1.9446,-1.9465,0.0,0.0,0.0,-1.9593,-2.0501,-2.1261,-2.168,-2.2553,-2.3212,-2.3595,-2.3595,-2.3595,-2.3595,-2.3595,-2.3595,-2.3595,-2.3595,-2.3595,-2.3595,-2.3739,-2.3861,-2.4003,-2.4145,-2.425,-2.4302,-2.4302,-2.4302,-2.4302,-2.4302,-2.4302,-2.4302,-2.4302,-2.4302,-2.4302,-2.4302,-2.4472,-2.4679,-2.4679,-2.4863,-2.5102,-2.5237,-2.5294,-2.5313,-2.5465,-2.5503,-2.5503,-2.5465,-2.5329,-2.5114,-2.4724,-2.442,-2.4277,-2.4547,-2.4333,-2.4147,-2.4563,-2.4359,-2.4063,-2.3946,-2.3982,-2.4046,-2.4166,-2.3882,-2.3385,-2.2732,-2.2655,-2.2413,-2.1735,-2.1658,-2.1381,-2.0703,-2.0657,-2.0566,-2.032,-2.0304,-2.0304,-2.0304,-2.0304,-2.0304,-2.0304,-2.0304,-2.0643,-2.1304,-2.1535,-2.2228,-2.3302,-2.3548,-2.3887,-1.9717,-1.9976,-2.0456,-2.0456,-2.0885,-2.1309,-2.1371,-2.1356,-2.1324,-2.1371,-2.1087,-2.0827,0.0,0.0,-2.025,-2.046,-2.0441,-2.0302,-2.0023,-2.001,-1.9854,0.0,0.0,0.0,0.0,0.0,0.0,-1.9634,-2.0863,-2.162,-2.1695,-2.2847,-2.3535,-2.3595,-2.3595,-2.3595,-2.3595,-2.3595,-2.3595,-2.3595,-2.3595,-2.3595,-2.3595,-2.3739,-2.3861,-2.4003,-2.4124,-2.4229,-2.4297,-2.4302,-2.4302,-2.4297,-2.4302,-2.4281,-2.4297,-2.4297,-2.4302,-2.4297,-2.4302,-2.4302,-2.4302,-2.4302,-2.4302,-2.4385,-2.4759,-2.4863,-2.4942,-2.5332,-2.5446,-2.5408,-2.5349,-2.5036,-2.4679,-2.4425,-2.4069,-2.376,-2.3674,-2.3616,-2.3595,-2.3638,-2.3616,-2.3638,-2.373,-2.3888,-2.4046,-2.412,-2.4172,-2.3999,-2.3405,-2.3348,-2.3086,-2.2409,-2.2351,-2.2089,-2.1411,-2.135,-2.1057,-2.0397,-2.035,-2.035,-2.0304,-2.0304,-2.0304,-2.0304,-2.0335,-2.069,-2.135,-2.2028,-2.2686,-2.3363,-2.401,-2.4302,-2.0962,-2.1148,-2.1265,-2.1111,-2.1195,-2.1293,-2.1324,-2.1309,-2.1293,-2.1324,-2.1198,-2.1103,0.0,0.0,0.0,-2.064,-2.0515,0.0,-1.9855,-1.9527,0.0,-1.9157,0.0,-1.9265,-1.9157,-1.9302,0.0,-2.0163,-2.0195,-2.0651,-2.1635,-2.2009,-2.2622,-2.3565,-2.3595,-2.3595,-2.3595,-2.3595,-2.3595,-2.3595,-2.3595,-2.3595,-2.3595,-2.3653,-2.3717,-2.3861,-2.3982,-2.4124,-2.4229,-2.4276,-2.4276,-2.4229,-2.4276,-2.4213,-2.4073,-2.424,-2.4276,-2.4229,-2.4281,-2.4302,-2.4302,-2.4302,-2.4302,-2.4323,-2.4426,-2.4451,-2.4472,-2.4594,-2.4574,-2.4528,-2.4508,-2.4281,-2.4036,-2.3958,-2.3788,-2.3739,-2.4057,-2.3846,-2.3702,-2.4057,-2.3846,-2.3482,-2.3059,-2.3559,-2.3815,-2.3237,-2.3788,-2.4214,-2.4051,-2.4056,-2.3794,-2.3117,-2.304,-2.2763,-2.2105,-2.2058,-2.1766,-2.1088,-2.1042,-2.0811,-2.0335,-2.0304,-2.0304,-2.0304,-2.078,-2.1381,-2.2058,-2.2736,-2.3394,-2.4056,-2.4225,-2.4302,-2.1427,-2.1557,-2.1574,-2.1387,-2.134,-2.134,-2.134,-2.134,-2.134,-2.134,-2.1309,0.0,-2.0906,-2.1258,-2.1318,0.0,0.0,0.0,-2.0069,-1.9711,-1.949,0.0,-1.9545,0.0,-1.949,-1.9919,-2.0381,-2.0854,-2.064,-2.0983,-2.2069,-2.2383,-2.2862,-2.358,-2.3595,-2.3595,-2.3595,-2.3595,-2.3595,-2.3595,-2.3595,-2.3595,-2.3595,-2.3595,-2.3674,-2.3818,-2.394,-2.4082,-2.4223,-2.4276,-2.4255,-2.4187,-2.425,-2.4151,-2.4003,-2.413,-2.4151,-2.4124,-2.4151,-2.4172,-2.4193,-2.4261,-2.4276,-2.4255,-2.4297,-2.4302,-2.4302,-2.4302,-2.4234,-2.4202,-2.4124,-2.3961,-2.3797,-2.3739,-2.3653,-2.3659,-2.3931,-2.3782,-2.3681,-2.3931,-2.3767,-2.349,-2.3152,-2.3556,-2.3782,-2.3383,-2.3865,-2.4271,-2.4271,-2.4271,-2.4117,-2.3733,-2.3687,-2.3411,-2.272,-2.2713,-2.2459,-2.1781,-2.1735,-2.1565,-2.118,-2.118,-2.118,-2.118,-2.155,-2.2074,-2.2732,-2.3117,-2.364,-2.4302,-2.4302,-2.4302,-2.1511,-2.1608,-2.1719,-2.1481,-2.1417,-2.1417,-2.1417,-2.1417,-2.1417,-2.1417,0.0,-2.119,-2.0521,-2.1102,-2.1329,-2.0145,0.0,-2.0864,-2.0418,-2.015,-2.0008,-2.0008,-2.0008,-2.0025,-2.0025,-2.0757,-2.1332,-2.161,-2.1701,-2.2054,-2.274,-2.3233,-2.3563,-2.3681,-2.3638,-2.3616,-2.3681,-2.3638,-2.3595,-2.3595,-2.3595,-2.3595,-2.3595,-2.3595,-2.3674,-2.3782,-2.394,-2.4061,-2.4145,-2.4255,-2.4255,-2.4166,-2.4202,-2.4103,-2.3982,-2.3982,-2.3982,-2.3982,-2.3982,-2.3982,-2.4003,-2.4198,-2.4213,-2.4187,-2.4255,-2.4297,-2.4297,-2.4297,-2.4234,-2.4145,-2.4003,-2.3861,-2.3739,-2.3616,-2.3595,-2.3595,-2.3595,-2.3595,-2.3595,-2.3595,-2.3595,-2.3565,-2.3511,-2.3694,-2.3831,-2.3861,-2.4063,-2.4202,-2.4202,-2.4208,-2.4208,-2.4202,-2.4202,-2.3942,-2.3315,-2.3365,-2.3128,-2.2455,-2.2424,-2.2397,-2.2305,-2.2305,-2.2305,-2.2305,-2.2397,-2.2717,-2.3302,-2.3394,-2.3733,-2.4302,-2.4302,-2.4302,-2.1842,-2.2108,-2.2421,-2.1752,-2.1557,-2.1557,-2.1557,-2.1557,0.0,0.0,-2.148,-2.119,-2.0521,-2.1102,-2.1262,-1.9957,-2.0452,-2.0798,-2.0227,-2.01,-2.008,0.0,-2.0135,-2.0172,-2.0172,-2.0839,0.0,0.0,-2.2701,-2.3053,-2.3196,-2.2984,-2.326,-2.4162,-2.3803,-2.3782,-2.4177,-2.3803,-2.3595,-2.3595,-2.3595,-2.3595,-2.3595,-2.3595,-2.3595,-2.3653,-2.3882,-2.3961,-2.3882,-2.4177,-2.4213,-2.4046,-2.4145,-2.4046,-2.3861,-2.3961,-2.394,-2.3861,-2.3961,-2.394,-2.3861,-2.3988,-2.4046,-2.4061,-2.4187,-2.4208,-2.4208,-2.4208,-2.4124,-2.4003,-2.3861,-2.3739,-2.3616,-2.3595,-2.3595,-2.3595,-2.3595,-2.3595,-2.3595,-2.3595,-2.3595,-2.3452,-2.3032,-2.3498,-2.38,-2.3238,-2.3773,-2.4202,-2.4202,-2.4234,-2.4255,-2.4223,-2.4202,-2.4162,-2.4092,-2.4066,-2.3774,-2.3163,-2.3117,-2.2871,-2.2317,-2.2305,-2.2305,-2.2305,-2.284,-2.3179,-2.3302,-2.3871,-2.4194,-2.4302,-2.4302,-2.4302,-2.1807,-2.1987,-2.2184,-2.1763,-2.1369,-2.1074,-2.1074,0.0,0.0,0.0,-2.1324,-2.1343,-2.0637,-2.1359,0.0,-2.0239,-2.0771,-2.1188,-2.0687,-2.0477,0.0,-2.061,-2.0959,-2.1181,0.0,-2.2175,-2.2988,-2.3465,-2.3569,-2.376,-2.4064,-2.3935,-2.409,-2.4599,-2.4379,-2.4379,-2.4599,-2.4379,-2.4277,-2.4277,-2.4063,-2.3973,-2.3952,-2.3702,-2.3595,-2.3595,-2.3882,-2.3961,-2.3925,-2.4177,-2.4213,-2.4103,-2.4166,-2.4024,-2.3818,-2.3861,-2.3818,-2.3717,-2.376,-2.3739,-2.3717,-2.376,-2.3839,-2.394,-2.4145,-2.4145,-2.4103,-2.4166,-2.4046,-2.3882,-2.3818,-2.3696,-2.3595,-2.3595,-2.3595,-2.3595,-2.3595,-2.3595,-2.3595,-2.3595,-2.3595,-2.3548,-2.3339,-2.3707,-2.3897,-2.3578,-2.3952,-2.4193,-2.4103,-2.4213,-2.4276,-2.4223,-2.4202,-2.4208,-2.425,-2.4234,-2.4117,-2.384,-2.3825,-2.3686,-2.3348,-2.3332,-2.3332,-2.3332,-2.3656,-2.3825,-2.3825,-2.4148,-2.4302,-2.4302,-2.4302,-2.4302,-2.182,-2.1883,-2.1996,-2.1772,-2.1294,-2.0831,-2.0666,-2.0749,0.0,0.0,-2.1196,-2.1479,-2.0737,0.0,-2.181,0.0,-2.1183,-2.1669,-2.1183,-2.1036,-2.1002,0.0,-2.1744,0.0,-2.2161,-2.3446,0.0,-2.4482,-2.4369,-2.4379,-2.4544,-2.4619,-2.4744,-2.5005,-2.4942,-2.4942,-2.504,-2.4942,-2.4902,-2.4902,-2.4594,-2.4426,-2.4426,-2.4042,-2.3894,-2.3894,-2.403,-2.4088,-2.4067,-2.4193,-2.4193,-2.4103,-2.4103,-2.3982,-2.3797,-2.376,-2.3696,-2.3595,-2.3595,-2.3595,-2.3595,-2.3595,-2.3674,-2.3797,-2.4024,-2.4024,-2.3982,-2.4082,-2.3961,-2.3797,-2.376,-2.3674,-2.3595,-2.3595,-2.3595,-2.3595,-2.3595,-2.3595,-2.3595,-2.3595,-2.3595,-2.3653,-2.3818,-2.394,-2.4003,-2.4067,-2.4193,-2.4234,-2.4088,-2.4193,-2.4255,-2.4229,-2.4208,-2.4223,-2.4208,-2.4271,-2.4281,-2.4302,-2.4302,-2.4302,-2.4302,-2.4302,-2.4302,-2.4302,-2.4302,-2.4302,-2.4302,-2.4302,-2.4302,-2.4302,-2.4302,-2.4302,-2.2162,-2.2278,-2.2642,-2.1963,-2.1748,-2.1516,-2.0837,0.0,0.0,-2.082,-2.1226,-2.1479,-2.0737,0.0,0.0,0.0,0.0,-2.2069,0.0,-2.1745,-2.1906,-2.1263,0.0,0.0,-2.2377,-2.3655,-2.4482,-2.45,-2.5137,-2.5046,-2.3849,-2.3798,-2.4312,-2.5411,-2.5082,-2.5079,-2.5446,-2.5079,-2.4902,-2.4902,-2.4863,-2.4843,-2.4843,-2.4803,-2.4784,-2.4764,-2.4477,-2.4328,-2.4261,-2.4109,-2.3946,-2.3839,-2.3839,-2.3818,-2.3797,-2.3674,-2.3595,-2.3595,-2.3595,-2.3595,-2.3595,-2.3595,-2.3595,-2.3653,-2.3797,-2.3839,-2.3818,-2.3839,-2.3818,-2.376,-2.3653,-2.3595,-2.3595,-2.3595,-2.3595,-2.3595,-2.3595,-2.3595,-2.3595,-2.3595,-2.3595,-2.3674,-2.394,-2.3982,-2.4067,-2.424,-2.425,-2.4229,-2.4276,-2.425,-2.4229,-2.4281,-2.425,-2.4229,-2.4297,-2.425,-2.425,-2.4297,-2.4302,-2.4302,-2.4302,-2.4302,-2.4302,-2.4302,-2.4302,-2.4302,-2.4302,-2.4302,-2.4302,-2.4302,-2.4302,-2.4302,-2.1961,-2.1996,-2.2177,-2.1864,-2.1481,-2.0936,-2.0207,0.0,-2.0934,-2.0191,-2.0957,-2.1668,-2.1387,-2.1511,-2.1567,0.0,0.0,0.0,-2.1373,0.0,0.0,-2.1294,-2.2329,0.0,0.0,0.0,-2.4806,-2.3966,-2.4196,-2.4159,-2.3672,-2.4569,-2.5299,-2.5795,-2.5719,-2.5754,-2.5919,-2.5754,-2.568,-2.568,-2.5387,-2.5256,-2.5256,-2.502,-2.4902,-2.4902,-2.4839,-2.4695,-2.4508,-2.4739,-2.4533,-2.4067,-2.4307,-2.4162,-2.3797,-2.3739,-2.3674,-2.3595,-2.3595,-2.3595,-2.3595,-2.3595,-2.3595,-2.3616,-2.376,-2.3739,-2.3696,-2.3782,-2.3739,-2.3674,-2.3595,-2.3595,-2.3595,-2.3595,-2.3595,-2.3595,-2.3595,-2.3595,-2.3595,-2.3595,-2.3674,-2.3782,-2.3982,-2.4082,-2.4145,-2.4229,-2.4234,-2.4271,-2.425,-2.4234,-2.4276,-2.4297,-2.4645,-2.4875,-2.4896,-2.5259,-2.5284,-2.4927,-2.4896,-2.4712,-2.4317,-2.4302,-2.4302,-2.4302,-2.4302,-2.4302,-2.4302,-2.4302,-2.4302,-2.4302,-2.4302,-2.4302,-2.2157,-2.1993,-2.1812,-2.1812,-2.1414,-2.0771,0.0,-2.034,-2.0752,-1.9796,-2.0771,-2.1729,-2.1514,-2.1619,-2.1642,0.0,0.0,-2.1743,-2.1696,-2.1843,0.0,0.0,0.0,-2.3577,-2.3771,-2.4887,-2.5017,-2.3609,-2.3885,-2.3951,-2.3582,-2.5095,-2.599,-2.5992,-2.5917,-2.597,-2.6202,-2.597,-2.597,-2.6202,-2.5848,-2.5703,-2.5703,-2.5422,-2.5269,-2.5269,-2.523,-2.5075,-2.4895,-2.5153,-2.4918,-2.4441,-2.4715,-2.4538,-2.4105,-2.3994,-2.3888,-2.3782,-2.3638,-2.3595,-2.3595,-2.3595,-2.3595,-2.3616,-2.3717,-2.3674,-2.3616,-2.3717,-2.3674,-2.3595,-2.3595,-2.3595,-2.3595,-2.3595,-2.3595,-2.3595,-2.3595,-2.3595,-2.3595,-2.3595,-2.3717,-2.3839,-2.3982,-2.4103,-2.4223,-2.4229,-2.4276,-2.4281,-2.425,-2.4276,-2.4302,-2.4302,-2.4896,-2.5296,-2.5296,-2.5727,-2.5804,-2.5327,-2.5296,-2.5081,-2.4625,-2.461,-2.4702,-2.4918,-2.4718,-2.461,-2.461,-2.461,-2.461,-2.461,-2.4825,-2.5025,-2.2998,-2.242,-2.1812,-2.1812,-2.1781,-2.14,0.0,-2.0737,-2.1367,-1.9912,-2.0771,-2.158,-2.0851,-2.1315,-2.1521,-2.0652,0.0,0.0,-2.241,-2.3026,0.0,0.0,0.0,-2.3755,-2.4436,-2.5163,-2.5017,-2.3609,-2.479,-2.4968,-2.3577,-2.5022,-2.5917,-2.5992,-2.5405,-2.5457,-2.6185,-2.5491,-2.5491,-2.6202,-2.6202,-2.6185,-2.6185,-2.6185,-2.6202,-2.615,-2.5703,-2.5503,-2.5465,-2.5079,-2.4902,-2.4883,-2.4902,-2.4883,-2.4843,-2.4431,-2.4281,-2.4219,-2.376,-2.3595,-2.3595,-2.3595,-2.3595,-2.3595,-2.3595,-2.3595,-2.3595,-2.3595,-2.3595,-2.3595,-2.3595,-2.3595,-2.3595,-2.3595,-2.3595,-2.3595,-2.3595,-2.3595,-2.3595,-2.3595,-2.3717,-2.3839,-2.3982,-2.4103,-2.4229,-2.4297,-2.4302,-2.4302,-2.4302,-2.4302,-2.4302,-2.4302,-2.4896,-2.5296,-2.5296,-2.5312,-2.5312,-2.5296,-2.5296,-2.5296,-2.5281,-2.5281,-2.5641,-2.6371,-2.5672,-2.5281,-2.5281,-2.5281,-2.5281,-2.5296,-2.6041,-2.6718,-2.2412,-2.2433,-2.2486,-2.1928,-2.1812,-2.1547,-2.0572,-2.1085,-2.1531,-2.0539,-2.1133,-2.1729,-2.1497,-2.1647,-2.188,-2.2101,-2.2405,0.0,0.0,0.0,0.0,-2.3544,-2.3901,-2.445,0.0,-2.5017,-2.4661,-2.4225,-2.4614,-2.4644,-2.4209,-2.5266,-2.5899,-2.5917,-2.5883,-2.5954,-2.6202,-2.597,-2.597,-2.6202,-2.6202,-2.6202,-2.6202,-2.6202,-2.6202,-2.6185,-2.6043,-2.5846,-2.5647,-2.5795,-2.5535,-2.5056,-2.5346,-2.5214,-2.4883,-2.4759,-2.4533,-2.4281,-2.4135,-2.3867,-2.3595,-2.3595,-2.3595,-2.3595,-2.3595,-2.3595,-2.3595,-2.3595,-2.3595,-2.3595,-2.3595,-2.3595,-2.3595,-2.3595,-2.3595,-2.3595,-2.3595,-2.3595,-2.3616,-2.3717,-2.3839,-2.3982,-2.4103,-2.4193,-2.4276,-2.4297,-2.4302,-2.4302,-2.4302,-2.4697,-2.4973,-2.4973,-2.5626,-2.5857,-2.5327,-2.5764,-2.5841,-2.5327,-2.578,-2.5826,-2.5312,-2.578,-2.6149,-2.6402,-2.6164,-2.6041,-2.6041,-2.6041,-2.6041,-2.6057,-2.6287,-2.6749,0.0,-2.2495,-2.2467,-2.1927,-2.1812,-2.1613,-2.0868,-2.1265,-2.1597,-2.0851,-2.1282,-2.1812,-2.1812,-2.1812,-2.1947,-2.238,-2.2322,0.0,0.0,0.0,0.0,-2.4304,0.0,0.0,0.0,-2.5017,-2.479,-2.4515,-2.4758,-2.479,-2.4517,-2.5397,-2.5897,-2.5897,-2.5832,-2.5921,-2.6202,-2.5921,-2.5921,-2.6202,-2.6202,-2.6202,-2.6202,-2.6202,-2.6202,-2.6202,-2.6202,-2.6079,0.0,-2.6152,-2.5972,-2.553,-2.5791,-2.5682,-2.5365,-2.5195,-2.4863,-2.4533,-2.4533,-2.4245,-2.3888,-2.4027,-2.4,-2.3867,-2.3867,-2.3867,-2.3867,-2.3867,-2.3867,-2.3809,-2.3653,-2.3595,-2.3595,-2.3595,-2.3595,-2.3595,-2.3595,-2.3595,-2.3653,-2.376,-2.3903,-2.4024,-2.4166,-2.4271,-2.4302,-2.4302,-2.4533,-2.4687,-2.4687,-2.5287,-2.5718,-2.5718,-2.6103,-2.618,-2.5711,-2.6349,-2.658,-2.6134,-2.6518,-2.6565,-2.6118,-2.6534,-2.6888,-2.7149,-2.6926,-2.6765,-2.6765,-2.6765,-2.6903,-2.7149,-2.7149,-2.738,0.0,-2.2571,-2.1965,-2.1842,-2.1796,-2.163,-2.0934,-2.1315,0.0,-2.0917,-2.1332,-2.1812,-2.1812,-2.1812,-2.1799,-2.179,-2.1765,0.0,0.0,-2.4197,0.0,0.0,-2.5629,0.0,-2.4628,-2.5211,-2.5324,-2.463,-2.5211,-2.5308,-2.4614,-2.5395,-2.5881,-2.5897,-2.5419,-2.5507,-2.6185,-2.5507,-2.5507,-2.6202,-2.6202,-2.6202,-2.6202,-2.6202,-2.6202,-2.6202,-2.6202,-2.6202,-2.6202,-2.6202,-2.6202,-2.6202,-2.6202,-2.6202,-2.615,-2.5703,-2.5294,-2.4942,-2.4942,-2.4679,-2.439,-2.4779,-2.4619,-2.4302,-2.4323,-2.4302,-2.4261,-2.4261,-2.4261,-2.4156,-2.3724,-2.3595,-2.3595,-2.3595,-2.3595,-2.3595,-2.3595,-2.3595,-2.3653,-2.376,-2.3903,-2.4024,-2.4166,-2.4271,-2.4302,-2.4302,-2.4866,-2.5296,-2.5296,-2.598,-2.6457,-2.6457,-2.6472,-2.645,-2.645,-2.6995,-2.7319,-2.7319,-2.7365,-2.7396,-2.7396,-2.7442,-2.7765,-2.8396,-2.7796,-2.7473,-2.7473,-2.7473,-2.7796,-2.8411,-2.8411,-2.8411,-2.2466,0.0,-2.2739,-2.2049,-2.184,-2.1763,0.0,-2.168,-2.1763,-2.158,-2.168,-2.1812,-2.1812,-2.1812,-2.1965,-2.2451,0.0,-2.3489,-2.4335,-2.4958,0.0,-2.6361,-2.5937,-2.5532,-2.5373,-2.55,-2.5532,-2.5338,-2.55,-2.5516,-2.5338,-2.5598,-2.5791,-2.5897,-2.5826,-2.5916,-2.6202,-2.602,-2.602,-2.6202,-2.6202,-2.6202,-2.6202,-2.6202,-2.6202,-2.6202,-2.6202,-2.6202,-2.6202,-2.6202,-2.6202,-2.6202,-2.6202,-2.6202,-2.6202,-2.6079,-2.5756,-2.5351,-2.5351,-2.5098,-2.4764,-2.4863,-2.4619,-2.4364,-2.4659,-2.4277,-2.3782,-2.3903,-2.3846,-2.376,-2.376,-2.3674,-2.3595,-2.3595,-2.3595,-2.3595,-2.3595,-2.3595,-2.3653,-2.376,-2.3903,-2.4024,-2.4166,-2.4271,-2.4302,-2.4302,-2.4866,-2.5296,-2.5296,-2.6395,-2.7149,-2.7149,-2.7611,-2.7919,-2.7919,-2.7134,-2.6649,-2.6649,-2.7119,-2.7396,-2.7396,-2.7888,-2.8242,-2.8411,-2.8258,-2.8165,-2.8165,-2.8165,-2.8258,-2.8411,-2.8411,-2.8411,-2.2228,-2.2408,-2.2534,-2.2028,-2.1855,-2.1812,-2.1812,0.0,0.0,0.0,0.0,0.0,-2.1812,-2.1812,-2.2031,0.0,-2.3014,0.0,0.0,0.0,-2.5875,-2.6604,-2.6053,-2.5597,-2.5597,-2.5597,-2.5597,-2.5597,-2.5597,-2.5597,-2.5597,-2.5661,-2.5772,-2.5897,-2.5972,-2.6063,-2.6202,-2.6202,-2.6202,-2.6202,-2.6202,-2.6202,-2.6202,-2.6202,-2.6202,-2.6202,-2.6202,-2.6202,-2.6202,-2.6202,-2.6202,-2.6202,-2.6202,-2.6202,-2.6202,-2.6202,-2.5901,-2.5521,-2.5756,-2.5535,-2.5195,-2.5195,-2.4779,-2.4343,-2.4574,-2.4147,-2.3659,-2.3952,-2.3988,-2.3888,-2.3739,-2.3653,-2.3595,-2.3595,-2.3595,-2.3595,-2.3595,-2.3653,-2.3739,-2.3861,-2.4246,-2.4582,-2.4689,-2.5013,-2.5256,-2.5256,-2.5841,-2.6272,-2.6272,-2.7211,-2.7857,-2.7857,-2.8181,-2.8411,-2.8411,-2.7734,-2.7319,-2.7319,-2.7657,-2.7857,-2.7857,-2.8211,-2.8411,-2.8411,-2.8411,-2.8411,-2.8411,-2.8411,-2.8411,-2.8411,-2.8411,-2.8411,-2.2363,-2.2274,-2.2118,-2.1945,-2.1855,-2.1812,-2.1812,0.0,0.0,0.0,0.0,0.0,0.0,-2.188,0.0,0.0,0.0,0.0,-2.5341,-2.5597,-2.5824,-2.6458,-2.5988,-2.5597,-2.5597,-2.5597,-2.5597,-2.5597,-2.5597,-2.5597,-2.5597,-2.5659,-2.5754,-2.5897,-2.5954,-2.6045,-2.6202,-2.6202,-2.6202,-2.6202,-2.6202,-2.6202,-2.6202,-2.6202,-2.6202,-2.6202,-2.6202,-2.6202,-2.6202,-2.6202,-2.6202,-2.6202,-2.6202,-2.6202,-2.6202,-2.6202,-2.5954,-2.5649,-2.6061,-2.5901,-2.5503,-2.5503,-2.4962,-2.4302,-2.4385,-2.4078,-2.3803,-2.4198,-2.424,-2.4114,-2.3739,-2.3616,-2.3595,-2.3595,-2.3595,-2.3595,-2.3595,-2.3793,-2.399,-2.4113,-2.4789,-2.5372,-2.5428,-2.598,-2.6402,-2.6402,-2.6965,-2.7396,-2.7396,-2.7996,-2.8411,-2.8411,-2.8411,-2.8411,-2.8411,-2.8411,-2.8411,-2.8411,-2.8411,-2.8411,-2.8411,-2.8411,-2.8411,-2.8411,-2.8411,-2.8411,-2.8411,-2.8411,-2.8411,-2.8411,-2.8372,-2.8372,-2.2984,-2.3029,-2.277,-2.2078,-2.1855,-2.1812,-2.1812,0.0,0.0,0.0,0.0,0.0,0.0,-2.2265,-2.265,0.0,0.0,-2.4535,0.0,0.0,-2.5646,-2.5759,-2.5662,-2.5597,-2.5597,-2.5597,-2.5597,-2.5597,-2.5597,-2.5597,-2.5597,-2.5616,-2.5712,-2.5881,-2.5899,-2.6007,-2.6202,-2.6202,-2.6202,-2.6202,-2.6202,-2.6202,-2.6202,-2.6202,-2.6202,-2.6202,-2.6202,-2.6202,-2.6202,-2.6202,-2.6202,-2.6202,-2.6202,-2.6202,-2.6202,-2.6202,-2.615,-2.6097,-2.6184,-2.5901,-2.5503,-2.5503,-2.4962,-2.4364,-2.4699,-2.4517,-2.4198,-2.4281,-2.4015,-2.3717,-2.376,-2.3696,-2.3595,-2.3595,-2.3595,-2.3595,-2.3595,-2.4153,-2.4648,-2.467,-2.5408,-2.6053,-2.6061,-2.6258,-2.6402,-2.6402,-2.6965,-2.7396,-2.7396,-2.7996,-2.8411,-2.8411,-2.8411,-2.8411,-2.8411,-2.8411,-2.8411,-2.8411,-2.8411,-2.8411,-2.8411,-2.8411,-2.8411,-2.8411,-2.8411,-2.8411,-2.8411,-2.8411,-2.8411,-2.8411,-2.8275,-2.8299,-2.2632,-2.261,-2.2419,-2.1995,-2.2154,-2.2293,-2.1895,-2.1812,0.0,0.0,0.0,0.0,0.0,0.0,-2.3424,-2.3634,0.0,-2.5211,-2.5549,-2.5597,-2.5597,-2.5597,-2.5597,-2.5597,-2.5597,-2.5597,-2.5597,-2.5597,-2.5597,-2.5597,-2.5597,-2.5597,-2.5656,-2.5791,-2.5862,-2.597,-2.6097,-2.6168,-2.6202,-2.6202,-2.6202,-2.6202,-2.6202,-2.6202,-2.6202,-2.6202,-2.6202,-2.6202,-2.6202,-2.6202,-2.6202,-2.6202,-2.6202,-2.6202,-2.6202,-2.6202,-2.6202,-2.6202,-2.6202,-2.5901,-2.5503,-2.5503,-2.5102,-2.4659,-2.4843,-2.4619,-2.4343,-2.4574,-2.4307,-2.3931,-2.3739,-2.3653,-2.3659,-2.3909,-2.4068,-2.4214,-2.4461,-2.4941,-2.5357,-2.5432,-2.6153,-2.6765,-2.6826,-2.7203,-2.7473,-2.7473,-2.7734,-2.7934,-2.7934,-2.8211,-2.8411,-2.8411,-2.8411,-2.8411,-2.8411,-2.8411,-2.8411,-2.8411,-2.8411,-2.8411,-2.8411,-2.8411,-2.8411,-2.8411,-2.8411,-2.8411,-2.8411,-2.8411,-2.8411,-2.8411,-2.8348,-2.8348,-2.243,-2.2358,-2.2235,-2.2178,0.0,-2.2477,-2.1928,-2.1812,0.0,0.0,0.0,0.0,0.0,-2.3869,0.0,-2.4735,-2.5262,-2.5597,-2.5597,-2.5597,-2.5597,-2.5597,-2.5597,-2.5597,-2.5597,-2.5597,-2.5597,-2.5597,-2.5597,-2.5597,-2.5597,-2.5597,-2.5637,-2.5701,-2.5844,-2.5917,-2.5992,-2.6115,-2.6202,-2.6202,-2.6202,-2.6202,-2.6202,-2.6202,-2.6202,-2.6202,-2.6202,-2.6202,-2.6202,-2.6202,-2.6202,-2.6202,-2.6202,-2.6202,-2.6202,-2.6202,-2.6202,-2.6202,-2.6202,-2.5901,-2.5503,-2.5503,-2.5349,-2.5144,-2.5088,-2.4989,-2.495,-2.5278,-2.5135,-2.4766,-2.4292,-2.4164,-2.4274,-2.4691,-2.4898,-2.5077,-2.5307,-2.572,-2.6066,-2.6213,-2.6878,-2.7469,-2.7603,-2.8057,-2.8411,-2.8411,-2.8411,-2.8411,-2.8411,-2.8411,-2.8411,-2.8411,-2.8411,-2.8411,-2.8411,-2.8411,-2.8411,-2.8411,-2.8411,-2.8411,-2.8411,-2.8411,-2.8411,-2.8411,-2.8411,-2.8411,-2.8411,-2.8411,-2.8411,-2.8411,-2.8372,-2.8372,-2.3051,-2.3113,-2.2989,-2.2947,-2.2388,-2.1879,-2.1812,-2.1812,0.0,-2.1879,0.0,0.0,0.0,-2.3783,-2.4767,-2.5405,-2.5565,-2.5597,-2.5597,-2.5597,-2.5597,-2.5597,-2.5597,-2.5597,-2.5597,-2.5597,-2.5597,-2.5597,-2.5597,-2.5597,-2.5597,-2.5597,-2.5637,-2.5701,-2.5844,-2.5917,-2.5992,-2.6115,-2.6202,-2.6202,-2.6202,-2.6202,-2.6202,-2.6202,-2.6202,-2.6202,-2.6202,-2.6202,-2.6202,-2.6202,-2.6202,-2.6202,-2.6202,-2.6202,-2.6202,-2.6202,-2.6202,-2.6202,-2.6202,-2.5901,-2.5503,-2.5503,-2.5686,-2.5878,-2.5707,-2.61,-2.6636,-2.6722,-2.6681,-2.65,-2.5964,-2.5841,-2.5911,-2.618,-2.6248,-2.6144,-2.5679,-2.6182,-2.6768,-2.6896,-2.7579,-2.8174,-2.831,-2.8365,-2.8411,-2.8411,-2.8411,-2.8411,-2.8411,-2.8411,-2.8411,-2.8411,-2.8411,-2.8411,-2.8411,-2.8411,-2.8411,-2.8411,-2.8411,-2.8411,-2.8411,-2.8411,-2.8411,-2.8411,-2.8411,-2.8411,-2.8411,-2.8411,-2.8411,-2.8411,-2.8259,-2.8275,-2.2606,-2.2874,-2.2971,-2.2504,-2.2433,0.0,0.0,-2.2145,-2.2594,-2.2961,-2.3621,0.0,0.0,0.0,-2.5352,-2.5567,-2.5597,-2.5597,-2.5597,-2.5597,-2.5597,-2.5597,-2.5597,-2.5597,-2.5597,-2.5597,-2.5597,-2.5597,-2.5597,-2.5597,-2.5597,-2.5597,-2.5616,-2.5656,-2.5824,-2.5899,-2.5936,-2.6114,-2.6202,-2.6202,-2.6202,-2.6202,-2.6202,-2.6202,-2.6202,-2.6202,-2.6202,-2.6202,-2.6202,-2.6202,-2.6202,-2.6253,-2.67,-2.6884,-2.695,-2.7415,-2.7561,-2.7561,-2.7561,-2.7156,-2.6679,-2.7156,-2.7115,-2.6943,-2.733,-2.7504,-2.7607,-2.7928,-2.7778,-2.743,-2.6942,-2.6756,-2.6693,-2.6747,-2.7118,-2.7387,-2.7162,-2.772,-2.8249,-2.8077,-2.838,-2.8581,-2.842,-2.8411,-2.8411,-2.8411,-2.8411,-2.8411,-2.8411,-2.8411,-2.8411,-2.8411,-2.8781,-2.9002,-2.9002,-2.9002,-2.9002,-2.9002,-2.8642,-2.8411,-2.8411,-2.8411,-2.8411,-2.8411,-2.8411,-2.8411,-2.8411,-2.8411,-2.8411,-2.8411,-2.8348,-2.8348,-2.2336,-2.2689,-2.3003,-2.2454,0.0,0.0,-2.2493,-2.2692,-2.3024,-2.3391,-2.418,-2.4979,-2.5589,0.0,0.0,-2.5616,-2.5597,-2.5597,-2.5597,-2.5597,-2.5597,-2.5597,-2.5597,-2.5597,-2.5597,-2.5597,-2.5597,-2.5597,-2.5597,-2.5597,-2.5597,-2.5597,-2.5597,-2.5597,-2.5752,-2.5862,-2.5897,-2.6061,-2.6168,-2.6202,-2.6202,-2.6202,-2.6202,-2.6202,-2.6202,-2.6202,-2.6202,-2.6202,-2.6202,-2.6202,-2.6352,-2.6601,-2.71,-2.7431,-2.7696,-2.821,-2.8392,-2.8392,-2.8392,-2.8061,-2.7729,-2.8265,-2.827,-2.8163,-2.8484,-2.8605,-2.8694,-2.9032,-2.8865,-2.857,-2.8474,-2.8154,-2.7895,-2.787,-2.8279,-2.8586,-2.8437,-2.8695,-2.8934,-2.8779,-2.8716,-2.8629,-2.842,-2.8411,-2.8411,-2.8411,-2.8411,-2.8411,-2.8411,-2.8411,-2.8488,-2.8704,-2.9135,-2.9387,-2.9387,-2.9212,-2.9064,-2.9064,-2.8658,-2.8411,-2.8411,-2.8411,-2.8411,-2.8411,-2.8411,-2.8411,-2.8411,-2.8411,-2.8411,-2.8411,-2.8411,-2.8411,-2.2413,-2.2694,-2.317,-2.3045,0.0,0.0,-2.3653,-2.3437,-2.2908,-2.2846,-2.3783,-2.4834,-2.557,-2.564,0.0,-2.5597,-2.5597,-2.5597,-2.5597,-2.5597,-2.5597,-2.5597,-2.5597,-2.5597,-2.5597,-2.5597,-2.5597,-2.5597,-2.5597,-2.5597,-2.5597,-2.5597,-2.5597,-2.5597,-2.5661,-2.5772,-2.5897,-2.5972,-2.6063,-2.6202,-2.6202,-2.6202,-2.6202,-2.6202,-2.6202,-2.6202,-2.6202,-2.6202,-2.6202,-2.6202,-2.6634,-2.7298,-2.7317,-2.7746,-2.8409,-2.8409,-2.8409,-2.8426,-2.8409,-2.8409,-2.8428,-2.8505,-2.901,-2.9518,-2.8971,-2.9332,-2.9941,-3.007,-3.0015,-3.0053,-3.0731,-3.0259,-2.9639,-2.9762,-2.9793,-2.9705,-2.9284,-2.8841,-2.8583,-2.8858,-2.8518,-2.8235,-2.8372,-2.8411,-2.8411,-2.8411,-2.8411,-2.8411,-2.8411,-2.8411,-2.8673,-2.9335,-2.9387,-2.9427,-2.9427,-2.8812,-2.8427,-2.8427,-2.8427,-2.8411,-2.8411,-2.8411,-2.8411,-2.8411,-2.8411,-2.8411,-2.8411,-2.8411,-2.8411,-2.8411,-2.8411,-2.8411,-2.2336,-2.2689,0.0,-2.2438,0.0,0.0,0.0,-2.3454,0.0,0.0,-2.5188,-2.5368,-2.5589,-2.56,-2.5597,-2.5597,-2.5597,-2.5597,-2.5597,-2.5597,-2.5597,-2.5597,-2.5597,-2.5597,-2.5597,-2.5597,-2.5597,-2.5597,-2.5597,-2.5597,-2.5597,-2.5597,-2.5597,-2.5597,-2.5661,-2.5772,-2.5897,-2.5917,-2.6025,-2.6202,-2.6097,-2.6115,-2.6202,-2.6202,-2.6202,-2.6202,-2.6202,-2.6202,-2.6202,-2.6202,-2.6634,-2.7348,-2.7862,-2.8508,-2.9102,-2.9102,-2.9433,-2.9814,-2.9284,-2.9178,-2.934,-2.9876,-2.9942,-2.9878,-3.0236,-3.0566,-3.0813,-3.0869,-3.085,-3.0825,-3.0902,-3.0744,-3.0449,-2.9919,-3.0049,-3.0199,-2.9843,-2.9728,-2.9633,-2.9416,-2.909,-2.8732,-2.8444,-2.8411,-2.8411,-2.8411,-2.8411,-2.8411,-2.8411,-2.8411,-2.8673,-2.9335,-2.9387,-2.9797,-3.072,-2.9766,-2.952,-3.0443,-2.9627,-2.8904,-2.8427,-2.8411,-2.8411,-2.8411,-2.8411,-2.8411,-2.8411,-2.8411,-2.8411,-2.8411,-2.8411,-2.8411,-2.229,-2.2845,0.0,-2.2912,-2.34,-2.3967,-2.3818,0.0,0.0,0.0,-2.5807,-2.5663,-2.56,-2.5597,-2.5597,-2.5597,-2.5597,-2.5597,-2.5597,-2.5597,-2.5597,-2.5597,-2.5597,-2.5597,-2.5597,-2.5597,-2.5597,-2.5597,-2.5597,-2.5597,-2.5597,-2.5597,-2.5597,-2.5597,-2.564,-2.5698,-2.5809,-2.5862,-2.597,-2.6115,-2.6097,-2.6115,-2.6202,-2.6202,-2.6202,-2.6202,-2.6202,-2.6202,-2.6202,-2.6202,-2.6634,-2.7332,-2.7779,-2.8539,-2.9397,-2.9397,-2.986,-3.0439,-2.9992,-2.9908,-3.0112,-3.062,-3.0573,-3.0426,-3.092,-3.1131,-3.119,-3.119,-3.119,-3.1151,-3.0992,-3.0955,-3.0838,-3.022,-3.0384,-3.0609,-3.0389,-3.03,-3.0177,-2.9989,-2.9489,-2.902,-2.8724,-2.8517,-2.8411,-2.8411,-2.8411,-2.8411,-2.8411,-2.8873,-2.9341,-2.974,-2.9787,-3.0243,-3.1316,-3.0181,-2.9874,-3.0936,-3.0258,-2.9602,-2.9202,-2.895,-2.8812,-2.8812,-2.855,-2.8411,-2.8411,-2.8411,-2.8411,-2.8411,-2.8411,-2.8411,-2.2324,-2.3087,0.0,-2.4016,-2.4034,0.0,-2.5027,-2.5073,-2.5131,-2.5784,0.0,-2.5749,-2.5635,-2.5597,-2.5597,-2.5597,-2.5597,-2.5597,-2.5597,-2.5597,-2.5597,-2.5597,-2.5597,-2.5597,-2.5597,-2.5597,-2.5597,-2.5597,-2.5597,-2.5597,-2.5597,-2.5597,-2.5597,-2.5597,-2.5597,-2.5621,-2.5701,-2.5809,-2.5917,-2.5992,-2.6115,-2.6185,-2.6202,-2.6202,-2.6202,-2.6202,-2.6202,-2.6202,-2.6202,-2.6202,-2.6634,-2.7298,-2.7298,-2.816,-2.938,-2.9314,-2.981,-3.0489,-3.0444,-3.0559,-3.0733,-3.0871,-3.0972,-3.1035,-3.1151,-3.119,-3.119,-3.119,-3.119,-3.1171,-3.1035,-3.0995,-3.0935,-3.0609,-3.0712,-3.0892,-3.0892,-3.0576,-3.033,-3.0414,-2.9711,-2.909,-2.9044,-2.8677,-2.8411,-2.8411,-2.8411,-2.8427,-2.8488,-2.9566,-3.0356,-3.0479,-3.0432,-3.0705,-3.1413,-3.0258,-2.9787,-3.054,-3.0509,-3.0509,-3.0571,-2.9817,-2.9387,-2.9387,-2.875,-2.8427,-2.8488,-2.8488,-2.8488,-2.8488,-2.8488,-2.8488,-2.2921,-2.3182,0.0,0.0,-2.4247,-2.468,-2.5719,-2.5615,-2.5408,-2.5879,-2.5795,-2.5638,-2.5619,-2.5597,-2.5597,-2.5597,-2.5597,-2.5597,-2.5597,-2.5597,-2.5597,-2.5597,-2.5597,-2.5597,-2.5597,-2.5597,-2.5597,-2.5597,-2.5597,-2.5597,-2.5597,-2.5597,-2.5597,-2.5597,-2.5597,-2.5621,-2.5701,-2.5719,-2.5828,-2.5992,-2.6026,-2.6097,-2.6202,-2.6202,-2.6202,-2.6202,-2.6202,-2.6202,-2.6202,-2.6202,-2.6634,-2.7298,-2.7298,-2.816,-2.933,-2.8804,-2.9417,-3.0427,-2.9965,-3.0269,-3.0871,-3.0955,-3.1072,-3.1151,-3.119,-3.119,-3.119,-3.119,-3.119,-3.1171,-3.1035,-3.1092,-3.1072,-3.0733,-3.0773,-3.0892,-3.0892,-3.0576,-3.023,-2.9989,-2.9483,-2.8974,-2.8605,-2.8468,-2.8411,-2.8411,-2.8411,-2.8596,-2.9135,-2.9433,-3.0027,-3.1074,-3.072,-3.0863,-3.2074,-3.0966,-3.0705,-3.189,-3.1474,-3.1413,-3.1951,-3.032,-2.9387,-2.9387,-2.875,-2.8673,-2.9171,-2.9171,-2.9171,-2.9171,-2.9171,-2.9171,-2.322,0.0,0.0,-2.4946,0.0,-2.5137,-2.573,-2.5513,-2.5188,-2.5317,-2.5478,-2.5521,-2.5304,-2.5394,-2.5524,-2.5597,-2.5597,-2.5597,-2.5597,-2.5597,-2.5597,-2.5597,-2.5597,-2.5597,-2.5597,-2.5597,-2.5597,-2.5597,-2.5597,-2.5597,-2.5597,-2.5597,-2.5597,-2.5597,-2.5597,-2.5619,-2.5659,-2.5682,-2.5756,-2.5864,-2.5956,-2.6063,-2.6202,-2.6202,-2.6202,-2.6202,-2.6202,-2.6202,-2.6202,-2.6202,-2.6435,-2.6818,-2.7149,-2.7961,-2.892,-2.8887,-2.9582,-3.046,-3.0202,-3.0476,-3.0912,-3.0975,-3.1075,-3.119,-3.119,-3.119,-3.119,-3.119,-3.119,-3.119,-3.1112,-3.1151,-3.1151,-3.0895,-3.0952,-3.1012,-3.0912,-3.0797,-3.0679,-3.0493,-3.0097,-2.9689,-2.9438,-2.902,-2.8748,-2.8748,-2.8804,-2.9012,-2.9366,-2.9966,-3.0628,-3.1332,-3.1089,-3.1289,-3.2305,-3.1474,-3.132,-3.2336,-3.2059,-3.2028,-3.2382,-3.1089,-3.0366,-3.0366,-2.9704,-2.9525,-2.9879,-2.9879,-2.9879,-2.9879,-2.9879,-2.9879,-2.3321,0.0,-2.5311,-2.5933,-2.5682,0.0,-2.5389,-2.5063,-2.4704,-2.4542,-2.5052,-2.541,-2.5064,-2.5146,-2.5339,-2.5416,-2.5451,-2.5467,-2.5486,-2.5524,-2.5578,-2.5597,-2.5597,-2.5597,-2.5597,-2.5597,-2.5597,-2.5597,-2.5597,-2.5597,-2.5597,-2.5597,-2.5597,-2.5597,-2.5597,-2.5597,-2.5597,-2.5661,-2.5701,-2.5701,-2.5901,-2.6063,-2.6202,-2.6202,-2.6202,-2.6202,-2.6202,-2.6202,-2.6202,-2.6202,-2.6202,-2.6268,-2.7017,-2.7746,-2.8475,-2.9152,-2.986,-3.0526,-3.0671,-3.081,-3.0912,-3.1012,-3.1112,-3.119,-3.119,-3.119,-3.119,-3.119,-3.119,-3.119,-3.119,-3.119,-3.1171,-3.1035,-3.1112,-3.1151,-3.0952,-3.1072,-3.1171,-3.1095,-3.0638,-3.0251,-3.0251,-2.963,-2.9147,-2.9147,-2.939,-2.9602,-2.9735,-3.0705,-3.1428,-3.1551,-3.1551,-3.1782,-3.2336,-3.1874,-3.1797,-3.2351,-3.2398,-3.2398,-3.2398,-3.1886,-3.1551,-3.1551,-3.0812,-3.0448,-3.0555,-3.0555,-3.0555,-3.0555,-3.0555,-3.0555,0.0,0.0,-2.4839,0.0,-2.502,-2.4553,0.0,0.0,-2.4188,0.0,-2.4715,-2.5194,-2.5314,-2.5084,-2.4863,-2.4843,-2.4867,-2.4934,-2.4997,-2.5246,-2.547,-2.5597,-2.5597,-2.5597,-2.5597,-2.5597,-2.5597,-2.5597,-2.5597,-2.5597,-2.5597,-2.5597,-2.5597,-2.5597,-2.5597,-2.5597,-2.5597,-2.5661,-2.5701,-2.5701,-2.5901,-2.6063,-2.6202,-2.6202,-2.6202,-2.6202,-2.6202,-2.6202,-2.6202,-2.6202,-2.6202,-2.6268,-2.7017,-2.7746,-2.8475,-2.9152,-2.986,-3.0547,-3.079,-3.0892,-3.0932,-3.1112,-3.119,-3.119,-3.119,-3.119,-3.119,-3.119,-3.119,-3.119,-3.119,-3.119,-3.1171,-3.1035,-3.1112,-3.1151,-3.1015,-3.1112,-3.1075,-3.0679,-2.9886,-2.9303,-2.9303,-2.9327,-2.9373,-2.9373,-2.9884,-3.0489,-3.1059,-3.1274,-3.1613,-3.2198,-3.2259,-3.229,-3.2382,-3.2305,-3.229,-3.2382,-3.2398,-3.2398,-3.2398,-3.2305,-3.2259,-3.2259,-3.1032,-3.0705,-3.1259,-3.1259,-3.1259,-3.1259,-3.1259,-3.1259,-2.4332,-2.4763,-2.5088,0.0,-2.5118,-2.4619,-2.4558,-2.4168,-2.3824,-2.376,-2.4141,-2.4482,-2.4498,-2.4513,-2.4558,-2.4732,-2.4784,-2.4895,-2.5134,-2.532,-2.5451,-2.5578,-2.5597,-2.5597,-2.5597,-2.5597,-2.5597,-2.5597,-2.5597,-2.5597,-2.5597,-2.5597,-2.5597,-2.5597,-2.5597,-2.5597,-2.5597,-2.5637,-2.5715,-2.5809,-2.5899,-2.6043,-2.6202,-2.6202,-2.6202,-2.6202,-2.6202,-2.6202,-2.6202,-2.6202,-2.6452,-2.6901,-2.763,-2.8343,-2.9052,-2.9744,-3.0208,-3.0526,-3.0712,-3.0851,-3.0932,-3.1052,-3.1151,-3.119,-3.119,-3.119,-3.119,-3.119,-3.119,-3.1292,-3.1718,-3.1819,-3.1901,-3.2262,-3.2063,-3.1918,-3.2279,-3.1742,-3.1269,-3.1459,-3.1253,-3.1066,-3.1066,-3.0664,-3.0348,-3.0348,-3.0701,-3.1074,-3.1378,-3.1747,-3.2059,-3.2367,-3.2398,-3.2398,-3.2398,-3.2398,-3.2398,-3.2398,-3.2398,-3.2398,-3.2398,-3.2398,-3.2398,-3.2398,-3.1828,-3.1674,-3.1951,-3.1951,-3.1951,-3.1951,-3.1951,-3.1951,0.0,0.0,-2.4762,-2.5371,-2.4994,-2.444,0.0,0.0,-2.3797,-2.3568,-2.3846,-2.4012,-2.3537,-2.3824,-2.4219,-2.4513,-2.4574,-2.4715,-2.5068,-2.5262,-2.5432,-2.5578,-2.5597,-2.5597,-2.5597,-2.5597,-2.5597,-2.5597,-2.5597,-2.5597,-2.5597,-2.5597,-2.5597,-2.5597,-2.5597,-2.5597,-2.5597,-2.5619,-2.5696,-2.5844,-2.5899,-2.599,-2.615,-2.6168,-2.6202,-2.6202,-2.6202,-2.6319,-2.6485,-2.6485,-2.6899,-2.7647,-2.8376,-2.8953,-2.9479,-3.0224,-3.0506,-3.0526,-3.0651,-3.079,-3.0912,-3.0955,-3.1052,-3.1151,-3.1151,-3.1151,-3.1202,-3.1427,-3.1481,-3.1616,-3.2158,-3.2293,-3.2446,-3.2983,-3.2699,-3.2462,-3.3,-3.2408,-3.1918,-3.2479,-3.2603,-3.2641,-3.2641,-3.1942,-3.1363,-3.1363,-3.154,-3.1643,-3.1643,-3.2074,-3.2398,-3.2398,-3.2398,-3.2398,-3.2398,-3.2398,-3.2398,-3.2398,-3.2398,-3.2398,-3.2398,-3.2398,-3.2398,-3.2398,-3.2398,-3.2398,-3.2398,-3.2398,-3.2398,-3.2398,-3.2398,-3.2398,0.0,-2.4147,0.0,-2.4652,-2.4202,0.0,0.0,0.0,-2.4365,-2.3744,-2.4118,-2.4171,-2.281,-2.3148,-2.3681,-2.3824,-2.3946,-2.413,-2.4323,-2.489,-2.5371,-2.5578,-2.5597,-2.5597,-2.5597,-2.5597,-2.5597,-2.5597,-2.5597,-2.5597,-2.5597,-2.5597,-2.5597,-2.5597,-2.5597,-2.5597,-2.5597,-2.5661,-2.5701,-2.5719,-2.5901,-2.5992,-2.6026,-2.615,-2.6202,-2.6202,-2.6202,-2.6601,-2.7232,-2.7232,-2.768,-2.8409,-2.9085,-2.9363,-2.9479,-3.0224,-3.0506,-3.0526,-3.0651,-3.079,-3.0892,-3.0912,-3.0952,-3.1015,-3.1015,-3.1015,-3.1187,-3.1999,-3.2242,-3.2242,-3.2293,-3.2293,-3.231,-3.2344,-3.2327,-3.231,-3.2344,-3.2848,-3.3305,-3.3339,-3.2998,-3.2674,-3.2674,-3.2393,-3.2139,-3.2139,-3.2266,-3.2336,-3.2336,-3.2367,-3.2398,-3.2398,-3.2398,-3.2398,-3.2398,-3.2398,-3.2398,-3.2398,-3.2398,-3.2398,-3.2398,-3.2398,-3.2398,-3.2398,-3.2398,-3.2398,-3.2398,-3.2398,-3.2398,-3.2398,-3.2398,-3.2398,0.0,0.0,0.0,-2.4221,-2.4281,-2.4225,-2.3555,-2.3688,-2.3894,-2.3655,-2.3789,-2.3797,-2.3313,-2.3031,-2.2918,-2.3023,-2.3065,-2.3425,-2.4364,-2.4771,-2.5107,-2.5432,-2.5543,-2.5597,-2.5597,-2.5597,-2.5597,-2.5597,-2.5597,-2.5597,-2.5597,-2.5597,-2.5597,-2.5597,-2.5597,-2.5597,-2.5597,-2.5619,-2.5659,-2.5701,-2.5846,-2.62,-2.6683,-2.6364,-2.6468,-2.6917,-2.6917,-2.7066,-2.735,-2.7812,-2.8426,-2.9069,-2.9317,-2.9678,-3.0141,-3.0406,-3.0506,-3.0506,-3.0568,-3.0651,-3.0773,-3.0773,-3.1169,-3.1553,-3.1066,-3.1627,-3.2395,-3.2238,-3.2232,-3.2513,-3.3478,-3.3355,-3.3119,-3.3613,-3.4066,-3.4286,-3.3795,-3.3914,-3.4117,-3.4117,-3.408,-3.4038,-3.4038,-3.3657,-3.3363,-3.3363,-3.3393,-3.3303,-3.2975,-3.2922,-3.2761,-3.2437,-3.2398,-3.2398,-3.2398,-3.2398,-3.2398,-3.2398,-3.2398,-3.2398,-3.2398,-3.2398,-3.2398,-3.2398,-3.2398,-3.2398,-3.2398,-3.2398,-3.2398,-3.2398,-3.2398,-3.2398,-2.3393,0.0,0.0,0.0,0.0,-2.4406,-2.3802,-2.3952,-2.4081,-2.3683,-2.3789,-2.3819,-2.337,-2.2909,-2.2569,-2.2575,-2.2622,-2.302,-2.4028,-2.4538,-2.4974,-2.5359,-2.5524,-2.5597,-2.5597,-2.5597,-2.5597,-2.5597,-2.5597,-2.5597,-2.5597,-2.5597,-2.5597,-2.5597,-2.5597,-2.5597,-2.5597,-2.5619,-2.564,-2.5661,-2.6108,-2.6578,-2.7057,-2.6993,-2.7216,-2.768,-2.7912,-2.7879,-2.7713,-2.8442,-2.9135,-2.9761,-2.9761,-3.0075,-3.0506,-3.0506,-3.0506,-3.0506,-3.0506,-3.0589,-3.0692,-3.0651,-3.1212,-3.1851,-3.139,-3.2156,-3.3122,-3.2959,-3.2975,-3.3275,-3.4235,-3.4134,-3.3897,-3.437,-3.5064,-3.5464,-3.4979,-3.4861,-3.4861,-3.4861,-3.498,-3.5068,-3.5068,-3.4625,-3.4284,-3.4284,-3.3969,-3.3614,-3.3251,-3.3039,-3.2788,-3.2437,-3.2398,-3.2398,-3.2398,-3.2398,-3.2398,-3.2398,-3.2398,-3.2398,-3.2398,-3.2398,-3.2398,-3.2398,-3.2398,-3.2398,-3.2398,-3.2398,-3.237,-3.2342,-3.2342,-3.2287,0.0,0.0,0.0,0.0,0.0,0.0,-2.4276,0.0,-2.4989,-2.3866,-2.4118,-2.4178,-2.2957,-2.2703,-2.2646,-2.2542,-2.2658,-2.2894,-2.3236,-2.419,-2.4985,-2.5359,-2.5524,-2.5597,-2.5597,-2.5597,-2.5597,-2.5597,-2.5597,-2.5597,-2.5597,-2.5597,-2.5597,-2.5597,-2.5597,-2.5597,-2.5597,-2.5661,-2.5661,-2.5597,-2.6618,-2.7073,-2.7063,-2.7982,-2.8409,-2.8475,-2.9118,-2.9036,-2.8475,-2.9168,-2.9843,-3.0506,-3.0506,-3.0506,-3.0506,-3.0506,-3.0506,-3.0506,-3.0506,-3.0589,-3.0671,-3.0547,-3.1103,-3.1862,-3.1972,-3.2545,-3.3359,-3.4238,-3.4489,-3.4489,-3.4489,-3.4506,-3.4523,-3.4523,-3.5081,-3.56,-3.56,-3.56,-3.56,-3.56,-3.56,-3.56,-3.56,-3.5178,-3.4833,-3.4793,-3.3903,-3.3251,-3.3209,-3.2749,-3.2425,-3.2398,-3.2398,-3.2398,-3.2398,-3.2398,-3.2398,-3.2398,-3.2398,-3.2398,-3.2398,-3.2398,-3.2398,-3.2398,-3.2398,-3.2398,-3.2398,-3.2398,-3.2315,-3.2191,-3.2206,-3.2038,-2.275,0.0,0.0,0.0,0.0,0.0,0.0,0.0,-2.3646,-2.4092,-2.386,-2.3536,-2.3389,-2.3002,-2.2703,-2.2646,-2.2202,-2.2119,-2.2829,-2.3529,-2.4253,-2.5102,-2.5457,-2.568,-2.568,-2.5637,-2.5597,-2.5597,-2.5597,-2.5597,-2.5597,-2.5597,-2.5597,-2.5597,-2.5597,-2.5597,-2.5597,-2.5619,-2.5619,-2.5597,-2.6559,-2.7295,-2.7801,-2.8213,-2.8655,-2.9135,-2.9334,-2.9281,-2.9185,-2.9893,-3.0307,-3.0506,-3.0506,-3.0506,-3.0506,-3.0506,-3.0506,-3.0506,-3.0506,-3.051,-3.0547,-3.051,-3.1456,-3.2495,-3.2017,-3.3249,-3.4779,-3.4492,-3.4462,-3.4489,-3.4489,-3.4895,-3.5295,-3.5295,-3.5447,-3.56,-3.56,-3.56,-3.56,-3.56,-3.56,-3.56,-3.56,-3.547,-3.5247,-3.4857,-3.4553,-3.4095,-3.3287,-3.3066,-3.2841,-3.2437,-3.2398,-3.2398,-3.2398,-3.2398,-3.2398,-3.2398,-3.2398,-3.2398,-3.2398,-3.2398,-3.2398,-3.2398,-3.2398,-3.2342,-3.2247,-3.2247,-3.2247,-3.2191,-3.2094,-3.1968,-2.297,0.0,0.0,0.0,0.0,0.0,-2.3471,-2.3228,-2.3119,-2.3614,-2.3351,-2.3142,-2.3518,-2.3295,-2.3002,-2.2748,-2.2312,-2.2213,-2.2798,-2.3597,-2.4359,-2.5024,-2.5495,-2.5772,-2.5719,-2.5661,-2.5637,-2.5597,-2.5597,-2.5597,-2.5597,-2.5597,-2.5597,-2.5597,-2.5597,-2.5597,-2.5597,-2.5597,-2.56,-2.5656,-2.6559,-2.7394,-2.8158,-2.8612,-2.9201,-2.986,-2.986,-2.986,-2.9877,-3.0323,-3.0506,-3.0506,-3.0506,-3.0506,-3.0506,-3.0506,-3.0506,-3.0506,-3.0506,-3.0506,-3.0506,-3.0506,-3.1589,-3.2834,-3.2477,-3.3812,-3.543,-3.5003,-3.4935,-3.4962,-3.4962,-3.5284,-3.56,-3.56,-3.56,-3.56,-3.56,-3.56,-3.56,-3.56,-3.56,-3.56,-3.56,-3.56,-3.5424,-3.488,-3.4601,-3.4169,-3.3313,-3.3013,-3.2749,-3.2437,-3.2398,-3.2398,-3.2398,-3.2398,-3.2398,-3.2398,-3.2398,-3.2398,-3.2398,-3.2398,-3.2398,-3.2398,-3.2398,-3.233,-3.2122,-3.2163,-3.215,-3.2025,-3.1883,-3.1741,-2.346,-2.3534,0.0,-2.4146,-2.3569,0.0,-2.314,-2.3265,-2.3261,-2.3078,-2.295,-2.3077,-2.3673,-2.3713,-2.3516,-2.3034,-2.2857,-2.2817,-2.2955,-2.3915,-2.474,-2.5036,-2.553,-2.5826,-2.5738,-2.5719,-2.568,-2.5619,-2.5597,-2.5597,-2.5597,-2.5597,-2.5597,-2.5597,-2.5597,-2.5597,-2.5597,-2.5597,-2.567,-2.5815,-2.6711,-2.7547,-2.8355,-2.9161,-2.9877,-3.0506,-3.0506,-3.0506,-3.0506,-3.0506,-3.0506,-3.0506,-3.0506,-3.0506,-3.0506,-3.0506,-3.0506,-3.0506,-3.0506,-3.0506,-3.0506,-3.0609,-3.1656,-3.2934,-3.317,-3.4298,-3.5514,-3.5594,-3.56,-3.56,-3.56,-3.56,-3.56,-3.56,-3.56,-3.56,-3.56,-3.56,-3.56,-3.56,-3.56,-3.56,-3.56,-3.5538,-3.5356,-3.488,-3.4342,-3.3793,-3.3277,-3.2788,-3.2465,-3.2425,-3.2398,-3.2398,-3.2398,-3.2398,-3.2398,-3.2398,-3.2398,-3.2398,-3.2398,-3.2398,-3.2398,-3.2398,-3.237,-3.2247,-3.1968,-3.2094,-3.201,-3.1756,-3.1568,-3.1511,-2.255,-2.2558,-2.2572,-2.2393,-2.2817,0.0,-2.3007,-2.3584,-2.4215,-2.4379,-2.3877,-2.3735,-2.4712,-2.4393,-2.4115,-2.45,-2.3818,-2.3156,-2.2812,-2.3234,-2.3935,-2.482,-2.5266,-2.5605,-2.5919,-2.5793,-2.5701,-2.568,-2.5637,-2.5597,-2.5597,-2.5597,-2.5597,-2.5597,-2.5597,-2.5597,-2.5597,-2.5597,-2.5929,-2.6599,-2.7483,-2.8303,-2.9114,-2.9902,-3.0357,-3.0506,-3.0506,-3.0506,-3.0506,-3.0506,-3.0506,-3.0506,-3.0506,-3.0506,-3.0506,-3.0506,-3.0506,-3.0506,-3.0506,-3.0506,-3.0626,-3.1328,-3.2174,-3.3056,-3.3895,-3.4785,-3.5514,-3.5594,-3.56,-3.56,-3.56,-3.56,-3.56,-3.56,-3.56,-3.56,-3.56,-3.56,-3.56,-3.56,-3.56,-3.56,-3.56,-3.5247,-3.4927,-3.4833,-3.4342,-3.3793,-3.3277,-3.3119,-3.2895,-3.2453,-3.2398,-3.2398,-3.2398,-3.2398,-3.2398,-3.2398,-3.2398,-3.2398,-3.2398,-3.2398,-3.2398,-3.2398,-3.2191,-3.1996,-3.1841,-3.187,-3.1784,-3.1568,-3.1511,-3.1511,-2.2953,-2.2733,-2.2683,-2.3051,-2.2745,0.0,0.0,-2.2764,-2.2914,-2.3151,-2.2884,-2.2912,-2.3911,-2.3666,-2.3591,-2.4423,-2.3889,-2.3339,-2.335,-2.3315,-2.3498,-2.4037,-2.4891,-2.5532,-2.568,-2.5791,-2.5811,-2.5719,-2.5656,-2.5597,-2.5597,-2.5597,-2.5597,-2.5597,-2.5597,-2.5597,-2.5597,-2.5972,-2.6227,-2.6365,-2.7499,-2.8323,-2.8877,-2.9628,-3.0141,-3.0506,-3.0506,-3.0506,-3.0506,-3.0506,-3.0506,-3.0506,-3.0506,-3.0506,-3.0506,-3.0506,-3.0737,-3.1002,-3.0621,-3.099,-3.1603,-3.1684,-3.2497,-3.3551,-3.4136,-3.4886,-3.5549,-3.5577,-3.56,-3.56,-3.56,-3.56,-3.56,-3.56,-3.56,-3.56,-3.56,-3.56,-3.56,-3.56,-3.56,-3.56,-3.56,-3.5379,-3.5021,-3.448,-3.4185,-3.3716,-3.2895,-3.2788,-3.2695,-3.2425,-3.2398,-3.2398,-3.2398,-3.2398,-3.2398,-3.2398,-3.2398,-3.2398,-3.2398,-3.2398,-3.237,-3.2287,-3.2038,-3.1898,-3.1898,-3.1712,-3.1597,-3.1511,-3.1511,-3.1511,-2.369,-2.3307,-2.3251,-2.3905,-2.2878,-2.1794,0.0,0.0,0.0,-2.1746,-2.1755,-2.2028,0.0,-2.281,-2.29,-2.3893,-2.3581,-2.3365,-2.3859,-2.3557,-2.3336,-2.3499,-2.4633,-2.5424,-2.553,-2.5695,-2.5755,-2.5738,-2.5529,-2.5454,-2.5619,-2.5616,-2.5597,-2.5597,-2.5597,-2.5597,-2.5597,-2.6199,-2.6425,-2.6342,-2.747,-2.8293,-2.8823,-2.9367,-2.9926,-3.0506,-3.0506,-3.0506,-3.0506,-3.0506,-3.0506,-3.0506,-3.0506,-3.0506,-3.0506,-3.0506,-3.0969,-3.1515,-3.0919,-3.1586,-3.2636,-3.2205,-3.3079,-3.4319,-3.4426,-3.4987,-3.56,-3.56,-3.56,-3.56,-3.56,-3.56,-3.56,-3.56,-3.56,-3.56,-3.56,-3.56,-3.56,-3.56,-3.56,-3.56,-3.56,-3.5515,-3.5201,-3.4431,-3.4235,-3.3843,-3.2975,-3.2776,-3.2668,-3.2574,-3.2465,-3.2398,-3.2398,-3.2398,-3.2398,-3.2398,-3.2398,-3.2398,-3.2398,-3.2398,-3.2342,-3.2191,-3.1996,-3.1912,-3.1996,-3.1712,-3.1568,-3.1568,-3.1511,-3.1511,-2.3948,-2.3818,-2.3588,-2.2769,-2.2865,-2.2863,-2.1697,0.0,-2.3077,-2.2442,0.0,-2.2539,0.0,0.0,0.0,-2.3802,-2.3276,-2.2998,-2.3635,-2.3389,-2.3435,-2.4257,-2.4722,-2.5269,-2.6025,-2.5451,-2.5265,-2.5832,-2.5149,-2.4995,-2.5649,-2.5621,-2.5597,-2.5597,-2.5597,-2.5597,-2.5597,-2.5678,-2.6444,-2.785,-2.8014,-2.8852,-3.0257,-3.034,-3.0423,-3.0506,-3.0506,-3.0506,-3.0506,-3.0506,-3.0506,-3.0506,-3.0506,-3.0506,-3.0506,-3.0506,-3.0969,-3.1598,-3.1499,-3.2017,-3.2801,-3.3494,-3.4442,-3.5334,-3.5351,-3.5476,-3.56,-3.56,-3.56,-3.56,-3.56,-3.56,-3.56,-3.56,-3.56,-3.56,-3.56,-3.56,-3.56,-3.56,-3.56,-3.56,-3.56,-3.5201,-3.5021,-3.5379,-3.5021,-3.4673,-3.4553,-3.4095,-3.364,-3.3172,-3.2695,-3.2398,-3.2398,-3.2398,-3.2398,-3.2398,-3.2398,-3.2398,-3.2398,-3.2398,-3.2342,-3.2191,-3.2163,-3.2094,-3.1996,-3.1841,-3.1756,-3.1756,-3.1568,-3.1511,-2.4034,-2.3786,-2.3604,-2.3059,-2.2642,-2.223,-2.1759,-2.1808,-2.1855,-2.1551,0.0,0.0,0.0,0.0,0.0,0.0,-2.2785,-2.2753,-2.3932,-2.3483,-2.3373,-2.4225,-2.4933,-2.5589,-2.615,-2.5403,-2.5184,-2.5888,-2.5584,-2.5497,-2.5793,-2.6124,-2.61,-2.5677,-2.5619,-2.5807,-2.6231,-2.6616,-2.7221,-2.8043,-2.8915,-2.951,-2.9877,-3.0307,-3.0506,-3.0506,-3.0506,-3.0506,-3.0506,-3.0506,-3.0506,-3.0506,-3.0506,-3.0506,-3.0555,-3.0986,-3.1598,-3.2249,-3.2249,-3.2994,-3.4044,-3.4499,-3.4971,-3.54,-3.5469,-3.5543,-3.56,-3.56,-3.56,-3.56,-3.56,-3.56,-3.56,-3.56,-3.56,-3.56,-3.56,-3.56,-3.56,-3.56,-3.56,-3.56,-3.56,-3.5424,-3.5224,-3.5155,-3.4673,-3.4219,-3.3903,-3.3407,-3.2975,-3.2761,-3.2547,-3.2398,-3.2398,-3.2398,-3.2398,-3.2398,-3.2398,-3.2398,-3.2398,-3.2315,-3.2274,-3.2191,-3.2107,-3.2053,-3.1996,-3.187,-3.1799,-3.1799,-3.1597,-3.1511,-2.42,-2.3944,-2.376,-2.3303,-2.2453,-2.1715,-2.1617,-2.1266,-2.0944,-2.0944,-2.1084,0.0,0.0,0.0,0.0,0.0,0.0,-2.2753,0.0,-2.3786,-2.3691,-2.4442,-2.5317,-2.5956,-2.6168,-2.5438,-2.5253,-2.5995,-2.5791,-2.5704,-2.5917,-2.6335,-2.6292,-2.5717,-2.5659,-2.5975,-2.6685,-2.721,-2.7749,-2.8321,-2.9428,-2.986,-2.9711,-3.0257,-3.0506,-3.0506,-3.0506,-3.0506,-3.0506,-3.0506,-3.0506,-3.0522,-3.0721,-3.0803,-3.087,-3.1399,-3.2177,-3.3017,-3.3017,-3.3846,-3.497,-3.5111,-3.5245,-3.5377,-3.5475,-3.5549,-3.56,-3.56,-3.56,-3.56,-3.56,-3.56,-3.56,-3.56,-3.56,-3.56,-3.56,-3.56,-3.56,-3.56,-3.56,-3.56,-3.56,-3.56,-3.5424,-3.488,-3.448,-3.407,-3.3675,-3.3172,-3.2884,-3.3055,-3.2788,-3.2614,-3.2614,-3.2492,-3.2398,-3.2398,-3.2398,-3.2398,-3.2398,-3.233,-3.2247,-3.2247,-3.2122,-3.2038,-3.2038,-3.187,-3.1813,-3.1841,-3.1597,-3.1511,-2.4492,-2.4581,-2.4268,-2.2942,-2.2337,-2.1867,-2.1025,-2.1058,-2.1275,-2.1275,-2.18,-2.2262,-2.2281,0.0,0.0,0.0,0.0,0.0,0.0,0.0,-2.4685,-2.5296,-2.5914,-2.6259,-2.6203,-2.5523,-2.5391,-2.6136,-2.5403,-2.5251,-2.5959,-2.5952,-2.586,-2.5701,-2.5701,-2.6019,-2.6685,-2.6786,-2.7584,-2.9075,-2.9231,-2.9729,-3.0472,-3.0489,-3.0506,-3.0506,-3.0506,-3.0506,-3.0506,-3.0506,-3.0506,-3.0572,-3.1283,-3.1565,-3.1565,-3.1598,-3.2531,-3.3756,-3.3756,-3.4363,-3.5128,-3.5245,-3.5383,-3.5514,-3.5594,-3.56,-3.56,-3.56,-3.56,-3.56,-3.56,-3.56,-3.56,-3.56,-3.56,-3.56,-3.56,-3.56,-3.56,-3.56,-3.56,-3.56,-3.56,-3.56,-3.5424,-3.488,-3.4785,-3.4785,-3.4745,-3.4284,-3.4161,-3.4673,-3.3802,-3.3156,-3.3156,-3.2695,-3.2398,-3.2398,-3.2398,-3.2398,-3.2398,-3.2398,-3.2398,-3.2398,-3.2274,-3.2191,-3.2191,-3.1927,-3.187,-3.1996,-3.1655,-3.1511,-2.3905,-2.4131,-2.4153,-2.3124,-2.2435,-2.185,-2.1168,-2.1155,-2.1304,-2.1304,-2.1843,-2.2305,-2.2305,0.0,0.0,0.0,0.0,0.0,0.0,0.0,-2.4477,0.0,0.0,0.0,-2.6277,-2.5559,-2.5607,-2.6851,-2.6649,-2.6813,-2.7557,-2.7479,-2.7172,-2.6639,-2.6491,-2.6792,-2.7548,-2.8017,-2.8833,-2.9955,-2.9996,-3.0191,-3.0506,-3.0506,-3.0506,-3.0506,-3.0506,-3.0506,-3.0506,-3.0506,-3.0787,-3.125,-3.1499,-3.2194,-3.3061,-3.3061,-3.3375,-3.3856,-3.4352,-3.4707,-3.4994,-3.5111,-3.5198,-3.5268,-3.5383,-3.5458,-3.552,-3.552,-3.5571,-3.56,-3.56,-3.56,-3.56,-3.56,-3.56,-3.56,-3.56,-3.56,-3.56,-3.56,-3.56,-3.56,-3.56,-3.56,-3.5554,-3.5356,-3.5021,-3.4793,-3.4793,-3.402,-3.3547,-3.3726,-3.3093,-3.2668,-3.2668,-3.2492,-3.2398,-3.2398,-3.2398,-3.2398,-3.2398,-3.2398,-3.2398,-3.2398,-3.2342,-3.2302,-3.2191,-3.2122,-3.2038,-3.1996,-3.1784,-3.1698,-2.3462,-2.3784,-2.3863,-2.3127,-2.2586,-2.2141,-2.1591,-2.1716,-2.1937,-2.1937,-2.2513,-2.3086,-2.3293,0.0,0.0,0.0,0.0,0.0,0.0,-2.415,0.0,0.0,0.0,0.0,0.0,-2.549,-2.5538,-2.6566,-2.6811,-2.7232,-2.7961,-2.7921,-2.7764,-2.7493,-2.7112,-2.7378,-2.8387,-2.8874,-2.9543,-3.0396,-3.0422,-3.0464,-3.0506,-3.0506,-3.0506,-3.0506,-3.0506,-3.0506,-3.0522,-3.0787,-3.1168,-3.1648,-3.2177,-3.2961,-3.3789,-3.3789,-3.3955,-3.4253,-3.4733,-3.4923,-3.4994,-3.5065,-3.5111,-3.5198,-3.5268,-3.54,-3.5492,-3.5492,-3.5543,-3.56,-3.56,-3.56,-3.56,-3.56,-3.56,-3.56,-3.56,-3.56,-3.56,-3.56,-3.56,-3.56,-3.56,-3.56,-3.5554,-3.5339,-3.4857,-3.4529,-3.4529,-3.3751,-3.3261,-3.3459,-3.3002,-3.2629,-3.2425,-3.2398,-3.2398,-3.2398,-3.2398,-3.2398,-3.2398,-3.2398,-3.2398,-3.2398,-3.2342,-3.2302,-3.2191,-3.2135,-3.2094,-3.1996,-3.1912,-3.1841]},{"header":{"parameterUnit":"m.s-1","parameterCategory":1,"la1":30.6,"la2":29.2853,"lo1":-89.7004,"lo2":-87.6739,"dy":0.0162,"dx":0.0183,"nx":112,"ny":82,"refTime":"2026-03-05T12:00:00:Z","depth":0,"parameterNumber":3,"parameterNumberName":"V-component_of_WINDS"},"data":[0.0,0.0,0.0,0.0,0.0,0.0,0.0,0.0,0.0,0.0,0.0,0.0,0.0,0.0,0.0,0.0,0.0,0.0,0.0,0.0,0.0,0.0,0.0,0.0,0.0,0.0,0.0,0.0,0.0,0.0,0.0,0.0,0.0,0.0,0.0,0.0,0.0,0.0,0.0,0.0,0.0,0.0,0.0,0.0,0.0,0.0,0.0,0.0,0.0,0.0,0.0,0.0,0.0,0.0,0.0,0.0,0.0,0.0,0.0,0.0,0.0,0.0,0.0,0.0,0.0,0.0,0.0,0.0,0.0,0.0,0.0,0.0,0.0,0.0,0.0,0.0,0.0,0.0,0.0,0.0,0.0,0.0,0.0,0.0,0.0,0.0,0.0,0.0,0.0,0.0,0.6195,0.6315,0.7035,0.7489,0.7489,0.7149,0.6737,0.6306,0.0,0.0,0.0,0.0,0.0,0.0,0.0,0.0,0.0,0.0,0.0,0.0,0.0,0.0,0.0,0.0,0.0,0.0,0.0,0.0,0.0,0.0,0.0,0.0,0.0,0.0,0.0,0.0,0.0,0.0,0.0,0.0,0.0,0.0,0.0,0.0,0.0,0.0,0.0,0.0,0.0,0.0,0.0,0.0,0.0,0.0,0.0,0.0,0.0,0.0,0.0,0.0,0.0,0.0,0.0,0.0,0.0,0.0,0.0,0.0,0.0,0.0,0.0,0.0,0.0,0.0,0.0,0.0,0.0,0.0,0.0,0.0,0.0,0.0,0.0,0.0,0.0,0.0,0.0,0.0,0.0,0.0,0.0,0.0,0.0,0.0,0.0,0.0,0.0,0.0,0.0,0.0,0.0,0.0,0.0,0.0,0.0,0.0,0.0,0.0,0.0,0.0,0.0,0.0,0.6203,0.6883,0.7286,0.7489,0.7489,0.744,0.7047,0.6194,0.0,0.0,0.0,0.0,0.0,0.0,0.0,0.0,0.0,0.0,0.0,0.0,0.0,0.0,0.0,0.0,0.0,0.0,0.0,0.0,0.0,0.0,0.0,0.0,0.0,0.0,0.0,0.0,0.0,0.0,0.0,0.0,0.0,0.0,0.0,0.0,0.0,0.0,0.0,0.0,0.0,0.0,0.0,0.0,0.0,0.0,0.0,0.0,0.0,0.0,0.0,0.0,0.0,0.0,0.0,0.0,0.0,0.0,0.0,0.0,0.0,0.0,0.0,0.0,0.0,0.0,0.0,0.0,0.0,0.0,0.0,0.0,0.0,0.0,0.0,0.0,0.0,0.0,0.0,0.0,0.0,0.0,0.0,0.0,0.0,0.0,0.0,0.0,0.0,0.0,0.0,0.0,0.0,0.0,0.0,0.0,0.0,0.0,0.0,0.0,0.0,0.0,0.0,0.6141,0.6634,0.7256,0.7418,0.7489,0.7489,0.7372,0.6976,0.6242,0.5672,0.0,0.0,0.0,0.0,0.0,0.0,0.0,0.0,0.0,0.0,0.0,0.0,0.0,0.0,0.0,0.0,0.0,0.0,0.0,0.0,0.0,0.0,0.0,0.0,0.0,0.0,0.0,0.0,0.0,0.0,0.0,0.0,0.0,0.0,0.0,0.0,0.0,0.0,0.0,0.0,0.0,0.0,0.0,0.0,0.0,0.0,0.0,0.0,0.0,0.0,0.0,0.0,0.0,0.0,0.0,0.0,0.0,0.0,0.0,0.0,0.0,0.0,0.0,0.0,0.0,0.0,0.0,0.0,0.0,0.0,0.0,0.0,0.0,0.0,0.0,0.0,0.0,0.0,0.0,0.0,0.0,0.0,0.0,0.0,0.0,0.0,0.0,0.0,0.0,0.0,0.0,0.0,0.0,0.0,0.0,0.0,0.0,0.0,0.0,0.0,0.0,0.0,0.7005,0.7178,0.7455,0.7489,0.7489,0.7489,0.7267,0.6905,0.6392,0.6202,0.0,0.0,0.0,0.0,0.0,0.0,0.0,0.0,0.0,0.0,0.0,0.0,0.0,0.0,0.0,0.0,0.0,0.0,0.0,0.0,0.0,0.0,0.0,0.0,0.0,0.0,0.0,0.0,0.0,0.0,0.0,0.0,0.0,0.0,0.0,0.0,0.0,0.0,0.0,0.0,0.0,0.0,0.0,0.0,0.0,0.0,0.0,0.0,0.0,0.0,0.0,0.0,0.0,0.0,0.0,0.0,0.0,0.0,0.0,0.0,0.0,0.0,0.0,0.0,0.0,0.0,0.0,0.0,0.0,0.0,0.0,0.0,0.0,0.0,0.0,0.0,0.0,0.0,0.0,0.0,0.0,0.0,0.0,0.0,0.0,0.0,0.0,0.0,0.0,0.0,0.0,0.0,0.0,0.0,0.0,0.0,0.0,0.0,0.0,0.0,0.0,0.0,0.7572,0.7822,0.7521,0.7489,0.7489,0.7489,0.7267,0.694,0.6611,0.6265,0.0,0.0,0.0,0.0,0.0,0.0,0.0,0.0,0.0,0.0,0.0,0.0,0.0,0.0,0.0,0.0,0.0,0.0,0.0,0.0,0.0,0.0,0.0,0.0,0.0,0.0,0.0,0.0,0.0,0.0,0.0,0.0,0.0,0.0,0.0,0.0,0.0,0.0,0.0,0.0,0.0,0.0,0.0,0.0,0.0,0.0,0.0,0.0,0.0,0.0,0.0,0.0,0.0,0.0,0.0,0.0,0.0,0.0,0.0,0.0,0.0,0.0,0.0,0.0,0.0,0.0,0.0,0.0,0.0,0.0,0.0,0.0,0.0,0.0,0.0,0.0,0.0,0.0,0.0,0.0,0.0,0.0,0.0,0.0,0.0,0.0,0.0,0.0,0.0,0.0,0.0,0.0,0.0,0.0,0.0,0.0,0.0,0.0,0.0,0.0,0.0,0.0,0.789,0.808,0.7962,0.7944,0.7944,0.7922,0.7526,0.7126,0.6741,0.0,0.0,0.0,0.0,0.0,0.0,0.0,0.0,0.0,0.0,0.0,0.0,0.0,0.0,0.0,0.0,0.0,0.0,0.0,0.0,0.0,0.0,0.0,0.0,0.0,0.0,0.0,0.0,0.0,0.0,0.0,0.0,0.0,0.0,0.0,0.0,0.0,0.0,0.0,0.0,0.0,0.0,0.0,0.0,0.0,0.0,0.0,0.0,0.0,0.0,0.0,0.0,0.0,0.0,0.0,0.0,0.0,0.0,0.0,0.0,0.0,0.0,0.0,0.0,0.0,0.0,0.0,0.0,0.0,0.0,0.0,0.0,0.0,0.0,0.0,0.0,0.0,0.0,0.0,0.0,0.0,0.0,0.0,0.0,0.0,0.0,0.0,0.0,0.0,0.0,0.0,0.0,0.0,0.0,0.0,0.0,0.0,0.0,0.0,0.0,0.0,0.0,0.7828,0.8371,0.8697,0.8635,0.8452,0.8414,0.8616,0.8066,0.755,0.7135,0.0,0.0,0.0,0.0,0.0,0.0,0.0,0.0,0.0,0.0,0.0,0.0,0.0,0.0,0.0,0.0,0.0,0.0,0.0,0.0,0.0,0.0,0.0,0.0,0.0,0.0,0.0,0.0,0.0,0.0,0.0,0.0,0.0,0.0,0.0,0.0,0.0,0.0,0.0,0.0,0.0,0.0,0.0,0.0,0.0,0.0,0.0,0.0,0.0,0.0,0.0,0.0,0.0,0.0,0.0,0.0,0.0,0.0,0.0,0.0,0.0,0.0,0.0,0.0,0.0,0.0,0.0,0.0,0.0,0.0,0.0,0.0,0.0,0.0,0.0,0.0,0.0,0.0,0.0,0.0,0.0,0.0,0.0,0.0,0.0,0.0,0.0,0.0,0.0,0.0,0.0,0.0,0.0,0.0,0.0,0.0,0.0,0.0,0.0,0.0,0.0,0.0,0.8146,0.9093,0.9729,0.9506,0.9021,0.893,0.9467,0.8827,0.8245,0.0,0.0,0.0,0.0,0.0,0.0,0.0,0.0,0.0,0.0,0.0,0.0,0.0,0.0,0.0,0.0,0.0,0.0,0.0,0.0,0.0,0.0,0.0,0.0,0.0,0.0,0.0,0.0,0.0,0.0,0.0,0.0,0.0,0.0,0.0,0.0,0.0,0.0,0.0,0.0,0.0,0.0,0.0,0.0,0.0,0.0,0.0,0.0,0.0,0.0,0.0,0.0,0.0,0.0,0.0,0.0,0.0,0.0,0.0,0.0,0.0,0.0,0.0,0.0,0.0,0.0,0.0,0.0,0.0,0.0,0.0,0.0,0.0,0.0,0.0,0.0,0.0,0.0,0.0,0.0,0.0,0.0,0.0,0.0,0.0,0.0,0.0,0.0,0.0,0.0,0.0,0.0,0.0,0.0,0.0,0.0,0.0,0.0,0.0,0.0,0.0,0.0,0.0,0.8256,0.9243,0.9801,0.9455,0.9426,0.9427,0.9486,0.9035,0.849,0.7852,0.0,0.0,0.0,0.0,0.0,0.0,0.0,0.0,0.0,0.0,0.0,0.0,0.0,0.0,0.0,0.0,0.0,0.0,0.0,0.0,0.0,0.0,0.0,0.0,0.0,0.0,0.0,0.0,0.0,0.0,0.0,0.0,0.0,0.0,0.0,0.0,0.0,0.0,0.0,0.0,0.0,0.0,0.0,0.0,0.0,0.0,0.0,0.0,0.0,0.0,0.0,0.0,0.0,0.0,0.0,0.0,0.0,0.0,0.0,0.0,0.0,0.0,0.0,0.0,0.0,0.0,0.0,0.0,0.0,0.0,0.0,0.0,0.0,0.0,0.0,0.0,0.0,0.0,0.0,0.0,0.0,0.0,0.0,0.0,0.0,0.0,0.0,0.0,0.0,0.0,0.0,0.0,0.0,0.0,0.0,0.0,0.0,0.0,0.0,0.0,0.0,0.0,0.8564,0.9593,1.0236,0.9991,0.9931,0.9939,1.0087,0.9707,0.9119,0.8358,0.0,0.0,0.0,0.0,0.0,0.0,0.0,0.0,0.0,0.0,0.0,0.0,0.0,0.0,0.0,0.0,0.0,0.0,0.0,0.0,0.0,0.0,0.0,0.0,0.0,0.0,0.0,0.0,0.0,0.0,0.0,0.0,0.0,0.0,0.0,0.0,0.0,0.0,0.0,0.0,0.0,0.0,0.0,0.0,0.0,0.0,0.0,0.0,0.0,0.0,0.0,0.0,0.0,0.0,0.0,0.0,0.0,0.0,0.0,0.0,0.0,0.0,0.0,0.0,0.0,0.0,0.0,0.0,0.0,0.0,0.0,0.0,0.0,0.0,0.0,0.0,0.0,0.0,0.0,0.0,0.0,0.0,0.0,0.0,0.0,0.0,0.0,0.0,0.0,0.0,0.0,0.0,0.0,0.0,0.0,0.0,0.0,0.0,0.0,0.0,0.0,0.0,0.8968,1.0023,1.0746,1.0718,1.0436,1.0427,1.092,1.0556,0.9982,0.9146,0.0,0.0,0.0,0.0,0.0,0.0,0.0,0.0,0.0,0.0,0.0,0.0,0.0,0.0,0.0,0.0,0.0,0.0,0.0,0.0,0.0,0.0,0.0,0.0,0.0,0.0,0.0,0.0,0.0,0.0,0.0,0.0,0.0,0.0,0.0,0.0,0.0,0.0,0.0,0.0,0.0,0.0,0.0,0.0,0.0,0.0,0.0,0.0,0.0,0.0,0.0,0.0,0.0,0.0,0.0,0.0,0.0,0.0,0.0,0.0,0.9134,0.8448,0.0,0.0,0.0,0.0,0.0,0.0,0.0,0.0,0.0,0.0,0.0,0.0,0.0,0.0,0.0,0.0,0.0,0.0,0.0,0.0,0.0,0.0,0.0,0.0,0.0,0.0,0.0,0.0,0.0,0.0,0.0,0.0,0.0,0.0,0.0,0.0,0.0,0.0,0.0,0.0,0.8699,0.9782,1.0415,1.0057,1.0274,1.047,1.0607,1.051,1.0084,0.9146,0.8762,0.0,0.0,0.0,0.0,0.0,0.0,0.0,0.0,0.0,0.0,0.0,0.0,0.0,0.0,0.0,0.0,0.0,0.0,0.0,0.0,0.0,0.0,0.0,0.0,0.0,0.0,0.0,0.0,0.0,0.0,0.0,0.0,0.0,0.0,0.0,0.0,0.0,0.0,0.0,0.0,0.0,0.0,0.0,0.0,0.0,0.0,0.0,0.0,0.0,0.0,0.0,0.0,0.0,0.0,0.0,0.0,0.0,0.0,0.0,1.0064,0.9464,0.0,0.0,0.0,0.0,0.0,0.0,0.0,0.0,0.0,0.0,0.0,0.0,0.0,0.0,0.0,0.0,0.0,0.0,0.0,0.0,0.0,0.0,0.0,0.0,0.0,0.0,0.0,0.0,0.0,0.0,0.0,0.0,0.0,0.0,0.0,0.0,0.0,0.0,0.0,0.0,0.9308,1.0267,1.0769,1.0472,1.0582,1.0675,1.0598,1.0547,1.021,0.9522,0.914,0.0,0.0,0.0,0.0,0.0,0.0,0.0,0.0,0.0,0.0,0.0,0.0,0.0,0.0,0.0,0.0,0.0,0.0,0.0,0.0,0.0,0.0,0.0,0.0,0.0,0.0,0.0,0.0,0.0,0.0,0.0,0.0,0.0,0.0,0.0,0.0,0.0,0.0,0.0,0.0,0.0,0.0,0.0,0.0,0.0,0.0,0.0,0.0,0.0,0.0,0.0,0.0,0.0,1.0955,1.1293,1.1023,1.0982,1.131,1.1877,1.0904,1.0547,1.0644,1.0064,0.0,0.0,0.0,0.0,0.0,0.0,0.0,0.0,0.0,0.0,0.0,0.0,0.0,0.0,0.0,0.0,0.0,0.0,0.0,0.0,0.0,0.0,0.8664,0.9215,0.9132,0.8707,0.7819,0.0,0.0,0.0,0.0,0.0,0.0,0.0,0.0,0.0,0.0,0.0,1.0158,1.0871,1.1251,1.115,1.1049,1.0922,1.082,1.0693,1.0463,1.0068,0.9707,0.9319,0.0,0.0,0.0,0.0,0.0,0.0,0.0,0.0,0.0,0.0,0.0,0.0,0.0,0.0,0.0,0.0,0.0,0.0,0.0,0.0,0.0,0.0,0.0,0.0,0.0,0.0,0.0,0.0,0.0,0.0,0.0,0.0,0.8725,0.9128,0.0,0.0,0.0,0.0,0.0,0.0,0.0,0.0,0.0,0.0,0.0,0.0,0.0,1.0509,1.1106,1.1261,1.1291,1.1268,1.1761,1.1977,1.1918,1.1913,1.1972,1.207,1.228,0.0,1.0939,1.0838,0.0,0.0,0.0,0.0,0.0,0.0,0.0,0.0,0.0,0.0,0.0,0.0,0.0,0.0,0.0,0.0,0.0,0.0,0.0,0.0,0.0,0.0,0.9784,0.988,0.9692,0.946,0.9317,0.911,0.8837,0.84,0.8369,0.8251,0.0,0.0,0.0,0.0,0.0,0.0,1.0494,1.0998,1.1293,1.1276,1.1251,1.1251,1.1226,1.12,1.103,1.0615,1.0428,1.0149,0.9663,0.9215,0.0,0.0,0.0,0.0,0.0,0.0,0.0,0.0,0.0,0.0,0.0,0.0,0.0,0.0,0.0,0.0,0.0,0.0,0.0,0.0,0.0,0.0,0.0,0.0,0.0,0.0,0.0,0.0,0.0,0.9132,0.9872,0.9662,0.9791,0.9778,0.0,0.0,0.0,0.0,0.0,0.0,0.0,0.0,0.0,1.1159,1.1223,1.1389,1.1724,1.1949,1.2196,1.2449,1.2624,1.2793,1.2939,1.2939,1.2866,1.273,1.2914,1.2693,1.2203,1.1873,1.1317,1.0701,0.0,0.0,0.0,0.0,1.0115,1.0146,1.0669,1.0664,1.0441,1.0191,0.0,0.0,0.0,0.0,0.0,0.0,0.0,1.0004,1.0437,1.0338,1.0295,1.1015,1.0848,1.064,1.0937,1.0735,1.0178,0.9139,0.9234,0.9225,0.8358,0.8562,0.0,0.0,0.0,1.0539,1.1149,1.1535,1.1728,1.1653,1.1578,1.1494,1.1427,1.1352,1.1324,1.1314,1.1094,1.0851,1.0597,1.0204,0.9693,0.0,0.0,0.0,0.0,0.0,0.0,0.0,0.0,0.0,0.0,0.0,0.0,0.0,0.0,0.0,0.0,0.0,0.0,0.0,0.0,0.0,0.0,0.0,0.0,0.0,0.0,0.0,0.0,1.0095,1.0711,1.0228,1.0656,1.0794,0.0,0.0,0.0,0.0,0.0,0.0,1.1677,1.2138,1.2277,1.2042,1.2332,1.2463,1.2439,1.2719,1.306,1.3399,1.3399,1.3566,1.3872,1.3872,1.3765,1.3559,1.3622,1.3563,1.335,1.2679,1.2146,1.1714,1.1116,1.0652,1.0379,1.0754,1.0855,1.0922,1.1558,1.1636,1.1418,1.1108,1.0772,1.0331,0.9745,0.0,0.0,0.0,0.0,1.0785,1.1167,1.0981,1.0939,1.1868,1.1803,1.1619,1.2002,1.1871,1.1259,0.99,0.9958,0.9906,0.8934,0.909,0.0,0.9777,1.0305,1.095,1.1706,1.1977,1.2051,1.1952,1.1852,1.1803,1.1803,1.1728,1.1794,1.2147,1.1885,1.1673,1.1484,1.1202,1.0613,0.9681,0.0,0.0,0.0,0.0,0.0,0.0,0.0,0.0,0.0,0.0,0.0,0.0,0.0,0.0,0.0,0.0,0.0,0.0,0.0,0.0,0.0,0.0,0.0,0.0,0.0,0.0,0.0,0.0,0.0,1.0846,1.1268,0.0,0.0,0.0,0.0,1.1271,1.1827,1.2334,1.2699,1.3167,1.3616,1.4043,1.4075,1.4016,1.3888,1.3909,1.3954,1.3954,1.3954,1.4201,1.4654,1.4654,1.4605,1.4549,1.4799,1.4558,1.3887,1.3022,1.2474,1.2135,1.1778,1.1469,1.1267,1.1544,1.1569,1.1477,1.1645,1.1796,1.1852,1.1703,1.137,1.0986,1.0642,1.0341,0.0,0.0,1.0763,1.115,1.1868,1.2017,1.2017,1.2076,1.2076,1.2076,1.2101,1.2082,1.181,1.099,1.0529,1.0082,0.9385,0.0,0.9842,1.0383,1.0696,1.1177,1.1975,1.2101,1.2101,1.2101,1.2076,1.2224,1.2603,1.2627,1.2764,1.3122,1.2996,1.2707,1.2273,1.2109,1.1598,1.0662,1.0622,0.0,0.0,0.0,0.0,0.0,0.0,0.0,0.0,0.0,0.0,0.0,0.0,0.0,0.0,0.0,0.0,0.0,0.0,0.0,0.0,0.0,0.0,0.0,0.0,0.0,0.0,0.0,0.0,1.1478,1.1863,0.0,1.1701,1.189,1.2141,1.2367,1.314,1.3663,1.3759,1.4248,1.445,1.4281,1.4258,1.4235,1.4177,1.4538,1.4882,1.5226,1.5564,1.592,1.6238,1.6238,1.6139,1.5966,1.5955,1.557,1.4915,1.4265,1.3561,1.2865,1.2476,1.2126,1.1828,1.1927,1.1927,1.1902,1.1952,1.1977,1.2026,1.1977,1.1852,1.1725,1.1603,1.1649,1.1775,1.1724,1.1956,1.2242,1.2339,1.2357,1.2357,1.2357,1.2357,1.2357,1.2357,1.2151,1.1903,1.1602,1.1491,1.1306,1.0813,1.1004,1.1255,1.126,1.1504,1.1818,1.2187,1.215,1.2101,1.2101,1.2323,1.2529,1.2686,1.29,1.318,1.3563,1.3539,1.3427,1.3217,1.3163,1.2546,1.1297,1.1195,1.0794,0.0,0.0,0.0,0.0,0.0,0.0,0.0,0.0,0.0,0.0,0.0,0.0,0.0,0.0,0.0,0.0,0.0,0.0,0.0,0.0,0.0,0.0,0.0,0.0,0.0,1.1322,1.1845,1.1855,1.2491,1.2764,1.2348,1.2793,1.3235,1.3544,1.4283,1.4685,1.4629,1.5074,1.5164,1.4812,1.497,1.5083,1.5083,1.5616,1.6047,1.6407,1.677,1.7114,1.7477,1.7477,1.734,1.7142,1.7002,1.6575,1.5948,1.5545,1.4939,1.4155,1.3224,1.2642,1.2317,1.2457,1.2429,1.2303,1.2303,1.2303,1.2275,1.2147,1.2101,1.2101,1.2101,1.231,1.2542,1.2348,1.252,1.271,1.2546,1.2505,1.2505,1.2505,1.2505,1.2505,1.2505,1.2296,1.2097,1.2097,1.1945,1.1747,1.1486,1.1654,1.1817,1.1766,1.1934,1.21,1.2338,1.2283,1.2298,1.2461,1.2706,1.2997,1.3276,1.3481,1.3752,1.4069,1.408,1.4034,1.3936,1.3772,1.3173,1.2066,1.1806,1.1376,1.0764,0.0,0.0,0.0,0.0,0.0,0.0,0.0,0.0,0.0,0.0,0.0,0.0,0.0,0.0,0.0,0.0,0.0,0.0,0.0,0.0,0.0,0.0,0.0,1.1317,1.167,1.1952,1.2047,1.3231,1.3832,1.3396,1.417,1.4721,1.4721,1.5096,1.5333,1.5333,1.5647,1.5814,1.5814,1.6331,1.6607,1.6607,1.7147,1.7411,1.7436,1.7423,1.7724,1.8229,1.8229,1.8141,1.8027,1.7885,1.7475,1.6932,1.6784,1.6498,1.5922,1.4032,1.3075,1.2812,1.3217,1.3105,1.2733,1.2759,1.2733,1.2652,1.2266,1.2138,1.2138,1.2162,1.2237,1.2345,1.2336,1.2444,1.2543,1.2524,1.2524,1.2514,1.2505,1.2505,1.2505,1.2505,1.2505,1.2505,1.2505,1.1887,1.1347,1.1347,1.1347,1.1468,1.1896,1.194,0.0,1.2496,1.2529,1.2691,1.3166,1.3262,1.36,1.4433,1.4466,1.4534,1.4708,1.4639,1.4546,1.4398,1.3948,1.3456,1.2921,1.2452,1.2193,1.2124,0.0,0.0,0.0,0.0,0.0,0.0,0.0,0.0,0.0,0.0,0.0,0.0,0.0,0.0,0.0,0.0,0.0,0.0,0.0,0.0,0.0,1.1368,1.1562,1.1721,1.2221,1.2798,1.3494,1.3921,1.4227,1.4439,1.4903,1.5209,1.5209,1.568,1.5957,1.5957,1.6035,1.6057,1.5957,1.6478,1.6711,1.6607,1.7507,1.7989,1.7989,1.8374,1.8638,1.877,1.877,1.8744,1.8718,1.8572,1.8145,1.7533,1.7408,1.7035,1.6453,1.5623,1.4952,1.444,1.4563,1.4208,1.3674,1.3873,1.3592,1.313,1.3135,1.3045,1.3009,1.3265,1.3248,1.3231,1.3458,1.3563,1.3522,1.3281,1.3229,1.3152,1.2851,1.2774,1.2774,1.2774,1.2774,1.2774,1.2774,1.2614,1.2401,1.2201,1.2177,1.2359,1.2918,1.2614,1.2676,1.3624,1.3324,1.3179,1.3671,1.4317,1.4634,1.4429,1.5067,1.5358,1.5017,1.4971,1.4767,1.436,1.4159,1.3747,1.3058,1.2832,1.2693,0.0,0.0,0.0,0.0,0.0,0.0,0.0,0.0,0.0,0.0,0.0,0.0,0.0,0.0,0.0,0.0,0.0,0.0,0.0,0.0,0.0,0.0,1.2171,1.2595,1.2893,1.3094,1.3535,1.4469,1.4743,1.4983,1.5266,1.5634,1.5854,1.5854,1.6132,1.6275,1.6275,1.6244,1.6276,1.6396,1.6956,1.73,1.7436,1.8273,1.8685,1.8723,1.896,1.9078,1.9078,1.9025,1.8987,1.8987,1.8919,1.866,1.8296,1.8206,1.7977,1.7594,0.0,0.0,0.0,0.0,1.5349,1.5096,1.4868,1.4503,1.4085,1.375,1.3558,1.3558,1.3747,1.3747,1.3757,1.3936,1.4016,1.4012,1.3812,1.3643,1.3447,1.3203,1.3032,1.2905,1.2905,1.2905,1.2905,1.2905,1.2905,0.0,1.2958,1.2958,1.3142,1.3695,1.3481,1.3481,1.4165,1.3897,1.3836,1.4361,1.4896,1.5157,1.5004,1.5497,0.0,0.0,0.0,1.459,1.4042,1.4183,0.0,0.0,0.0,0.0,0.0,0.0,0.0,0.0,1.3085,1.3162,0.0,0.0,0.0,0.0,0.0,0.0,0.0,0.0,0.0,0.0,0.0,0.0,0.0,0.0,0.0,0.0,1.3232,1.3971,1.4484,1.4202,1.4239,1.5073,1.5557,1.581,1.5876,1.6272,1.65,1.65,1.6436,1.6414,1.6414,1.6297,0.0,0.0,0.0,1.8031,1.8523,1.91,1.9394,1.9394,1.9275,1.9208,1.9208,1.9078,1.9013,1.8987,1.8987,1.8987,1.8987,1.8987,1.8987,1.8864,1.7461,1.6697,1.6386,1.6389,1.6557,1.6662,1.5783,0.0,0.0,1.4278,1.3944,1.3944,1.3962,1.4043,1.4134,1.4162,1.4206,1.4241,1.4192,1.3899,1.3633,1.3525,1.3223,1.2964,1.2915,1.2905,1.2905,1.2905,1.2954,1.3138,1.3597,1.3634,1.3776,1.4305,1.4351,1.434,1.4444,1.4421,1.4581,1.512,1.5234,0.0,1.5765,1.5799,1.5718,1.5547,1.4911,1.4315,1.3778,1.4194,1.4196,1.3705,1.3751,1.3962,1.4399,1.4399,1.4605,1.4982,1.3727,1.3496,0.0,0.0,0.0,0.0,0.0,0.0,0.0,0.0,0.0,0.0,0.0,0.0,0.0,0.0,0.0,1.3851,1.4148,1.4563,1.5409,1.5435,1.546,1.5644,1.5744,1.5942,1.6337,1.6457,1.65,1.65,1.65,1.6479,1.6479,1.6457,1.6464,1.6511,1.7457,1.7967,1.7958,1.8929,1.9394,1.9394,1.9368,0.0,1.9208,1.917,1.9105,1.8987,1.8987,1.8987,1.8987,1.8987,1.8987,1.8948,1.8443,1.8175,1.8107,1.812,1.7768,1.7202,1.6819,1.6282,1.5676,1.5128,1.4849,1.4811,1.5022,1.5032,0.0,1.509,1.5137,1.5059,1.4746,1.46,1.4365,1.3672,1.3447,1.3291,1.2983,1.2905,1.2905,1.2905,1.32,1.361,1.4095,1.3847,1.3918,1.48,1.4582,1.4594,1.5424,1.5176,1.5119,1.5541,1.6021,1.6161,1.574,1.6161,1.6225,1.5772,1.5215,1.4839,1.4659,1.4646,1.4528,1.4338,1.4647,1.4855,1.4948,1.4948,1.4798,1.4543,1.4629,1.4755,0.0,0.0,0.0,0.0,0.0,0.0,0.0,0.0,0.0,0.0,0.0,1.2355,1.2816,0.0,1.3897,1.4629,1.4957,1.5348,1.6049,1.6151,1.6151,1.6151,1.6151,1.6238,1.6479,1.65,1.65,1.65,1.65,1.65,1.65,1.6798,1.7052,1.7282,1.8072,1.8609,1.8797,1.9343,1.9617,1.9617,1.9539,1.9473,1.9394,1.9328,1.9223,1.9105,1.9105,1.9052,1.8987,1.8987,1.8987,1.8987,1.8854,1.8801,1.8801,1.8801,1.8548,1.8104,1.7352,1.6849,1.6397,1.5565,1.5254,1.5225,1.5352,1.5362,1.5313,1.5391,1.541,1.5361,1.5156,1.4941,1.4705,1.4248,1.4212,1.4052,1.3356,1.3601,1.3882,1.3694,1.399,1.4482,1.5017,1.4912,1.4894,1.538,1.521,1.5232,1.5748,1.5592,1.5529,1.5729,1.6017,1.6085,1.5776,1.6017,1.596,1.5432,1.5396,1.5255,1.4961,1.5145,1.5093,1.4768,1.4951,1.5049,1.5049,1.5049,1.5059,1.5114,1.5329,1.5272,0.0,0.0,0.0,0.0,0.0,0.0,0.0,0.0,1.1564,1.1703,1.235,1.2956,1.3197,1.3953,1.4683,1.5223,1.5663,1.6064,1.6457,1.65,1.65,1.65,1.65,1.65,1.65,1.65,1.65,1.65,1.65,1.655,1.6663,1.7137,1.7662,1.8191,1.8719,1.9208,1.9648,1.9748,1.9798,1.9798,1.9682,1.963,1.9617,1.9486,1.9342,1.9208,1.917,1.9105,1.8987,1.8987,1.8987,1.8987,1.8987,1.8987,1.8987,1.8987,1.8987,1.8842,1.7754,1.7313,1.7034,1.5921,1.5497,1.541,1.541,1.541,1.541,1.541,1.541,1.541,1.541,1.5156,1.4893,1.4833,1.4965,1.4861,1.385,1.4346,1.4894,1.4591,1.4861,1.5356,1.5951,1.6123,1.6103,1.5843,1.5792,1.5792,1.5792,1.5792,1.5792,1.5792,1.5792,1.5792,1.5792,1.5792,1.5612,1.5181,1.5552,1.56,1.5181,1.5564,1.56,1.5169,1.5157,1.5157,1.5157,1.5157,1.5432,1.597,1.597,1.5676,1.1809,1.1292,1.1178,1.1944,1.1551,1.1266,0.0,0.0,1.1768,1.2432,1.2705,1.3141,1.4211,1.4692,1.5184,1.5951,1.6269,1.6445,1.65,1.65,1.65,1.65,1.65,1.65,1.65,1.65,1.65,1.65,1.65,1.6735,1.7262,1.7373,1.7662,1.8191,1.8719,1.9033,1.9096,1.9572,1.9798,1.9798,1.9773,1.9734,1.9617,1.9591,1.9447,1.9196,1.9078,1.9013,1.8987,1.8987,1.8987,1.8987,1.8987,1.8987,1.8987,1.8987,1.8987,1.8907,1.8228,1.7644,1.709,1.6415,1.5835,1.541,1.541,1.541,1.541,1.541,1.541,1.541,1.541,1.5381,1.5244,1.4873,1.5235,1.5334,1.4257,1.4532,1.4997,1.4935,1.5354,1.5898,1.6507,1.6951,1.692,1.5948,1.5792,1.5792,1.5792,1.5792,1.5792,1.5792,1.5792,1.5792,1.5792,1.5792,1.5768,1.5708,1.5768,1.5768,1.5708,1.5768,1.5768,1.5708,1.5708,1.5708,1.5708,1.5708,1.5994,1.6511,1.6511,1.6464,1.2534,1.2037,1.1747,0.0,1.184,1.1788,1.2076,1.2295,1.2492,1.2818,1.3382,1.4084,1.4854,1.5378,1.5896,0.0,1.6684,1.6705,1.662,1.662,1.6599,1.65,1.65,1.65,1.65,1.65,1.65,1.65,1.6835,1.7124,1.7398,1.799,1.8418,1.8657,1.9196,1.9472,1.9472,1.9698,1.9798,1.9798,1.9798,1.9773,1.9734,1.9734,1.9565,1.9289,1.9105,1.8987,1.8987,1.8987,1.8987,1.8987,1.8987,1.8987,1.8987,1.8987,1.8987,1.8907,1.8321,1.7699,1.709,1.65,1.5882,1.541,1.541,1.541,1.541,1.541,1.541,1.541,1.541,1.541,1.5448,1.5632,1.62,1.6377,1.5263,1.5827,1.6444,1.6014,1.6373,1.6908,1.7488,1.7744,1.7616,1.6847,1.6475,1.6271,1.6271,1.5984,1.5792,1.5792,1.5792,1.5792,1.5792,1.5792,1.5792,1.5792,1.5792,1.5792,1.5792,1.5792,1.5792,1.5792,1.5792,1.5792,1.5792,1.5792,1.609,1.6607,1.6607,1.6931,1.2679,1.2359,1.2131,1.1953,1.2152,1.2351,1.2277,1.2678,1.3107,1.3181,1.3964,1.474,1.5171,1.5668,1.6166,1.6586,1.662,1.6599,1.6599,1.6568,1.6568,1.6556,1.6543,1.6543,1.6543,1.6522,1.65,1.65,1.7049,1.7473,1.7601,1.8505,1.907,1.9208,1.961,1.9798,1.9798,1.9798,1.9798,1.9798,1.9798,1.9798,1.9798,1.9734,1.9591,1.9394,1.9131,1.8987,1.8987,1.8987,1.8987,1.8987,1.8987,1.8987,1.8987,1.8987,1.8987,1.8934,1.8509,1.7957,1.7368,1.695,1.6386,1.5864,1.569,1.5661,1.5604,1.5439,1.541,1.541,1.541,1.5526,1.5777,1.6226,1.7017,1.7401,1.6438,1.7126,1.7773,1.7223,1.7436,1.787,1.839,1.8485,1.8315,1.7905,1.7375,1.6979,1.6835,1.6355,1.5948,1.5816,1.5792,1.5792,1.5792,1.5792,1.5792,1.5792,1.5792,1.5792,1.5792,1.5792,1.5792,1.5792,1.5792,1.5792,1.5792,1.5936,1.6307,1.6823,1.6967,1.7544,1.1757,1.1734,1.1909,1.2373,1.2531,1.2776,1.3477,1.3476,1.3375,1.363,1.4216,1.4778,1.5062,1.539,1.5702,1.5988,1.5913,1.5957,1.6281,1.6262,1.6331,1.6654,1.6697,1.6697,0.0,1.6577,1.65,1.65,1.7049,1.7637,1.8154,1.8694,1.9233,1.9761,1.9798,1.9798,1.9798,1.9798,1.9798,1.9798,1.9798,1.9798,1.9798,1.9539,1.942,1.9394,1.9131,1.8987,1.8987,1.8987,1.8987,1.8987,1.8987,1.8987,1.8987,1.8987,1.8987,1.8987,1.8987,1.8575,1.8066,1.8038,1.7644,1.7034,1.6443,1.6283,1.614,1.5546,1.541,1.541,1.541,1.5825,1.6312,1.6454,1.7407,1.8131,1.7649,1.8043,1.8459,1.8447,1.8459,1.8617,1.9093,1.9172,1.9119,1.8977,1.8494,1.7965,1.7423,1.6907,1.6379,1.5852,1.5792,1.5792,1.5792,1.5792,1.5792,1.5792,1.5792,1.5792,1.5792,1.5792,1.5792,1.5792,1.5792,1.5792,1.5792,1.6331,1.6847,1.7375,1.7917,1.8446,1.2925,0.0,1.2404,1.3011,1.3117,1.316,1.3498,1.3746,1.3916,1.4007,1.4345,1.4843,1.5556,1.5601,1.5754,1.6348,1.6429,1.638,1.6312,1.6552,1.6748,1.6812,1.674,0.0,0.0,0.0,1.662,1.662,1.7106,1.7614,1.8179,1.8707,1.9246,1.9786,1.9798,1.9798,1.9798,1.9798,1.9798,1.9798,1.9798,1.9798,1.9798,1.9617,1.9486,1.9394,1.9223,1.9078,1.8987,1.8987,1.8987,1.8987,1.8987,1.8987,1.8987,1.8987,1.8987,1.8987,1.8987,1.859,1.8093,1.8093,1.7699,1.7174,1.695,1.6894,1.6866,1.6641,1.6585,1.6585,1.6585,1.681,1.7157,1.7573,1.8147,1.8405,1.7781,1.8294,1.8655,1.8066,1.8363,1.883,1.9263,1.9328,1.9302,1.9143,1.8606,1.8013,1.7459,1.7231,1.6931,1.6403,1.6331,1.6199,1.5828,1.5792,1.5792,1.5792,1.5792,1.5792,1.5792,1.5792,1.5792,1.5792,1.5792,1.5994,1.6331,1.6511,1.7051,1.7941,1.8121,1.8482,1.3224,1.3124,1.2957,1.3399,1.3593,1.3688,1.3744,1.4017,1.4246,1.4199,1.4512,1.4959,1.5579,1.568,1.5809,1.62,1.6284,1.6303,1.6272,1.6466,1.6714,1.6918,1.6867,1.6846,0.0,0.0,0.0,1.6697,1.7317,1.784,1.8191,1.8882,1.9434,1.9798,1.9798,1.9798,1.9798,1.9798,1.9798,1.9798,1.9798,1.9798,1.9798,1.9656,1.9539,1.9394,1.9249,1.9117,1.8987,1.8987,1.8987,1.8987,1.8987,1.8987,1.8987,1.8987,1.8987,1.8987,1.8987,1.8735,1.8429,1.8429,1.8147,1.7781,1.7589,1.7506,1.7479,1.7257,1.7202,1.7202,1.7257,1.749,1.7831,1.8336,1.8738,1.8924,1.854,1.8883,1.9121,1.8551,1.8818,1.9226,1.9434,1.942,1.9342,1.9223,1.8827,1.8353,1.776,1.77,1.7471,1.6943,1.6883,1.6667,1.6139,1.6102,1.5996,1.5804,1.5792,1.5792,1.5792,1.5792,1.5792,1.5792,1.5792,1.6056,1.6607,1.6787,1.7327,1.8205,1.8398,1.8662,1.2743,1.3097,1.354,1.354,1.3988,1.4373,1.4246,1.4303,1.435,1.4246,1.4663,1.5062,0.0,0.0,1.5893,1.5558,1.5614,1.5826,1.6178,1.6132,1.6293,0.0,0.0,0.0,0.0,0.0,0.0,1.6769,1.7584,1.8141,1.8204,1.9171,1.9748,1.9798,1.9798,1.9798,1.9798,1.9798,1.9798,1.9798,1.9798,1.9798,1.9798,1.9656,1.9539,1.9394,1.9275,1.9143,1.9025,1.8987,1.8987,1.9025,1.8987,1.9013,1.9025,1.9025,1.8987,1.9025,1.8987,1.8987,1.8987,1.8987,1.8987,1.8881,1.8321,1.8147,1.8038,1.7451,1.7285,1.7341,1.7462,1.7941,1.8429,1.87,1.9188,1.963,1.9734,1.9773,1.9798,1.9747,1.9773,1.9747,1.9605,1.9474,1.9342,1.9186,1.9184,1.8962,1.8327,1.8241,1.8037,1.7508,1.7423,1.7219,1.6691,1.6643,1.6415,1.5864,1.5828,1.5828,1.5792,1.5792,1.5792,1.5792,1.5816,1.6092,1.6643,1.7171,1.7724,1.8253,1.8758,1.8987,1.3516,1.3767,1.3909,1.4106,1.4297,1.4396,1.435,1.4373,1.4396,1.435,1.4535,1.4742,0.0,0.0,0.0,1.5448,1.6282,0.0,1.6476,1.6714,0.0,1.7136,0.0,1.7044,1.7136,1.7002,0.0,1.7412,1.7134,1.729,1.8154,1.8468,1.8982,1.9773,1.9798,1.9798,1.9798,1.9798,1.9798,1.9798,1.9798,1.9798,1.9798,1.9759,1.9682,1.9539,1.942,1.9275,1.9143,1.9052,1.9052,1.9143,1.9052,1.9131,1.9277,1.9066,1.9052,1.9143,1.9013,1.8987,1.8987,1.8987,1.8987,1.896,1.8827,1.8762,1.8735,1.8575,1.8602,1.8694,1.8721,1.9013,1.9291,1.9357,1.9566,1.9656,1.9265,1.9526,1.9669,1.9265,1.9526,1.966,1.9221,1.9291,1.9285,1.8943,1.9007,1.9004,1.8833,1.8794,1.859,1.8061,1.8001,1.7784,1.7231,1.7195,1.6967,1.6439,1.6403,1.6223,1.5816,1.5792,1.5792,1.5792,1.6199,1.6667,1.7195,1.7724,1.8277,1.8794,1.8927,1.8987,1.3948,1.4033,1.4044,1.4257,1.4326,1.4326,1.4326,1.4326,1.4326,1.4326,1.4373,0.0,1.4167,1.5233,1.5846,0.0,0.0,0.0,1.6215,1.6466,1.6757,0.0,1.6693,0.0,1.6757,1.6825,1.6913,1.7076,1.7242,1.7685,1.8518,1.8781,1.9183,1.9786,1.9798,1.9798,1.9798,1.9798,1.9798,1.9798,1.9798,1.9798,1.9798,1.9798,1.9734,1.9591,1.9473,1.9328,1.9182,1.9052,1.9078,1.9196,1.9117,1.921,1.9394,1.9237,1.921,1.9275,1.921,1.9184,1.9158,1.904,1.9052,1.9078,1.9025,1.8987,1.8987,1.8987,1.9105,1.9208,1.9275,1.9447,1.9617,1.9656,1.9759,1.9721,1.9422,1.9604,1.9695,1.9422,1.9592,1.971,1.9384,1.9418,1.9388,1.9105,1.9068,1.909,1.909,1.909,1.897,1.8668,1.8632,1.8414,1.7871,1.7785,1.7507,1.6979,1.6943,1.6811,1.6511,1.6511,1.6511,1.6511,1.6799,1.7207,1.776,1.8061,1.847,1.8987,1.8987,1.8987,1.4104,1.4099,1.4071,1.415,1.4176,1.4176,1.4176,1.4176,1.4176,1.4176,0.0,1.4059,1.3583,1.4879,1.5568,1.427,0.0,1.6596,1.5773,1.5957,1.6166,1.6166,1.6166,1.6144,1.6144,1.6511,1.6666,1.6433,1.7613,1.8505,1.8871,1.9409,1.9684,1.9695,1.9747,1.9773,1.9695,1.9747,1.9798,1.9798,1.9798,1.9798,1.9798,1.9798,1.9734,1.9604,1.9473,1.9354,1.9249,1.9078,1.9078,1.9223,1.9208,1.9302,1.942,1.942,1.942,1.942,1.942,1.942,1.9394,1.9119,1.9131,1.9196,1.9078,1.9025,1.9025,1.9025,1.9105,1.9249,1.9394,1.9539,1.9656,1.9773,1.9798,1.9798,1.9798,1.9798,1.9798,1.9798,1.9798,1.9773,1.9685,1.9619,1.9514,1.9322,1.9226,1.9208,1.9208,1.917,1.917,1.9208,1.9208,1.9002,1.8504,1.8378,1.811,1.7544,1.752,1.7459,1.7387,1.7387,1.7387,1.7387,1.7459,1.7748,1.8205,1.8277,1.8542,1.8987,1.8987,1.8987,1.3915,1.4152,1.4352,1.4092,1.4033,1.4033,1.4033,1.4033,0.0,0.0,1.4116,1.4059,1.3583,1.4879,1.5626,1.4499,1.5729,1.6617,1.6017,1.5988,1.6044,0.0,1.5944,1.5866,1.5866,1.6281,0.0,0.0,1.7736,1.8174,1.8245,1.8821,1.9131,1.9133,1.9578,1.9604,1.9146,1.9578,1.9798,1.9798,1.9798,1.9798,1.9798,1.9798,1.9798,1.9759,1.9512,1.9447,1.9512,1.9146,1.9131,1.9342,1.9249,1.9342,1.9539,1.9447,1.9473,1.9539,1.9447,1.9473,1.9539,1.9382,1.9342,1.9354,1.9196,1.917,1.917,1.917,1.9275,1.9394,1.9539,1.9656,1.9773,1.9798,1.9798,1.9798,1.9798,1.9798,1.9798,1.9798,1.9798,1.9635,1.907,1.9242,1.9273,1.8818,1.8995,1.9208,1.9208,1.9105,1.9078,1.9182,1.9208,1.9133,1.8907,1.8972,1.8742,1.8097,1.8061,1.7869,1.7436,1.7387,1.7387,1.7387,1.7845,1.8109,1.8205,1.865,1.8903,1.8987,1.8987,1.8987,1.3826,1.3906,1.3997,1.3931,1.3712,1.3522,1.3522,0.0,0.0,0.0,1.3782,1.3861,1.337,1.4508,0.0,1.4205,1.537,1.6148,1.5483,1.5536,0.0,1.539,1.5544,1.5637,0.0,1.6297,1.674,1.6814,1.7401,1.7864,1.8175,1.8408,1.8527,1.8536,1.8792,1.8792,1.8536,1.8792,1.8924,1.8924,1.9226,1.937,1.9396,1.9669,1.9798,1.9798,1.9512,1.9447,1.946,1.9146,1.9131,1.9302,1.9223,1.9368,1.9591,1.9539,1.9591,1.9682,1.963,1.9656,1.9682,1.963,1.9565,1.9473,1.9249,1.9249,1.9302,1.9223,1.9342,1.9512,1.9591,1.9708,1.9798,1.9798,1.9798,1.9798,1.9798,1.9798,1.9798,1.9798,1.9798,1.9672,1.9282,1.9326,1.9308,1.9051,1.9052,1.9158,1.9302,1.9131,1.9052,1.9182,1.9208,1.917,1.9117,1.9105,1.897,1.8626,1.8614,1.8506,1.8241,1.8229,1.8229,1.8229,1.8482,1.8614,1.8614,1.8867,1.8987,1.8987,1.8987,1.8987,1.3768,1.3741,1.3745,1.3771,1.3468,1.3175,1.3071,1.3123,0.0,0.0,1.3439,1.365,1.3179,0.0,1.4607,0.0,1.4867,1.5564,1.4867,1.5074,1.5154,0.0,1.5155,0.0,1.541,1.6265,0.0,1.6514,1.7024,1.755,1.812,1.8051,1.7978,1.7918,1.8038,1.8038,1.7902,1.8038,1.8093,1.8093,1.8575,1.8827,1.8827,1.9253,1.9436,1.9436,1.933,1.9289,1.9316,1.9158,1.9158,1.9302,1.9302,1.942,1.9617,1.963,1.9708,1.9798,1.9798,1.9798,1.9798,1.9798,1.9734,1.9617,1.9368,1.9368,1.942,1.9328,1.9447,1.9617,1.963,1.9734,1.9798,1.9798,1.9798,1.9798,1.9798,1.9798,1.9798,1.9798,1.9798,1.9759,1.9591,1.9473,1.9394,1.9316,1.9158,1.9105,1.9289,1.9158,1.9078,1.9143,1.917,1.9182,1.917,1.909,1.9013,1.8987,1.8987,1.8987,1.8987,1.8987,1.8987,1.8987,1.8987,1.8987,1.8987,1.8987,1.8987,1.8987,1.8987,1.8987,1.3848,1.3921,1.4148,1.3724,1.3589,1.3445,1.302,0.0,0.0,1.301,1.3392,1.365,1.3179,0.0,0.0,0.0,0.0,1.5061,0.0,1.5015,1.5126,1.4682,0.0,0.0,1.5129,1.5993,1.6514,1.6487,1.6836,1.7213,1.7647,1.765,1.7543,1.7302,1.7809,1.7847,1.7285,1.7847,1.8093,1.8093,1.8147,1.8174,1.8174,1.8228,1.8255,1.8282,1.8697,1.8922,1.904,1.9263,1.9434,1.9565,1.9565,1.9591,1.9617,1.9734,1.9798,1.9798,1.9798,1.9798,1.9798,1.9798,1.9798,1.9759,1.9617,1.9565,1.9591,1.9565,1.9591,1.963,1.9759,1.9798,1.9798,1.9798,1.9798,1.9798,1.9798,1.9798,1.9798,1.9798,1.9798,1.9734,1.9473,1.942,1.9316,1.9066,1.9117,1.9143,1.9052,1.9117,1.9143,1.9013,1.9117,1.9143,1.9025,1.9117,1.9117,1.9025,1.8987,1.8987,1.8987,1.8987,1.8987,1.8987,1.8987,1.8987,1.8987,1.8987,1.8987,1.8987,1.8987,1.8987,1.369,1.3745,1.3824,1.3662,1.339,1.3082,1.2627,0.0,1.3049,1.2617,1.3159,1.3606,1.3429,1.3671,1.3839,0.0,0.0,0.0,1.4382,0.0,0.0,1.4499,1.5096,0.0,0.0,0.0,1.6732,1.6127,1.6205,1.6295,1.6384,1.6768,1.6944,1.6832,1.6983,1.6965,1.6712,1.6965,1.7078,1.7078,1.7407,1.7562,1.7562,1.7929,1.8093,1.8093,1.8213,1.8441,1.8721,1.8348,1.8655,1.9316,1.8948,1.9133,1.9617,1.9656,1.9734,1.9798,1.9798,1.9798,1.9798,1.9798,1.9798,1.9773,1.963,1.9656,1.9708,1.9604,1.9656,1.9734,1.9798,1.9798,1.9798,1.9798,1.9798,1.9798,1.9798,1.9798,1.9798,1.9798,1.9734,1.9604,1.942,1.9328,1.9249,1.9143,1.9105,1.909,1.9117,1.9105,1.9052,1.9025,1.9341,1.9522,1.9495,1.9824,1.9887,1.9519,1.9495,1.9351,1.8999,1.8987,1.8987,1.8987,1.8987,1.8987,1.8987,1.8987,1.8987,1.8987,1.8987,1.8987,1.3745,1.3676,1.3597,1.3597,1.3349,1.2979,0.0,1.271,1.2936,1.24,1.2979,1.3545,1.3411,1.3575,1.3721,0.0,0.0,1.4391,1.4462,1.4664,0.0,0.0,0.0,1.5865,1.5996,1.6787,1.6874,1.5887,1.6073,1.6079,1.5682,1.6297,1.6637,1.6599,1.6352,1.6267,1.6413,1.6267,1.6267,1.6413,1.6786,1.6972,1.6972,1.739,1.7611,1.7611,1.7667,1.7886,1.817,1.7776,1.8104,1.8839,1.8414,1.8617,1.9174,1.9344,1.9474,1.9604,1.9747,1.9798,1.9798,1.9798,1.9798,1.9773,1.9682,1.9734,1.9773,1.9682,1.9734,1.9798,1.9798,1.9798,1.9798,1.9798,1.9798,1.9798,1.9798,1.9798,1.9798,1.9798,1.9682,1.9565,1.942,1.9302,1.9182,1.9143,1.9052,1.9013,1.9117,1.9052,1.8987,1.8987,1.9495,1.9808,1.9808,2.0145,2.0205,1.9832,1.9808,1.964,1.9239,1.9227,1.93,1.9468,1.9312,1.9227,1.9227,1.9227,1.9227,1.9227,1.9396,1.9552,1.4093,1.384,1.3597,1.3597,1.361,1.3372,0.0,1.2958,1.3351,1.2473,1.2979,1.3452,1.2998,1.3287,1.3546,1.3348,0.0,0.0,1.5045,1.5495,0.0,0.0,0.0,1.5985,1.6443,1.6972,1.6874,1.5887,1.6721,1.6841,1.5865,1.6444,1.6751,1.6599,1.6029,1.5946,1.6402,1.5929,1.5929,1.6413,1.6413,1.6402,1.6402,1.6402,1.6413,1.6459,1.6972,1.7202,1.7257,1.7847,1.8093,1.812,1.8093,1.812,1.8174,1.8789,1.9013,1.9093,1.963,1.9798,1.9798,1.9798,1.9798,1.9798,1.9798,1.9798,1.9798,1.9798,1.9798,1.9798,1.9798,1.9798,1.9798,1.9798,1.9798,1.9798,1.9798,1.9798,1.9798,1.9798,1.9682,1.9565,1.942,1.9302,1.9143,1.9025,1.8987,1.8987,1.8987,1.8987,1.8987,1.8987,1.9495,1.9808,1.9808,1.982,1.982,1.9808,1.9808,1.9808,1.9796,1.9796,2.0033,2.0557,2.0057,1.9796,1.9796,1.9796,1.9796,1.9808,2.0346,2.0875,1.3667,1.3781,1.3881,1.3669,1.3597,1.3431,1.2855,1.3176,1.3421,1.2834,1.3173,1.3545,1.34,1.3493,1.3672,1.3945,1.4377,0.0,0.0,0.0,0.0,1.5844,1.6083,1.6492,0.0,1.6874,1.6634,1.6302,1.6563,1.6623,1.6291,1.6605,1.6779,1.6751,1.637,1.6257,1.6413,1.6267,1.6267,1.6413,1.6413,1.6413,1.6413,1.6413,1.6413,1.6402,1.6591,1.6825,1.7056,1.6832,1.7224,1.7913,1.7501,1.7655,1.812,1.8321,1.8655,1.9013,1.9198,1.95,1.9798,1.9798,1.9798,1.9798,1.9798,1.9798,1.9798,1.9798,1.9798,1.9798,1.9798,1.9798,1.9798,1.9798,1.9798,1.9798,1.9798,1.9798,1.9773,1.9682,1.9565,1.942,1.9302,1.9158,1.9052,1.9025,1.8987,1.8987,1.8987,1.9338,1.9555,1.9555,2.0021,2.0201,1.9832,2.0129,2.0189,1.9832,2.0141,2.0177,1.982,2.0141,2.043,2.0581,2.0442,2.0346,2.0346,2.0346,2.0346,2.0358,2.0538,2.0899,0.0,1.3718,1.3801,1.3635,1.3597,1.3473,1.3008,1.3256,1.3462,1.2998,1.3266,1.3597,1.3597,1.3597,1.3714,1.4052,1.4289,0.0,0.0,0.0,0.0,1.6393,0.0,0.0,0.0,1.6874,1.6721,1.6535,1.6699,1.6721,1.6498,1.6691,1.6818,1.6818,1.6377,1.6236,1.6413,1.6236,1.6236,1.6413,1.6413,1.6413,1.6413,1.6413,1.6413,1.6413,1.6413,1.6534,0.0,1.6381,1.6666,1.7301,1.6909,1.7039,1.7473,1.7683,1.8147,1.8655,1.8655,1.9028,1.9474,1.924,1.9305,1.95,1.95,1.95,1.95,1.95,1.95,1.954,1.9759,1.9798,1.9798,1.9798,1.9798,1.9798,1.9798,1.9798,1.9759,1.963,1.9486,1.9368,1.9223,1.909,1.8987,1.8987,1.9167,1.9287,1.9287,1.9756,2.0093,2.0093,2.0394,2.0454,2.0133,2.0586,2.0767,2.0418,2.0718,2.0754,2.0406,2.073,2.1007,2.1211,2.099,2.0911,2.0911,2.0911,2.1019,2.1211,2.1211,2.1392,0.0,1.3629,1.346,1.3549,1.3586,1.3483,1.3049,1.3287,0.0,1.3039,1.3297,1.3597,1.3597,1.3597,1.3655,1.3815,1.4,0.0,0.0,1.6168,0.0,0.0,1.7328,0.0,1.6612,1.7005,1.7082,1.6574,1.7005,1.7071,1.6563,1.6729,1.6807,1.6818,1.6116,1.5977,1.6402,1.5977,1.5977,1.6413,1.6413,1.6413,1.6413,1.6413,1.6413,1.6413,1.6413,1.6413,1.6413,1.6413,1.6413,1.6413,1.6413,1.6413,1.6459,1.6972,1.7506,1.8038,1.8038,1.8429,1.8842,1.8294,1.8509,1.8987,1.896,1.8987,1.904,1.904,1.904,1.9172,1.9643,1.9798,1.9798,1.9798,1.9798,1.9798,1.9798,1.9798,1.9759,1.963,1.9486,1.9368,1.9223,1.909,1.8987,1.8987,1.9471,1.9808,1.9808,2.0298,2.067,2.067,2.0682,2.0711,2.0711,2.1091,2.1344,2.1344,2.138,2.1404,2.1404,2.144,2.1692,2.2185,2.1716,2.1464,2.1464,2.1464,2.1716,2.2197,2.2197,2.2197,1.3234,0.0,1.373,1.3511,1.3515,1.3566,0.0,1.3514,1.3566,1.3452,1.3514,1.3597,1.3597,1.3597,1.3758,1.4268,0.0,1.5327,1.6031,1.6716,0.0,1.7781,1.7536,1.7262,1.7114,1.724,1.7262,1.7131,1.724,1.7251,1.7131,1.7024,1.6909,1.6818,1.6532,1.6391,1.6413,1.6299,1.6299,1.6413,1.6413,1.6413,1.6413,1.6413,1.6413,1.6413,1.6413,1.6413,1.6413,1.6413,1.6413,1.6413,1.6413,1.6413,1.6413,1.6534,1.6927,1.7424,1.7424,1.782,1.8282,1.8147,1.8509,1.8907,1.8456,1.8924,1.9604,1.9486,1.9526,1.963,1.963,1.9734,1.9798,1.9798,1.9798,1.9798,1.9798,1.9798,1.9759,1.963,1.9486,1.9368,1.9223,1.909,1.8987,1.8987,1.9471,1.9808,1.9808,2.0622,2.1211,2.1211,2.1572,2.1813,2.1813,2.1199,2.0774,2.0774,2.1187,2.1404,2.1404,2.1789,2.2065,2.2197,2.2077,2.2005,2.2005,2.2005,2.2077,2.2197,2.2197,2.2197,1.3061,1.3332,1.354,1.3433,1.3491,1.3597,1.3597,0.0,0.0,0.0,0.0,0.0,1.3597,1.3597,1.38,0.0,1.4838,0.0,0.0,0.0,1.7453,1.7944,1.7573,1.7306,1.7306,1.7306,1.7306,1.7306,1.7306,1.7306,1.7306,1.7106,1.6937,1.6818,1.6666,1.6524,1.6413,1.6413,1.6413,1.6413,1.6413,1.6413,1.6413,1.6413,1.6413,1.6413,1.6413,1.6413,1.6413,1.6413,1.6413,1.6413,1.6413,1.6413,1.6413,1.6413,1.674,1.7174,1.6927,1.7224,1.7683,1.7683,1.8294,1.8934,1.8602,1.9121,1.9721,1.9396,1.9382,1.9474,1.9656,1.9759,1.9798,1.9798,1.9798,1.9798,1.9798,1.9759,1.9656,1.9539,1.9591,1.9641,1.9507,1.9631,1.9732,1.9732,2.0189,2.0526,2.0526,2.126,2.1765,2.1765,2.2017,2.2197,2.2197,2.1668,2.1344,2.1344,2.1608,2.1765,2.1765,2.2041,2.2197,2.2197,2.2197,2.2197,2.2197,2.2197,2.2197,2.2197,2.2197,2.2197,1.314,1.3252,1.3323,1.3382,1.3491,1.3597,1.3597,0.0,0.0,0.0,0.0,0.0,0.0,1.3672,0.0,0.0,0.0,0.0,1.7092,1.7306,1.7459,1.7846,1.7529,1.7306,1.7306,1.7306,1.7306,1.7306,1.7306,1.7306,1.7306,1.7145,1.6965,1.6818,1.6694,1.6552,1.6413,1.6413,1.6413,1.6413,1.6413,1.6413,1.6413,1.6413,1.6413,1.6413,1.6413,1.6413,1.6413,1.6413,1.6413,1.6413,1.6413,1.6413,1.6413,1.6413,1.6694,1.7017,1.6563,1.674,1.7202,1.7202,1.8011,1.8987,1.8881,1.9239,1.9578,1.9119,1.9066,1.9225,1.9656,1.9773,1.9798,1.9798,1.9798,1.9798,1.9798,1.9744,1.9688,1.957,1.9851,2.0091,1.9956,2.0298,2.0581,2.0581,2.1067,2.1404,2.1404,2.1873,2.2197,2.2197,2.2197,2.2197,2.2197,2.2197,2.2197,2.2197,2.2197,2.2197,2.2197,2.2197,2.2197,2.2197,2.2197,2.2197,2.2197,2.2197,2.2197,2.2197,2.2216,2.2216,1.3471,1.3701,1.3716,1.3463,1.3491,1.3597,1.3597,0.0,0.0,0.0,0.0,0.0,0.0,1.4014,1.4429,0.0,0.0,1.6471,0.0,0.0,1.7339,1.7415,1.735,1.7306,1.7306,1.7306,1.7306,1.7306,1.7306,1.7306,1.7306,1.7278,1.7099,1.6807,1.6779,1.6648,1.6413,1.6413,1.6413,1.6413,1.6413,1.6413,1.6413,1.6413,1.6413,1.6413,1.6413,1.6413,1.6413,1.6413,1.6413,1.6413,1.6413,1.6413,1.6413,1.6413,1.6459,1.6506,1.6441,1.674,1.7202,1.7202,1.8011,1.8907,1.8402,1.8643,1.9119,1.9013,1.9317,1.9682,1.963,1.9708,1.9798,1.9798,1.9798,1.9798,1.9798,2.0044,2.0273,2.0246,2.0484,2.0677,2.0637,2.0607,2.0581,2.0581,2.1067,2.1404,2.1404,2.1873,2.2197,2.2197,2.2197,2.2197,2.2197,2.2197,2.2197,2.2197,2.2197,2.2197,2.2197,2.2197,2.2197,2.2197,2.2197,2.2197,2.2197,2.2197,2.2197,2.2197,2.234,2.2309,1.3298,1.3451,1.3504,1.3412,1.3676,1.3896,1.3648,1.3597,0.0,0.0,0.0,0.0,0.0,0.0,1.5031,1.5532,0.0,1.7005,1.7273,1.7306,1.7306,1.7306,1.7306,1.7306,1.7306,1.7306,1.7306,1.7306,1.7306,1.7306,1.7306,1.7306,1.7183,1.6909,1.6835,1.6705,1.6506,1.6431,1.6413,1.6413,1.6413,1.6413,1.6413,1.6413,1.6413,1.6413,1.6413,1.6413,1.6413,1.6413,1.6413,1.6413,1.6413,1.6413,1.6413,1.6413,1.6413,1.6413,1.6413,1.674,1.7202,1.7202,1.7781,1.8456,1.8174,1.8509,1.8934,1.8602,1.8948,1.9422,1.9656,1.9759,1.9721,1.9448,1.984,2.0184,1.9853,2.0378,2.0856,2.0733,2.099,2.1195,2.1148,2.1301,2.1464,2.1464,2.1668,2.1825,2.1825,2.2041,2.2197,2.2197,2.2197,2.2197,2.2197,2.2197,2.2197,2.2197,2.2197,2.2197,2.2197,2.2197,2.2197,2.2197,2.2197,2.2197,2.2197,2.2197,2.2197,2.2197,2.2247,2.2247,1.3179,1.3302,1.3393,1.3524,0.0,1.4045,1.3669,1.3597,0.0,0.0,0.0,0.0,0.0,1.5206,0.0,1.6488,1.6999,1.7306,1.7306,1.7306,1.7306,1.7306,1.7306,1.7306,1.7306,1.7306,1.7306,1.7306,1.7306,1.7306,1.7306,1.7306,1.7211,1.7011,1.6864,1.6751,1.6599,1.6477,1.6413,1.6413,1.6413,1.6413,1.6413,1.6413,1.6413,1.6413,1.6413,1.6413,1.6413,1.6413,1.6413,1.6413,1.6413,1.6413,1.6413,1.6413,1.6413,1.6413,1.6413,1.674,1.7202,1.7202,1.7667,1.8226,1.7936,1.8239,1.8589,1.8072,1.8304,1.8833,1.9409,1.9568,1.9525,1.9377,2.0027,2.0581,2.0266,2.0874,2.1439,2.1227,2.1523,2.1752,2.1614,2.1921,2.2197,2.2197,2.2197,2.2197,2.2197,2.2197,2.2197,2.2197,2.2197,2.2197,2.2197,2.2197,2.2197,2.2197,2.2197,2.2197,2.2197,2.2197,2.2197,2.2197,2.2197,2.2197,2.2197,2.2197,2.2197,2.2197,2.2216,2.2216,1.3511,1.3751,1.3882,1.4027,1.3854,1.3638,1.3597,1.3597,0.0,1.3638,0.0,0.0,0.0,1.5519,1.651,1.7136,1.7284,1.7306,1.7306,1.7306,1.7306,1.7306,1.7306,1.7306,1.7306,1.7306,1.7306,1.7306,1.7306,1.7306,1.7306,1.7306,1.7211,1.7011,1.6864,1.6751,1.6599,1.6477,1.6413,1.6413,1.6413,1.6413,1.6413,1.6413,1.6413,1.6413,1.6413,1.6413,1.6413,1.6413,1.6413,1.6413,1.6413,1.6413,1.6413,1.6413,1.6413,1.6413,1.6413,1.674,1.7202,1.7202,1.7902,1.8544,1.7422,1.7398,1.7756,1.752,1.7618,1.7959,1.8691,1.8861,1.9129,2.0134,2.0461,2.0657,2.1263,2.1727,2.1968,2.178,2.2085,2.231,2.2168,2.2161,2.2197,2.2197,2.2197,2.2197,2.2197,2.2197,2.2197,2.2197,2.2197,2.2197,2.2197,2.2197,2.2197,2.2197,2.2197,2.2197,2.2197,2.2197,2.2197,2.2197,2.2197,2.2197,2.2197,2.2197,2.2197,2.2197,2.2328,2.234,1.315,1.3541,1.3837,1.3589,1.3781,0.0,0.0,1.3838,1.4152,1.4522,1.4976,0.0,0.0,0.0,1.69,1.7245,1.7306,1.7306,1.7306,1.7306,1.7306,1.7306,1.7306,1.7306,1.7306,1.7306,1.7306,1.7306,1.7306,1.7306,1.7306,1.7306,1.7278,1.7183,1.6931,1.6779,1.6722,1.6516,1.6413,1.6413,1.6413,1.6413,1.6413,1.6413,1.6413,1.6413,1.6413,1.6413,1.6413,1.6413,1.6413,1.6405,1.6684,1.6758,1.68,1.7089,1.7222,1.7222,1.7222,1.7134,1.7119,1.7425,1.7525,1.7539,1.7369,1.7606,1.7843,1.7409,1.7612,1.8113,1.8865,1.9129,1.9349,1.9837,2.0158,2.0451,2.0748,2.1079,2.1384,2.1641,2.1727,2.1882,2.2154,2.2197,2.2197,2.2197,2.2197,2.2197,2.2197,2.2197,2.2197,2.2197,2.2486,2.271,2.271,2.271,2.271,2.271,2.2378,2.2197,2.2197,2.2197,2.2197,2.2197,2.2197,2.2197,2.2197,2.2197,2.2197,2.2197,2.2247,2.2247,1.2993,1.3432,1.3821,1.3559,0.0,0.0,1.4055,1.4179,1.4422,1.4902,1.5553,1.626,1.6897,0.0,0.0,1.7278,1.7306,1.7306,1.7306,1.7306,1.7306,1.7306,1.7306,1.7306,1.7306,1.7306,1.7306,1.7306,1.7306,1.7306,1.7306,1.7306,1.7306,1.7306,1.7004,1.6835,1.6818,1.6563,1.6431,1.6413,1.6413,1.6413,1.6413,1.6413,1.6413,1.6413,1.6413,1.6413,1.6413,1.6413,1.6467,1.6622,1.6893,1.7099,1.7265,1.7585,1.7699,1.7699,1.7699,1.7492,1.7285,1.7534,1.7451,1.7216,1.7327,1.7615,1.7843,1.7401,1.7602,1.8114,1.8802,1.9034,1.9171,1.9651,1.9986,2.0296,2.0472,2.0848,2.1215,2.1491,2.1639,2.1819,2.2154,2.2197,2.2197,2.2197,2.2197,2.2197,2.2197,2.2197,2.2258,2.2426,2.2763,2.3011,2.3011,2.2823,2.2758,2.2758,2.239,2.2197,2.2197,2.2197,2.2197,2.2197,2.2197,2.2197,2.2197,2.2197,2.2197,2.2197,2.2197,2.2197,1.317,1.3501,1.3922,1.4053,0.0,0.0,1.478,1.4645,1.4349,1.4485,1.5519,1.6515,1.6925,1.7172,0.0,1.7306,1.7306,1.7306,1.7306,1.7306,1.7306,1.7306,1.7306,1.7306,1.7306,1.7306,1.7306,1.7306,1.7306,1.7306,1.7306,1.7306,1.7306,1.7306,1.7106,1.6937,1.6818,1.6666,1.6524,1.6413,1.6413,1.6413,1.6413,1.6413,1.6413,1.6413,1.6413,1.6413,1.6413,1.6413,1.6643,1.7017,1.6987,1.7296,1.7709,1.7709,1.7709,1.7719,1.7709,1.7709,1.7678,1.7554,1.7777,1.7956,1.7236,1.7278,1.7592,1.7448,1.7504,1.7747,1.8328,1.8317,1.8431,1.9792,2.0096,2.0226,2.0696,2.1342,2.1784,2.1451,2.1932,2.2359,2.2216,2.2197,2.2197,2.2197,2.2197,2.2197,2.2197,2.2197,2.2402,2.2919,2.3011,2.2991,2.2991,2.251,2.2209,2.2209,2.2209,2.2197,2.2197,2.2197,2.2197,2.2197,2.2197,2.2197,2.2197,2.2197,2.2197,2.2197,2.2197,2.2197,1.2993,1.3432,0.0,1.3549,0.0,0.0,0.0,1.4656,0.0,0.0,1.6475,1.6911,1.7179,1.7267,1.7306,1.7306,1.7306,1.7306,1.7306,1.7306,1.7306,1.7306,1.7306,1.7306,1.7306,1.7306,1.7306,1.7306,1.7306,1.7306,1.7306,1.7306,1.7306,1.7306,1.7106,1.6937,1.6818,1.6751,1.662,1.6413,1.6506,1.6477,1.6413,1.6413,1.6413,1.6413,1.6413,1.6413,1.6413,1.6413,1.6643,1.7048,1.7368,1.7771,1.8185,1.8185,1.8392,1.863,1.8299,1.81,1.8023,1.8308,1.8124,1.7775,1.7899,1.7915,1.788,1.7822,1.7856,1.7976,1.8385,1.8382,1.8568,1.9803,1.9748,1.9518,1.9987,2.0193,2.0366,2.0645,2.1135,2.1651,2.2123,2.2197,2.2197,2.2197,2.2197,2.2197,2.2197,2.2197,2.2402,2.2919,2.3011,2.328,2.4001,2.3256,2.3063,2.3785,2.3147,2.2582,2.2209,2.2197,2.2197,2.2197,2.2197,2.2197,2.2197,2.2197,2.2197,2.2197,2.2197,2.2197,1.3032,1.3591,0.0,1.3972,1.4445,1.4976,1.4883,0.0,0.0,0.0,1.692,1.7067,1.7267,1.7306,1.7306,1.7306,1.7306,1.7306,1.7306,1.7306,1.7306,1.7306,1.7306,1.7306,1.7306,1.7306,1.7306,1.7306,1.7306,1.7306,1.7306,1.7306,1.7306,1.7306,1.7172,1.705,1.6881,1.6835,1.6705,1.6477,1.6506,1.6477,1.6413,1.6413,1.6413,1.6413,1.6413,1.6413,1.6413,1.6413,1.6643,1.7037,1.7316,1.7833,1.8414,1.8414,1.8704,1.9067,1.8787,1.8553,1.8408,1.8626,1.8325,1.7922,1.8123,1.811,1.8008,1.8008,1.8008,1.8076,1.8347,1.8371,1.8529,1.9485,1.9264,1.8942,1.922,1.9396,1.9551,1.9802,2.0505,2.123,2.1694,2.203,2.2197,2.2197,2.2197,2.2197,2.2197,2.2558,2.2975,2.3288,2.3324,2.3628,2.4412,2.358,2.334,2.4169,2.364,2.318,2.2867,2.2618,2.251,2.251,2.2306,2.2197,2.2197,2.2197,2.2197,2.2197,2.2197,2.2197,1.3282,1.3872,0.0,1.4898,1.5054,0.0,1.5676,1.5896,1.6204,1.6705,0.0,1.7043,1.725,1.7306,1.7306,1.7306,1.7306,1.7306,1.7306,1.7306,1.7306,1.7306,1.7306,1.7306,1.7306,1.7306,1.7306,1.7306,1.7306,1.7306,1.7306,1.7306,1.7306,1.7306,1.7306,1.72,1.7011,1.6881,1.6751,1.6599,1.6477,1.6402,1.6413,1.6413,1.6413,1.6413,1.6413,1.6413,1.6413,1.6413,1.6643,1.7017,1.7017,1.7554,1.8403,1.8362,1.8673,1.9098,1.9023,1.8911,1.8741,1.8549,1.8381,1.8236,1.8076,1.8008,1.8008,1.8008,1.8008,1.8042,1.8236,1.8303,1.8405,1.8942,1.8774,1.8516,1.8516,1.8921,1.9276,1.9144,2.0182,2.1135,2.1198,2.1757,2.2197,2.2197,2.2197,2.2209,2.2258,2.3099,2.377,2.3866,2.383,2.3989,2.4542,2.364,2.3324,2.3914,2.389,2.389,2.3938,2.3348,2.3011,2.3011,2.2462,2.2209,2.2258,2.2258,2.2258,2.2258,2.2258,2.2258,1.3501,1.3826,0.0,0.0,1.5521,1.6181,1.6227,1.6714,1.7098,1.6846,1.6832,1.6929,1.7239,1.7306,1.7306,1.7306,1.7306,1.7306,1.7306,1.7306,1.7306,1.7306,1.7306,1.7306,1.7306,1.7306,1.7306,1.7306,1.7306,1.7306,1.7306,1.7306,1.7306,1.7306,1.7306,1.72,1.7011,1.6983,1.6853,1.6599,1.6581,1.6506,1.6413,1.6413,1.6413,1.6413,1.6413,1.6413,1.6413,1.6413,1.6643,1.7017,1.7017,1.7554,1.8372,1.7999,1.8382,1.9013,1.8498,1.8413,1.8549,1.8371,1.8212,1.8076,1.8008,1.8008,1.8008,1.8008,1.8008,1.8042,1.8236,1.8178,1.8212,1.8741,1.8674,1.8516,1.8516,1.8921,1.9398,1.9802,2.0549,2.1293,2.1851,2.2092,2.2197,2.2197,2.2197,2.2342,2.2763,2.3047,2.346,2.4278,2.4001,2.4167,2.5059,2.4194,2.3989,2.4915,2.459,2.4542,2.4963,2.3688,2.3011,2.3011,2.2462,2.2402,2.2843,2.2843,2.2843,2.2843,2.2843,2.2843,1.3609,0.0,0.0,1.5399,0.0,1.6836,1.6789,1.729,1.776,1.7645,1.7307,1.7174,1.7595,1.7534,1.7379,1.7306,1.7306,1.7306,1.7306,1.7306,1.7306,1.7306,1.7306,1.7306,1.7306,1.7306,1.7306,1.7306,1.7306,1.7306,1.7306,1.7306,1.7306,1.7306,1.7306,1.7239,1.7145,1.7039,1.6927,1.6797,1.6655,1.6524,1.6413,1.6413,1.6413,1.6413,1.6413,1.6413,1.6413,1.6413,1.6519,1.6717,1.6924,1.743,1.8071,1.805,1.8485,1.9034,1.8598,1.8448,1.8482,1.8337,1.8168,1.8008,1.8008,1.8008,1.8008,1.8008,1.8008,1.8008,1.8144,1.8076,1.8076,1.8472,1.8414,1.8313,1.8482,1.8596,1.8754,1.9054,1.9639,2.0215,2.0613,2.123,2.1663,2.1663,2.2202,2.2666,2.2943,2.3412,2.3929,2.4424,2.429,2.4446,2.524,2.459,2.447,2.5264,2.5047,2.5023,2.53,2.429,2.3725,2.3725,2.3207,2.3119,2.3396,2.3396,2.3396,2.3396,2.3396,2.3396,1.3669,0.0,1.5663,1.6363,1.7039,0.0,1.7368,1.7836,1.8363,1.8578,1.7952,1.7545,1.8002,1.7854,1.7579,1.7468,1.7451,1.7462,1.7434,1.7379,1.7334,1.7306,1.7306,1.7306,1.7306,1.7306,1.7306,1.7306,1.7306,1.7306,1.7306,1.7306,1.7306,1.7306,1.7306,1.7306,1.7306,1.7106,1.7011,1.7011,1.674,1.6524,1.6413,1.6413,1.6413,1.6413,1.6413,1.6413,1.6413,1.6413,1.6413,1.6454,1.6841,1.7296,1.775,1.8216,1.8704,1.9075,1.8841,1.865,1.8482,1.8313,1.8144,1.8008,1.8008,1.8008,1.8008,1.8008,1.8008,1.8008,1.8008,1.8008,1.8042,1.8236,1.8144,1.8076,1.8414,1.8212,1.8042,1.8134,1.8821,1.9365,1.9365,2.0508,2.1421,2.1421,2.24,2.318,2.3232,2.3989,2.4554,2.465,2.465,2.4831,2.5264,2.4903,2.4843,2.5276,2.5312,2.5312,2.5312,2.4856,2.465,2.465,2.4073,2.3842,2.3926,2.3926,2.3926,2.3926,2.3926,2.3926,0.0,0.0,1.6402,0.0,1.7929,1.8629,0.0,0.0,1.9069,0.0,1.8414,1.7888,1.8056,1.8141,1.8147,1.8008,1.8108,1.8116,1.7995,1.7678,1.7423,1.7306,1.7306,1.7306,1.7306,1.7306,1.7306,1.7306,1.7306,1.7306,1.7306,1.7306,1.7306,1.7306,1.7306,1.7306,1.7306,1.7106,1.7011,1.7011,1.674,1.6524,1.6413,1.6413,1.6413,1.6413,1.6413,1.6413,1.6413,1.6413,1.6413,1.6454,1.6841,1.7296,1.775,1.8216,1.8704,1.9042,1.8684,1.8516,1.8448,1.8144,1.8008,1.8008,1.8008,1.8008,1.8008,1.8008,1.8008,1.8008,1.8008,1.8008,1.8042,1.8236,1.8144,1.8076,1.8269,1.8144,1.8168,1.8754,1.9922,2.0805,2.0805,2.19,2.2743,2.2743,2.3295,2.3821,2.4266,2.4434,2.4699,2.5155,2.5204,2.5228,2.53,2.524,2.5228,2.53,2.5312,2.5312,2.5312,2.524,2.5204,2.5204,2.43,2.3989,2.4422,2.4422,2.4422,2.4422,2.4422,2.4422,1.4261,1.51,1.5983,0.0,1.7793,1.8509,1.859,1.9095,1.9552,1.963,1.916,1.8786,1.8926,1.881,1.859,1.8259,1.8255,1.817,1.7804,1.7606,1.7451,1.7334,1.7306,1.7306,1.7306,1.7306,1.7306,1.7306,1.7306,1.7306,1.7306,1.7306,1.7306,1.7306,1.7306,1.7306,1.7306,1.7211,1.706,1.6881,1.6779,1.6591,1.6413,1.6413,1.6413,1.6413,1.6413,1.6413,1.6413,1.6413,1.6529,1.6769,1.7223,1.7668,1.8154,1.8631,1.8922,1.9075,1.8774,1.8583,1.8448,1.8245,1.8076,1.8008,1.8008,1.8008,1.8008,1.8008,1.8008,1.8066,1.8266,1.8325,1.8418,1.8768,1.8605,1.8428,1.8778,1.8419,1.8144,1.867,1.9863,2.0758,2.0758,2.1923,2.2817,2.2817,2.3611,2.4278,2.446,2.4748,2.5047,2.5288,2.5312,2.5312,2.5312,2.5312,2.5312,2.5312,2.5312,2.5312,2.5312,2.5312,2.5312,2.5312,2.4867,2.4747,2.4963,2.4963,2.4963,2.4963,2.4963,2.4963,0.0,0.0,1.5473,1.6872,1.7664,1.8292,0.0,0.0,2.0013,1.9952,1.9833,1.9662,1.9532,1.9336,1.9093,1.8682,1.8602,1.8414,1.7963,1.7689,1.7479,1.7334,1.7306,1.7306,1.7306,1.7306,1.7306,1.7306,1.7306,1.7306,1.7306,1.7306,1.7306,1.7306,1.7306,1.7306,1.7306,1.7239,1.7088,1.6864,1.6779,1.6637,1.6459,1.6431,1.6413,1.6413,1.6413,1.6446,1.655,1.655,1.6808,1.7234,1.7688,1.8092,1.8465,1.8932,1.9108,1.9075,1.8875,1.8684,1.8482,1.8371,1.8245,1.8076,1.8076,1.8076,1.8105,1.8144,1.813,1.8208,1.852,1.8598,1.8685,1.9043,1.8831,1.8695,1.9053,1.8711,1.8428,1.8705,1.9687,2.0446,2.0446,2.18,2.2891,2.2891,2.3929,2.4723,2.4723,2.5059,2.5312,2.5312,2.5312,2.5312,2.5312,2.5312,2.5312,2.5312,2.5312,2.5312,2.5312,2.5312,2.5312,2.5312,2.5312,2.5312,2.5312,2.5312,2.5312,2.5312,2.5312,2.5312,0.0,1.4834,0.0,1.7301,1.799,0.0,0.0,0.0,2.049,1.9924,2.0238,2.0327,1.9396,1.951,1.9695,1.9552,1.9434,1.9237,1.896,1.8209,1.7601,1.7334,1.7306,1.7306,1.7306,1.7306,1.7306,1.7306,1.7306,1.7306,1.7306,1.7306,1.7306,1.7306,1.7306,1.7306,1.7306,1.7106,1.7011,1.6983,1.674,1.6599,1.6581,1.6459,1.6413,1.6413,1.6413,1.6622,1.6975,1.6975,1.7254,1.7709,1.8175,1.8393,1.8465,1.8932,1.9108,1.9075,1.8875,1.8684,1.8516,1.8482,1.8414,1.8269,1.8269,1.8269,1.8325,1.8521,1.8568,1.8568,1.8598,1.8598,1.8607,1.8627,1.8617,1.8607,1.8627,1.8965,1.9228,1.9248,1.9827,2.0318,2.0318,2.2004,2.3351,2.3351,2.4425,2.5264,2.5264,2.5288,2.5312,2.5312,2.5312,2.5312,2.5312,2.5312,2.5312,2.5312,2.5312,2.5312,2.5312,2.5312,2.5312,2.5312,2.5312,2.5312,2.5312,2.5312,2.5312,2.5312,2.5312,2.5312,0.0,0.0,0.0,1.5955,1.7081,1.809,1.8611,1.9441,2.0049,1.9849,1.9962,2.0013,1.9648,1.9497,1.9359,1.9233,1.9183,1.9054,1.878,1.8371,1.7909,1.7479,1.7351,1.7306,1.7306,1.7306,1.7306,1.7306,1.7306,1.7306,1.7306,1.7306,1.7306,1.7306,1.7306,1.7306,1.7306,1.7239,1.7145,1.7011,1.6825,1.6853,1.704,1.6595,1.6539,1.6779,1.6779,1.6872,1.7007,1.7337,1.7719,1.8164,1.8319,1.859,1.888,1.9046,1.9108,1.9108,1.9008,1.8875,1.8674,1.8674,1.8775,1.8818,1.8528,1.8769,1.9082,1.8848,1.8703,1.8724,1.928,1.9258,1.9121,1.9358,1.9668,1.9795,1.9512,1.958,1.9697,1.9697,2.0528,2.1269,2.1269,2.233,2.3145,2.3145,2.3545,2.3975,2.4456,2.4528,2.4743,2.5229,2.5312,2.5312,2.5312,2.5312,2.5312,2.5312,2.5312,2.5312,2.5312,2.5312,2.5312,2.5312,2.5312,2.5312,2.5312,2.5312,2.5312,2.5312,2.5312,2.5312,1.3506,0.0,0.0,0.0,0.0,1.7209,1.81,1.9052,1.9763,1.9784,1.9962,1.9987,1.961,1.9309,1.9106,1.9069,1.8982,1.8808,1.8479,1.8324,1.8061,1.7551,1.7379,1.7306,1.7306,1.7306,1.7306,1.7306,1.7306,1.7306,1.7306,1.7306,1.7306,1.7306,1.7306,1.7306,1.7306,1.7239,1.7172,1.7106,1.6995,1.7096,1.7362,1.699,1.6965,1.7254,1.7399,1.7378,1.7275,1.773,1.8206,1.8642,1.8642,1.8839,1.9108,1.9108,1.9108,1.9108,1.9108,1.8975,1.8808,1.8875,1.908,1.9233,1.8861,1.9179,1.9657,1.9318,1.9134,1.9163,1.9766,1.9707,1.957,1.9844,2.0244,2.0527,2.0195,2.0127,2.0127,2.0127,2.0811,2.1385,2.1385,2.2059,2.2585,2.2585,2.3021,2.3537,2.4047,2.4337,2.4707,2.5229,2.5312,2.5312,2.5312,2.5312,2.5312,2.5312,2.5312,2.5312,2.5312,2.5312,2.5312,2.5312,2.5312,2.5312,2.5312,2.5312,2.5347,2.5382,2.5382,2.5453,0.0,0.0,0.0,0.0,0.0,0.0,1.8087,0.0,1.9567,1.9717,2.0238,2.0288,1.9221,1.9008,1.9045,1.9168,1.897,1.8622,1.8195,1.8105,1.7945,1.7551,1.7379,1.7306,1.7306,1.7306,1.7306,1.7306,1.7306,1.7306,1.7306,1.7306,1.7306,1.7306,1.7306,1.7306,1.7306,1.7106,1.7106,1.7306,1.7286,1.7372,1.7533,1.7655,1.7709,1.775,1.8195,1.8143,1.775,1.8226,1.8694,1.9108,1.9108,1.9108,1.9108,1.9108,1.9108,1.9108,1.9108,1.8975,1.8841,1.9042,1.9294,1.9477,1.9258,1.9555,1.9945,1.9917,1.9912,1.9912,1.9912,1.9922,1.9932,1.9932,2.0254,2.0605,2.0605,2.0605,2.0605,2.0605,2.0605,2.0605,2.0605,2.1242,2.1766,2.1794,2.3084,2.4047,2.4072,2.4791,2.5276,2.5312,2.5312,2.5312,2.5312,2.5312,2.5312,2.5312,2.5312,2.5312,2.5312,2.5312,2.5312,2.5312,2.5312,2.5312,2.5312,2.5312,2.5418,2.5606,2.5618,2.5828,1.3135,0.0,0.0,0.0,0.0,0.0,0.0,0.0,1.7658,1.878,1.8979,1.9102,1.9496,1.9259,1.9008,1.9045,1.8754,1.8519,1.861,1.8136,1.7823,1.7781,1.7374,1.7078,1.7078,1.7211,1.7306,1.7306,1.7306,1.7306,1.7306,1.7306,1.7306,1.7306,1.7306,1.7306,1.7306,1.7239,1.7239,1.7306,1.7413,1.7641,1.8011,1.7801,1.7905,1.8206,1.833,1.8341,1.8237,1.8725,1.8984,1.9108,1.9108,1.9108,1.9108,1.9108,1.9108,1.9108,1.9108,1.9065,1.9042,1.9065,1.9466,1.9864,1.9524,1.9978,2.0538,2.0216,1.9997,1.9912,1.9912,2.0146,2.0429,2.0429,2.0517,2.0605,2.0605,2.0605,2.0605,2.0605,2.0605,2.0605,2.0605,2.0789,2.1126,2.1728,2.2172,2.2835,2.3963,2.4301,2.4636,2.5229,2.5312,2.5312,2.5312,2.5312,2.5312,2.5312,2.5312,2.5312,2.5312,2.5312,2.5312,2.5312,2.5312,2.5382,2.5535,2.5535,2.5535,2.5606,2.5758,2.5945,1.3262,0.0,0.0,0.0,0.0,0.0,1.5425,1.5927,1.6759,1.8408,1.8616,1.8782,1.9647,1.9547,1.9259,1.9045,1.8805,1.868,1.871,1.8271,1.7943,1.7891,1.7318,1.6937,1.6983,1.7106,1.7211,1.7306,1.7306,1.7306,1.7306,1.7306,1.7306,1.7306,1.7306,1.7306,1.7306,1.7306,1.7267,1.7183,1.7413,1.7705,1.8069,1.801,1.8247,1.8704,1.8704,1.8704,1.8714,1.8994,1.9108,1.9108,1.9108,1.9108,1.9108,1.9108,1.9108,1.9108,1.9108,1.9108,1.9108,1.9108,1.9548,2.0022,1.9707,2.0216,2.0818,2.0465,2.0272,2.0185,2.0185,2.0371,2.0605,2.0605,2.0605,2.0605,2.0605,2.0605,2.0605,2.0605,2.0605,2.0605,2.0605,2.0605,2.0867,2.169,2.2096,2.2723,2.3927,2.4373,2.4791,2.5229,2.5312,2.5312,2.5312,2.5312,2.5312,2.5312,2.5312,2.5312,2.5312,2.5312,2.5312,2.5312,2.5312,2.543,2.5723,2.5641,2.5688,2.5875,2.605,2.6223,1.3545,1.4036,0.0,1.4152,1.4092,0.0,1.5535,1.5803,1.6325,1.8111,1.846,1.8645,1.9428,1.9504,1.9342,1.8945,1.8884,1.8809,1.8672,1.8434,1.8182,1.7941,1.7301,1.6892,1.6955,1.6983,1.7078,1.7239,1.7306,1.7306,1.7306,1.7306,1.7306,1.7306,1.7306,1.7306,1.7306,1.7306,1.7233,1.7086,1.7429,1.7719,1.7978,1.8311,1.8714,1.9108,1.9108,1.9108,1.9108,1.9108,1.9108,1.9108,1.9108,1.9108,1.9108,1.9108,1.9108,1.9108,1.9108,1.9108,1.9108,1.9127,1.9589,2.0083,1.9881,2.0354,2.0867,2.0654,2.0605,2.0605,2.0605,2.0605,2.0605,2.0605,2.0605,2.0605,2.0605,2.0605,2.0605,2.0605,2.0605,2.0605,2.0605,2.0673,2.0982,2.169,2.2462,2.3279,2.4011,2.4707,2.5194,2.5276,2.5312,2.5312,2.5312,2.5312,2.5312,2.5312,2.5312,2.5312,2.5312,2.5312,2.5312,2.5312,2.5347,2.5535,2.5945,2.5758,2.5863,2.6236,2.643,2.6499,1.3052,1.3155,1.3362,1.3622,1.3676,0.0,1.4412,1.4594,1.4985,1.6212,1.6258,1.6465,1.779,1.7763,1.7682,1.8047,1.8111,1.8296,1.8846,1.8481,1.8118,1.8074,1.765,1.719,1.6712,1.687,1.7011,1.7078,1.7211,1.7306,1.7306,1.7306,1.7306,1.7306,1.7306,1.7306,1.7306,1.7306,1.7407,1.7564,1.789,1.8205,1.8459,1.8821,1.9015,1.9108,1.9108,1.9108,1.9108,1.9108,1.9108,1.9108,1.9108,1.9108,1.9108,1.9108,1.9108,1.9108,1.9108,1.9108,1.9137,1.9339,1.9716,2.0108,2.0115,2.049,2.0867,2.0654,2.0605,2.0605,2.0605,2.0605,2.0605,2.0605,2.0605,2.0605,2.0605,2.0605,2.0605,2.0605,2.0605,2.0605,2.0605,2.1126,2.1614,2.1766,2.2462,2.3279,2.4011,2.4228,2.4564,2.5241,2.5312,2.5312,2.5312,2.5312,2.5312,2.5312,2.5312,2.5312,2.5312,2.5312,2.5312,2.5312,2.5606,2.591,2.6131,2.6097,2.6201,2.643,2.6499,2.6499,1.3252,1.3358,1.3596,1.3816,1.387,0.0,0.0,1.4432,1.4633,1.5763,1.5875,1.6006,1.686,1.7037,1.714,1.7421,1.7757,1.803,1.808,1.8093,1.8112,1.8113,1.7673,1.7262,1.7078,1.6909,1.6842,1.6983,1.7183,1.7306,1.7306,1.7306,1.7306,1.7306,1.7306,1.7306,1.7306,1.7518,1.7524,1.7245,1.7901,1.8174,1.8176,1.8559,1.888,1.9108,1.9108,1.9108,1.9108,1.9108,1.9108,1.9108,1.9108,1.9108,1.9108,1.9108,1.9253,1.9419,1.9181,1.9365,1.9748,1.9654,2.0012,2.0459,2.0359,2.0549,2.0731,2.0644,2.0605,2.0605,2.0605,2.0605,2.0605,2.0605,2.0605,2.0605,2.0605,2.0605,2.0605,2.0605,2.0605,2.0605,2.0605,2.0944,2.1461,2.2285,2.2734,2.339,2.4564,2.4707,2.4862,2.5276,2.5312,2.5312,2.5312,2.5312,2.5312,2.5312,2.5312,2.5312,2.5312,2.5312,2.5347,2.5453,2.5828,2.6062,2.6062,2.6258,2.6396,2.6499,2.6499,2.6499,1.385,1.4074,1.4353,1.4292,1.4435,1.4631,0.0,0.0,0.0,1.5691,1.5879,1.5968,0.0,1.6421,1.6562,1.6614,1.7054,1.725,1.6901,1.7352,1.7745,1.7788,1.753,1.7352,1.7301,1.6806,1.6606,1.6955,1.7058,1.7169,1.7239,1.7278,1.7306,1.7306,1.7306,1.7306,1.7306,1.7671,1.7615,1.7066,1.7839,1.8112,1.7967,1.835,1.8745,1.9108,1.9108,1.9108,1.9108,1.9108,1.9108,1.9108,1.9108,1.9108,1.9108,1.9108,1.9399,1.9741,1.9367,1.9737,2.0343,2.0075,2.037,2.0774,2.0634,2.0609,2.0605,2.0605,2.0605,2.0605,2.0605,2.0605,2.0605,2.0605,2.0605,2.0605,2.0605,2.0605,2.0605,2.0605,2.0605,2.0605,2.0605,2.0712,2.1203,2.236,2.266,2.3206,2.4456,2.4755,2.4898,2.5052,2.5194,2.5312,2.5312,2.5312,2.5312,2.5312,2.5312,2.5312,2.5312,2.5312,2.5382,2.5606,2.591,2.6015,2.591,2.6258,2.643,2.643,2.6499,2.6499,1.4748,1.4883,1.4919,1.4964,1.5314,1.5421,1.4566,0.0,1.5383,1.5173,0.0,1.5239,0.0,0.0,0.0,1.5237,1.5044,1.4971,1.5459,1.6037,1.6485,1.6671,1.7472,1.7611,1.662,1.6175,1.6212,1.6775,1.6606,1.6662,1.7017,1.72,1.7306,1.7306,1.7306,1.7306,1.7306,1.7361,1.7586,1.8043,1.8149,1.847,1.8953,1.9005,1.9056,1.9108,1.9108,1.9108,1.9108,1.9108,1.9108,1.9108,1.9108,1.9108,1.9108,1.9108,1.9399,1.9793,1.973,2.0006,2.0447,2.0626,2.0797,2.0865,2.0875,2.0741,2.0605,2.0605,2.0605,2.0605,2.0605,2.0605,2.0605,2.0605,2.0605,2.0605,2.0605,2.0605,2.0605,2.0605,2.0605,2.0605,2.0605,2.1203,2.1461,2.0944,2.1461,2.1983,2.2172,2.2835,2.35,2.4156,2.4862,2.5312,2.5312,2.5312,2.5312,2.5312,2.5312,2.5312,2.5312,2.5312,2.5382,2.5606,2.5641,2.5758,2.591,2.6131,2.6236,2.6236,2.643,2.6499,1.5128,1.5226,1.5329,1.548,1.5744,1.582,1.5236,1.5199,1.5268,1.509,0.0,0.0,0.0,0.0,0.0,0.0,1.4761,1.4882,1.4737,1.5654,1.6404,1.6649,1.7136,1.7179,1.6459,1.6106,1.6121,1.6652,1.6654,1.6716,1.687,1.7291,1.7398,1.7117,1.7239,1.7448,1.7693,1.7995,1.8146,1.8211,1.8733,1.8891,1.8714,1.8984,1.9108,1.9108,1.9108,1.9108,1.9108,1.9108,1.9108,1.9108,1.9108,1.9108,1.9139,1.9409,1.9793,2.0151,2.0151,2.0617,2.1222,2.1193,2.1169,2.1061,2.0945,2.078,2.0605,2.0605,2.0605,2.0605,2.0605,2.0605,2.0605,2.0605,2.0605,2.0605,2.0605,2.0605,2.0605,2.0605,2.0605,2.0605,2.0605,2.0867,2.1165,2.128,2.1983,2.2649,2.3084,2.3829,2.4456,2.4743,2.5087,2.5312,2.5312,2.5312,2.5312,2.5312,2.5312,2.5312,2.5312,2.5418,2.55,2.5606,2.5711,2.584,2.591,2.6097,2.6213,2.6213,2.6396,2.6499,1.6093,1.6264,1.6291,1.6128,1.6313,1.6326,1.567,1.5522,1.5498,1.5498,1.5637,0.0,0.0,0.0,0.0,0.0,0.0,1.4917,0.0,1.5226,1.5905,1.6293,1.6599,1.6655,1.6431,1.605,1.6049,1.6521,1.655,1.6613,1.6751,1.7184,1.732,1.7022,1.7145,1.7479,1.7999,1.8267,1.841,1.8392,1.9019,1.9069,1.8611,1.8953,1.9108,1.9108,1.9108,1.9108,1.9108,1.9108,1.9108,1.9119,1.9243,1.9295,1.9336,1.9668,2.0155,2.0581,2.0581,2.1098,2.1693,2.1464,2.1282,2.1099,2.0896,2.0731,2.0605,2.0605,2.0605,2.0605,2.0605,2.0605,2.0605,2.0605,2.0605,2.0605,2.0605,2.0605,2.0605,2.0605,2.0605,2.0605,2.0605,2.0605,2.0867,2.169,2.2285,2.2872,2.3415,2.4156,2.4612,2.4348,2.4707,2.4969,2.4969,2.5158,2.5312,2.5312,2.5312,2.5312,2.5312,2.543,2.5535,2.5535,2.5723,2.5828,2.5828,2.6097,2.6166,2.6131,2.6396,2.6499,1.8123,1.8397,1.8163,1.7132,1.7218,1.7123,1.5487,1.5868,1.6548,1.6548,1.6955,1.7315,1.7291,0.0,0.0,0.0,0.0,0.0,0.0,0.0,1.4432,1.5162,1.5764,1.621,1.6374,1.5987,1.5905,1.6371,1.6106,1.6126,1.6578,1.6733,1.6874,1.7011,1.7011,1.7344,1.7999,1.7813,1.8128,1.8881,1.8712,1.8803,1.9088,1.9098,1.9108,1.9108,1.9108,1.9108,1.9108,1.9108,1.9108,1.915,1.9596,1.9772,1.9772,1.9793,2.0327,2.1093,2.1093,2.1264,2.1474,2.1282,2.1051,2.0867,2.0654,2.0605,2.0605,2.0605,2.0605,2.0605,2.0605,2.0605,2.0605,2.0605,2.0605,2.0605,2.0605,2.0605,2.0605,2.0605,2.0605,2.0605,2.0605,2.0605,2.0867,2.169,2.1842,2.1842,2.1869,2.2585,2.2771,2.1983,2.3231,2.4145,2.4145,2.4862,2.5312,2.5312,2.5312,2.5312,2.5312,2.5312,2.5312,2.5312,2.55,2.5606,2.5606,2.6027,2.6097,2.591,2.6327,2.6499,1.7932,1.8474,1.8701,1.8148,1.7885,1.7459,1.6464,1.6417,1.6607,1.6607,1.7027,1.7387,1.7387,0.0,0.0,0.0,0.0,0.0,0.0,0.0,1.4743,0.0,0.0,0.0,1.6181,1.5894,1.6001,1.6738,1.6693,1.6836,1.7303,1.7464,1.7436,1.7217,1.7409,1.7733,1.8147,1.85,1.8859,1.9175,1.911,1.9095,1.9108,1.9108,1.9108,1.9108,1.9108,1.9108,1.9108,1.9108,1.9285,1.9575,1.973,2.0166,2.0659,2.0659,2.0855,2.1155,2.1466,2.1635,2.1655,2.1464,2.1359,2.1244,2.1051,2.0886,2.0819,2.0819,2.0693,2.0605,2.0605,2.0605,2.0605,2.0605,2.0605,2.0605,2.0605,2.0605,2.0605,2.0605,2.0605,2.0605,2.0605,2.0605,2.0683,2.0982,2.1461,2.1794,2.1794,2.2947,2.3599,2.3342,2.4264,2.4898,2.4898,2.5158,2.5312,2.5312,2.5312,2.5312,2.5312,2.5312,2.5312,2.5312,2.5382,2.5465,2.5606,2.5723,2.5828,2.591,2.6201,2.6305,1.8413,1.8919,1.9195,1.877,1.8413,1.797,1.7251,1.7158,1.7255,1.7255,1.7629,1.8037,1.828,0.0,0.0,0.0,0.0,0.0,0.0,1.5127,0.0,0.0,0.0,0.0,0.0,1.5967,1.6074,1.7006,1.6875,1.6975,1.743,1.7532,1.756,1.7515,1.7565,1.7907,1.8435,1.8796,1.9094,1.9318,1.9241,1.9175,1.9108,1.9108,1.9108,1.9108,1.9108,1.9108,1.9119,1.9285,1.9523,1.9824,2.0155,2.0596,2.1114,2.1114,2.1217,2.1404,2.1704,2.1769,2.1655,2.154,2.1464,2.1359,2.1244,2.1061,2.0906,2.0906,2.078,2.0605,2.0605,2.0605,2.0605,2.0605,2.0605,2.0605,2.0605,2.0605,2.0605,2.0605,2.0605,2.0605,2.0605,2.0605,2.0683,2.0972,2.1728,2.2209,2.2209,2.3305,2.4,2.3756,2.442,2.4981,2.5276,2.5312,2.5312,2.5312,2.5312,2.5312,2.5312,2.5312,2.5312,2.5312,2.5382,2.5465,2.5606,2.5676,2.5758,2.591,2.6015,2.6131]}]]